[[{"header":{"parameterUnit":"m.s-1","parameterCategory":1,"la1":30.6,"la2":28.766,"lo1":-90.7593,"lo2":-88.6598,"dy":0.0162,"dx":0.0183,"nx":116,"ny":114,"refTime":"2023-05-28T12:00:00:Z","depth":0,"parameterNumber":2,"parameterNumberName":"U-component_of_WINDS"},"data":[0.0,0.0,0.0,0.0,0.0,0.0,0.0,0.0,0.0,0.0,0.0,0.0,0.0,0.0,0.0,0.0,0.0,0.0,0.0,0.0,0.0,0.0,0.0,0.0,0.0,0.0,0.0,0.0,0.0,0.0,0.0,0.0,0.0,0.0,0.0,0.0,0.0,0.0,0.0,0.0,0.0,0.0,0.0,0.0,0.0,0.0,0.0,0.0,0.0,0.0,0.0,0.0,0.0,0.0,0.0,0.0,0.0,0.0,0.0,0.0,0.0,0.0,0.0,0.0,0.0,0.0,0.0,0.0,0.0,0.0,0.0,0.0,0.0,0.0,0.0,0.0,0.0,0.0,0.0,0.0,0.0,0.0,0.0,0.0,0.0,0.0,0.0,0.0,0.0,0.0,0.0,0.0,0.0,0.0,0.0,0.0,0.0,0.0,0.0,0.0,0.0,0.0,0.0,0.0,0.0,0.0,0.0,0.0,0.0,0.0,0.0,0.0,0.0,0.0,0.0,0.0,0.0,0.0,0.0,0.0,0.0,0.0,0.0,0.0,0.0,0.0,0.0,0.0,0.0,0.0,0.0,0.0,0.0,0.0,0.0,0.0,0.0,0.0,0.0,0.0,0.0,0.0,0.0,0.0,0.0,0.0,0.0,0.0,0.0,0.0,0.0,0.0,0.0,0.0,0.0,0.0,0.0,0.0,0.0,0.0,0.0,0.0,0.0,0.0,0.0,0.0,0.0,0.0,0.0,0.0,0.0,0.0,0.0,0.0,0.0,0.0,0.0,0.0,0.0,0.0,0.0,0.0,0.0,0.0,0.0,0.0,0.0,0.0,0.0,0.0,0.0,0.0,0.0,0.0,0.0,0.0,0.0,0.0,0.0,0.0,0.0,0.0,0.0,0.0,0.0,0.0,0.0,0.0,0.0,0.0,0.0,0.0,0.0,0.0,0.0,0.0,0.0,0.0,0.0,0.0,0.0,0.0,0.0,0.0,0.0,0.0,0.0,0.0,0.0,0.0,0.0,0.0,0.0,0.0,0.0,0.0,0.0,0.0,0.0,0.0,0.0,0.0,0.0,0.0,0.0,0.0,0.0,0.0,0.0,0.0,0.0,0.0,0.0,0.0,0.0,0.0,0.0,0.0,0.0,0.0,0.0,0.0,0.0,0.0,0.0,0.0,0.0,0.0,0.0,0.0,0.0,0.0,0.0,0.0,0.0,0.0,0.0,0.0,0.0,0.0,0.0,0.0,0.0,0.0,0.0,0.0,0.0,0.0,0.0,0.0,0.0,0.0,0.0,0.0,0.0,0.0,0.0,0.0,0.0,0.0,0.0,0.0,0.0,0.0,0.0,0.0,0.0,0.0,0.0,0.0,0.0,0.0,0.0,0.0,0.0,0.0,0.0,0.0,0.0,0.0,0.0,0.0,0.0,0.0,0.0,0.0,0.0,0.0,0.0,0.0,0.0,0.0,0.0,0.0,0.0,0.0,0.0,0.0,0.0,0.0,0.0,0.0,0.0,0.0,0.0,0.0,0.0,0.0,0.0,0.0,0.0,0.0,0.0,0.0,0.0,0.0,0.0,0.0,0.0,0.0,0.0,0.0,0.0,0.0,0.0,0.0,0.0,0.0,0.0,0.0,0.0,0.0,0.0,0.0,0.0,0.0,0.0,0.0,0.0,0.0,0.0,0.0,0.0,0.0,0.0,0.0,0.0,0.0,0.0,0.0,0.0,0.0,0.0,0.0,0.0,0.0,0.0,0.0,0.0,0.0,0.0,0.0,0.0,0.0,0.0,0.0,0.0,0.0,0.0,0.0,0.0,0.0,0.0,0.0,0.0,0.0,0.0,0.0,0.0,0.0,0.0,0.0,0.0,0.0,0.0,0.0,0.0,0.0,0.0,0.0,0.0,0.0,0.0,0.0,0.0,0.0,0.0,0.0,0.0,0.0,0.0,0.0,0.0,0.0,0.0,0.0,0.0,0.0,0.0,0.0,0.0,0.0,0.0,0.0,0.0,0.0,0.0,0.0,0.0,0.0,0.0,0.0,0.0,0.0,0.0,0.0,0.0,0.0,0.0,0.0,0.0,0.0,0.0,0.0,0.0,0.0,0.0,0.0,0.0,0.0,0.0,0.0,0.0,0.0,0.0,0.0,0.0,0.0,0.0,0.0,0.0,0.0,0.0,0.0,0.0,0.0,0.0,0.0,0.0,0.0,0.0,0.0,0.0,0.0,0.0,0.0,0.0,0.0,0.0,0.0,0.0,0.0,0.0,0.0,0.0,0.0,0.0,0.0,0.0,0.0,0.0,0.0,0.0,0.0,0.0,0.0,0.0,0.0,0.0,0.0,0.0,0.0,0.0,0.0,0.0,0.0,0.0,0.0,0.0,0.0,0.0,0.0,0.0,0.0,0.0,0.0,0.0,0.0,0.0,0.0,0.0,0.0,0.0,0.0,0.0,0.0,0.0,0.0,0.0,0.0,0.0,0.0,0.0,0.0,0.0,0.0,0.0,0.0,0.0,0.0,0.0,0.0,0.0,0.0,0.0,0.0,0.0,0.0,0.0,0.0,0.0,0.0,0.0,0.0,0.0,0.0,0.0,0.0,0.0,0.0,0.0,0.0,0.0,0.0,0.0,0.0,0.0,0.0,0.0,0.0,0.0,0.0,0.0,0.0,0.0,0.0,0.0,0.0,0.0,0.0,0.0,0.0,0.0,0.0,0.0,0.0,0.0,0.0,0.0,0.0,0.0,0.0,0.0,0.0,0.0,0.0,0.0,0.0,0.0,0.0,0.0,0.0,0.0,0.0,0.0,0.0,0.0,0.0,0.0,0.0,0.0,0.0,0.0,0.0,0.0,0.0,0.0,0.0,0.0,0.0,0.0,0.0,0.0,0.0,0.0,0.0,0.0,0.0,0.0,0.0,0.0,0.0,0.0,0.0,0.0,0.0,0.0,0.0,0.0,0.0,0.0,0.0,0.0,0.0,0.0,0.0,0.0,0.0,0.0,0.0,0.0,0.0,0.0,0.0,0.0,0.0,0.0,0.0,0.0,0.0,0.0,0.0,0.0,0.0,0.0,0.0,0.0,0.0,0.0,0.0,0.0,0.0,0.0,0.0,0.0,0.0,0.0,0.0,0.0,0.0,0.0,0.0,0.0,0.0,0.0,0.0,0.0,0.0,0.0,0.0,0.0,0.0,0.0,0.0,0.0,0.0,0.0,0.0,0.0,0.0,0.0,0.0,0.0,0.0,0.0,0.0,0.0,0.0,0.0,0.0,0.0,0.0,0.0,0.0,0.0,0.0,0.0,0.0,0.0,0.0,0.0,0.0,0.0,0.0,0.0,0.0,0.0,0.0,0.0,0.0,0.0,0.0,0.0,0.0,0.0,0.0,0.0,0.0,0.0,0.0,0.0,0.0,0.0,0.0,0.0,0.0,0.0,0.0,0.0,0.0,0.0,0.0,0.0,0.0,0.0,0.0,0.0,0.0,0.0,0.0,0.0,0.0,0.0,0.0,0.0,0.0,0.0,0.0,0.0,0.0,0.0,0.0,0.0,0.0,0.0,0.0,0.0,0.0,0.0,0.0,0.0,0.0,0.0,0.0,0.0,0.0,0.0,0.0,0.0,0.0,0.0,0.0,0.0,0.0,0.0,0.0,0.0,0.0,0.0,0.0,0.0,0.0,0.0,0.0,0.0,0.0,0.0,0.0,0.0,0.0,0.0,0.0,0.0,0.0,0.0,0.0,0.0,0.0,0.0,0.0,0.0,0.0,0.0,0.0,0.0,0.0,0.0,0.0,0.0,0.0,0.0,0.0,0.0,0.0,0.0,0.0,0.0,0.0,0.0,0.0,0.0,0.0,0.0,0.0,0.0,0.0,0.0,0.0,0.0,0.0,0.0,0.0,0.0,0.0,0.0,0.0,0.0,0.0,0.0,0.0,0.0,0.0,0.0,0.0,0.0,0.0,0.0,0.0,0.0,0.0,0.0,0.0,0.0,0.0,0.0,0.0,0.0,0.0,0.0,0.0,0.0,0.0,0.0,0.0,0.0,0.0,0.0,0.0,0.0,0.0,0.0,0.0,0.0,0.0,0.0,0.0,0.0,0.0,0.0,0.0,0.0,0.0,0.0,0.0,0.0,0.0,0.0,0.0,0.0,0.0,0.0,0.0,0.0,0.0,0.0,0.0,0.0,0.0,0.0,0.0,0.0,0.0,0.0,0.0,0.0,0.0,0.0,0.0,0.0,0.0,0.0,0.0,0.0,0.0,0.0,0.0,0.0,0.0,0.0,0.0,0.0,0.0,0.0,0.0,0.0,0.0,0.0,0.0,0.0,0.0,0.0,0.0,0.0,0.0,0.0,0.0,0.0,0.0,0.0,0.0,0.0,0.0,0.0,0.0,0.0,0.0,0.0,0.0,0.0,0.0,0.0,0.0,0.0,0.0,0.0,0.0,0.0,0.0,0.0,0.0,0.0,0.0,0.0,0.0,0.0,0.0,0.0,0.0,0.0,0.0,0.0,0.0,0.0,0.0,0.0,0.0,0.0,0.0,0.0,0.0,0.0,0.0,0.0,0.0,0.0,0.0,0.0,0.0,0.0,0.0,0.0,0.0,0.0,0.0,0.0,0.0,0.0,0.0,0.0,0.0,0.0,0.0,0.0,0.0,0.0,0.0,0.0,0.0,0.0,0.0,0.0,0.0,0.0,0.0,0.0,0.0,0.0,0.0,0.0,0.0,0.0,0.0,0.0,0.0,0.0,0.0,0.0,0.0,0.0,0.0,0.0,0.0,0.0,0.0,0.0,0.0,0.0,0.0,0.0,0.0,0.0,0.0,0.0,0.0,0.0,0.0,0.0,0.0,0.0,0.0,0.0,0.0,0.0,0.0,0.0,0.0,0.0,0.0,0.0,0.0,0.0,0.0,0.0,0.0,0.0,0.0,0.0,0.0,0.0,0.0,0.0,0.0,0.0,0.0,0.0,0.0,0.0,0.0,0.0,0.0,0.0,0.0,0.0,0.0,0.0,0.0,0.0,0.0,0.0,0.0,0.0,0.0,0.0,0.0,0.0,0.0,0.0,0.0,0.0,0.0,0.0,0.0,0.0,0.0,0.0,0.0,0.0,0.0,0.0,0.0,0.0,0.0,0.0,0.0,0.0,0.0,0.0,0.0,0.0,0.0,0.0,0.0,0.0,0.0,0.0,0.0,0.0,0.0,0.0,0.0,0.0,0.0,0.0,0.0,0.0,0.0,0.0,0.0,0.0,0.0,0.0,0.0,0.0,0.0,0.0,0.0,0.0,0.0,0.0,0.0,0.0,0.0,0.0,0.0,0.0,0.0,0.0,0.0,0.0,0.0,0.0,0.0,0.0,0.0,0.0,0.0,0.0,0.0,0.0,0.0,0.0,0.0,0.0,0.0,0.0,0.0,0.0,0.0,0.0,0.0,0.0,0.0,0.0,0.0,0.0,0.0,0.0,0.0,0.0,0.0,0.0,0.0,0.0,0.0,0.0,0.0,0.0,0.0,0.0,0.0,0.0,0.0,0.0,0.0,0.0,0.0,0.0,0.0,0.0,0.0,0.0,0.0,0.0,0.0,0.0,0.0,0.0,0.0,0.0,0.0,0.0,0.0,0.0,0.0,0.0,0.0,0.0,0.0,0.0,0.0,0.0,0.0,0.0,0.0,0.0,0.0,0.0,0.0,0.0,0.0,0.0,0.0,0.0,0.0,0.0,0.0,0.0,0.0,0.0,0.0,0.0,0.0,0.0,0.0,0.0,0.0,0.0,0.0,0.0,0.0,0.0,0.0,0.0,0.0,0.0,0.0,0.0,0.0,0.0,0.0,0.0,0.0,0.0,0.0,0.0,0.0,0.0,0.0,0.0,0.0,0.0,0.0,0.0,0.0,0.0,0.0,0.0,0.0,0.0,0.0,0.0,0.0,0.0,0.0,0.0,0.0,0.0,0.0,0.0,0.0,0.0,0.0,0.0,0.0,0.0,0.0,0.0,0.0,0.0,0.0,0.0,0.0,0.0,0.0,0.0,0.0,0.0,0.0,0.0,0.0,0.0,0.0,0.0,0.0,0.0,0.0,0.0,0.0,0.0,0.0,0.0,0.0,0.0,0.0,0.0,0.0,0.0,0.0,0.0,0.0,0.0,0.0,0.0,0.0,0.0,0.0,0.0,0.0,0.0,0.0,0.0,0.0,0.0,0.0,0.0,0.0,0.0,0.0,0.0,0.0,0.0,0.0,0.0,0.0,0.0,0.0,0.0,0.0,0.0,-0.9042,-0.9042,-0.9145,-0.9291,-0.8379,-0.8301,-0.8947,0.0,0.0,0.0,0.0,0.0,0.0,0.0,0.0,0.0,0.0,0.0,0.0,0.0,0.0,0.0,0.0,0.0,0.0,0.0,0.0,0.0,0.0,0.0,0.0,0.0,0.0,0.0,0.0,0.0,0.0,0.0,0.0,0.0,0.0,0.0,0.0,0.0,0.0,0.0,0.0,0.0,0.0,0.0,0.0,0.0,0.0,0.0,0.0,0.0,0.0,0.0,0.0,0.0,0.0,0.0,0.0,0.0,0.0,0.0,0.0,0.0,0.0,0.0,0.0,0.0,0.0,0.0,0.0,0.0,0.0,0.0,0.0,0.0,0.0,0.0,0.0,0.0,0.0,0.0,0.0,0.0,0.0,0.0,0.0,0.0,0.0,0.0,0.0,0.0,0.0,0.0,0.0,0.0,0.0,0.0,0.0,-0.8584,-0.871,-0.8723,-0.8777,0.0,0.0,0.0,0.0,0.0,0.0,0.0,-0.8973,-0.9072,-0.9223,-0.9247,-0.9325,-0.9393,-0.7708,-0.7623,-0.8819,-0.8339,0.0,0.0,0.0,0.0,0.0,0.0,0.0,0.0,0.0,0.0,0.0,0.0,0.0,0.0,0.0,0.0,0.0,0.0,0.0,0.0,0.0,0.0,0.0,0.0,0.0,0.0,0.0,0.0,0.0,0.0,0.0,0.0,0.0,0.0,0.0,0.0,0.0,0.0,0.0,0.0,0.0,0.0,0.0,0.0,0.0,0.0,0.0,0.0,0.0,0.0,0.0,0.0,0.0,0.0,0.0,0.0,0.0,0.0,0.0,0.0,0.0,0.0,0.0,0.0,0.0,0.0,0.0,0.0,0.0,0.0,0.0,0.0,0.0,0.0,0.0,0.0,0.0,0.0,0.0,0.0,0.0,0.0,0.0,0.0,0.0,0.0,0.0,0.0,0.0,0.0,0.0,0.0,0.0,0.0,-0.8679,-0.8716,-0.8869,-0.8882,-0.8889,0.0,0.0,0.0,0.0,0.0,0.0,-0.9152,-0.9284,-0.9359,-0.9379,-0.9486,-0.9561,-0.9548,-0.7868,-0.7169,-0.7299,-0.5777,-0.5066,-0.5066,0.0,0.0,0.0,0.0,0.0,0.0,0.0,0.0,0.0,0.0,0.0,0.0,0.0,0.0,0.0,0.0,0.0,0.0,0.0,0.0,0.0,0.0,0.0,0.0,0.0,0.0,0.0,0.0,0.0,0.0,0.0,0.0,0.0,0.0,0.0,0.0,0.0,0.0,0.0,0.0,0.0,0.0,0.0,0.0,0.0,0.0,0.0,0.0,0.0,0.0,0.0,0.0,0.0,0.0,0.0,0.0,0.0,0.0,0.0,0.0,0.0,0.0,0.0,0.0,0.0,0.0,0.0,0.0,0.0,0.0,0.0,0.0,0.0,0.0,0.0,0.0,0.0,0.0,0.0,0.0,0.0,0.0,0.0,0.0,0.0,0.0,0.0,0.0,0.0,0.0,0.0,0.0,-0.891,-0.9015,-0.9052,-0.9137,-0.9188,-0.9188,0.0,0.0,0.0,0.0,-0.9311,-0.9311,-0.9376,-0.9422,-0.951,-0.9656,-0.9697,-0.9667,-0.8051,-0.6775,-0.5807,-0.4108,-0.3788,-0.4454,-0.3578,0.0,0.0,0.0,0.0,0.0,0.0,0.0,0.0,0.0,0.0,0.0,0.0,0.0,0.0,0.0,0.0,0.0,0.0,0.0,0.0,0.0,0.0,0.0,0.0,0.0,0.0,0.0,0.0,0.0,0.0,0.0,0.0,0.0,0.0,0.0,0.0,0.0,0.0,0.0,0.0,0.0,0.0,0.0,0.0,0.0,0.0,0.0,0.0,0.0,0.0,0.0,0.0,0.0,0.0,0.0,0.0,0.0,0.0,0.0,0.0,0.0,0.0,0.0,0.0,0.0,0.0,0.0,0.0,0.0,0.0,0.0,0.0,0.0,0.0,0.0,0.0,0.0,0.0,0.0,0.0,0.0,0.0,0.0,0.0,0.0,0.0,0.0,0.0,0.0,0.0,-0.8332,-0.8521,-0.8777,-0.9211,-0.9345,-0.941,-0.941,-0.941,0.0,-0.941,-0.9447,-0.9439,-0.9439,-0.9476,-0.9551,-0.9663,-0.9741,-0.9792,-0.9758,-0.8158,-0.6505,-0.4826,-0.323,-0.2824,-0.3266,-0.211,-0.1632,-0.1538,0.0,0.0,0.0,0.0,0.0,0.0,0.0,0.0,0.0,0.0,0.0,0.0,0.0,0.0,0.0,0.0,0.0,0.0,0.0,0.0,0.0,0.0,0.0,0.0,0.0,0.0,0.0,0.0,0.0,0.0,0.0,0.0,0.0,0.0,0.0,0.0,0.0,0.0,0.0,0.0,0.0,0.0,0.0,0.0,0.0,0.0,0.0,0.0,0.0,0.0,0.0,0.0,0.0,0.0,0.0,0.0,0.0,0.0,0.0,0.0,0.0,0.0,0.0,0.0,0.0,0.0,0.0,0.0,0.0,0.0,0.0,0.0,0.0,0.0,0.0,0.0,0.0,0.0,0.0,0.0,0.0,0.0,0.0,0.0,0.0,0.0,0.0,-0.5305,-0.6822,-0.701,-0.7663,-0.9252,-0.9403,-0.941,-0.941,-0.941,-0.941,-0.941,-0.952,-0.9598,-0.9598,-0.973,-0.9771,-0.9781,-0.9788,-0.9792,-0.9758,-0.8158,-0.6505,-0.4826,-0.323,-0.1662,-0.0216,-0.0154,-0.0122,-0.009,-0.003,0.0,0.0,0.0,0.0,0.0,0.0,0.0,0.0,0.0,0.0,0.0,0.0,0.0,0.0,0.0,0.0,0.0,0.0,0.0,0.0,0.0,0.0,0.0,0.0,0.0,0.0,0.0,0.0,0.0,0.0,0.0,0.0,0.0,0.0,0.0,0.0,0.0,0.0,0.0,0.0,0.0,0.0,0.0,0.0,0.0,0.0,0.0,0.0,0.0,0.0,0.0,0.0,0.0,0.0,0.0,0.0,0.0,0.0,0.0,0.0,0.0,0.0,0.0,0.0,0.0,0.0,0.0,0.0,0.0,0.0,0.0,0.0,0.0,0.0,0.0,0.0,0.0,0.0,0.0,0.0,0.0,0.0,0.0,-0.4427,-0.45,-0.4502,-0.4709,-0.528,-0.6364,-0.7259,-0.7856,-0.8977,-0.9663,-0.9663,-0.9663,-0.9707,-0.9775,-0.9832,-0.9863,-0.9863,-0.9815,-0.9792,-0.9792,-0.9792,-0.9792,-0.9758,-0.8158,-0.6505,-0.4826,-0.323,-0.1571,0.0,0.0,0.0,0.0,0.0,0.0,0.0,0.0,0.0,0.0,0.0,0.0,0.0,0.0,0.0,0.0,0.0,0.0,0.0,0.0,0.0,0.0,0.0,0.0,0.0,0.0,0.0,0.0,0.0,0.0,0.0,0.0,0.0,0.0,0.0,0.0,0.0,0.0,0.0,0.0,0.0,0.0,0.0,0.0,0.0,0.0,0.0,0.0,0.0,0.0,0.0,0.0,0.0,0.0,0.0,0.0,0.0,0.0,0.0,0.0,0.0,0.0,0.0,0.0,0.0,0.0,0.0,0.0,0.0,0.0,0.0,0.0,0.0,0.0,0.0,0.0,0.0,0.0,0.0,0.0,0.0,0.0,0.0,0.0,0.0,0.0,0.0,0.0,-0.2978,-0.2968,-0.2988,-0.3185,-0.375,-0.4855,-0.5778,-0.632,-0.7446,-0.8376,-0.8958,-0.8475,-0.8694,-0.9949,-0.9987,-0.9987,-0.9987,-0.9917,-0.9893,-0.9978,-0.9978,-0.9667,-0.9029,-0.7974,-0.6261,-0.4057,-0.2985,-0.1571,0.0,0.0,0.0,0.0,0.0,0.0,0.0,0.0,0.0,0.0,0.0,0.0,0.0,0.0,0.0,0.0,0.0,0.0,0.0,0.0,0.0,0.0,0.0,0.0,0.0,0.0,0.0,0.0,0.0,0.0,0.0,0.0,0.0,0.0,0.0,0.0,0.0,0.0,0.0,0.0,0.0,0.0,0.0,0.0,0.0,0.0,0.0,0.0,0.0,0.0,0.0,0.0,0.0,0.0,0.0,0.0,0.0,0.0,0.0,0.0,0.0,0.0,0.0,0.0,0.0,0.0,0.0,0.0,0.0,0.0,0.0,0.0,0.0,0.0,0.0,0.0,0.0,0.0,0.0,0.0,0.0,0.0,0.0,0.0,0.0,0.0,0.0,0.0,0.0,0.0,0.0,-0.0633,-0.2258,-0.2471,-0.3139,-0.4702,-0.4885,-0.559,-0.7212,-0.5788,-0.6371,-0.9714,-0.9838,-0.9838,-0.9841,-0.9838,-0.9939,-1.0117,-1.0117,-0.9241,-0.7505,-0.7473,-0.5675,-0.2497,-0.2434,-0.1511,0.0,0.0,0.0,0.0,0.0,0.0,0.0,0.0,0.0,0.0,0.0,0.0,0.0,0.0,0.0,0.0,0.0,0.0,0.0,0.0,0.0,0.0,0.0,0.0,0.0,0.0,0.0,0.0,0.0,0.0,0.0,0.0,0.0,0.0,0.0,0.0,0.0,0.0,0.0,0.0,0.0,0.0,0.0,0.0,0.0,0.0,0.0,0.0,0.0,0.0,0.0,0.0,0.0,0.0,0.0,0.0,0.0,0.0,0.0,0.0,0.0,0.0,0.0,0.0,0.0,0.0,0.0,0.0,0.0,0.0,0.0,0.0,0.0,0.0,0.0,0.0,0.0,0.0,0.0,0.0,0.0,0.0,0.0,0.0,0.0,0.0,0.0,0.0,0.0,0.0,0.0,-0.0182,-0.0643,-0.1782,-0.2677,-0.3108,-0.4212,-0.509,-0.5547,-0.5166,-0.5355,-0.641,-0.6447,-0.6443,-0.6447,-0.6349,-0.6326,-0.6385,-0.6385,-0.6115,-0.5612,-0.4435,-0.341,-0.2445,-0.1228,-0.0439,0.0,0.0,0.0,0.0,0.0,0.0,0.0,0.0,0.0,0.0,0.0,0.0,0.0,0.0,0.0,0.0,0.0,0.0,0.0,0.0,0.0,0.0,0.0,0.0,0.0,0.0,0.0,0.0,0.0,0.0,0.0,0.0,0.0,0.0,0.0,0.0,0.0,0.0,0.0,0.0,0.0,0.0,0.0,0.0,0.0,0.0,0.0,0.0,0.0,0.0,0.0,0.0,0.0,0.0,0.0,0.0,0.0,0.0,0.0,0.0,0.0,0.0,0.0,0.0,0.0,0.0,0.0,0.0,0.0,0.0,0.0,0.0,0.0,0.0,0.0,0.0,0.0,0.0,0.0,0.0,0.0,0.0,0.0,0.0,0.0,0.0,0.0,0.0,0.0,0.0,0.0,0.0,0.0,-0.0863,-0.1448,-0.1448,-0.2323,-0.3148,-0.3864,-0.4574,-0.4692,-0.4031,-0.4703,-0.5106,-0.5084,-0.5009,-0.5035,-0.5099,-0.5099,-0.4726,-0.3953,-0.3016,-0.2168,-0.1416,-0.0448,0.0,0.0,0.0,0.0,0.0,0.0,0.0,0.0,0.0,0.0,0.0,0.0,0.0,0.0,0.0,0.0,0.0,0.0,0.0,0.0,0.0,0.0,0.0,0.0,0.0,0.0,0.0,0.0,0.0,0.0,0.0,0.0,0.0,0.0,0.0,0.0,0.0,0.0,0.0,0.0,0.0,0.0,0.0,0.0,0.0,0.0,0.0,0.0,0.0,0.0,0.0,0.0,0.0,0.0,0.0,0.0,0.0,0.0,0.0,0.0,0.0,0.0,0.0,0.0,0.0,0.0,0.0,0.0,0.0,0.0,0.0,0.0,0.0,0.0,0.0,0.0,0.0,0.0,0.0,0.0,0.0,0.0,0.0,0.0,0.0,0.0,0.0,0.0,0.0,0.0,0.0,0.0,0.0,0.0,0.0,0.0,0.0,0.0,-0.0631,-0.2116,-0.365,-0.3845,-0.229,-0.3685,-0.4531,-0.4538,-0.4538,-0.4601,-0.4795,-0.4795,-0.3965,-0.2405,-0.2405,-0.154,0.0,0.0,0.0,0.0,0.0,0.0,0.0,0.0,0.0,0.0,0.0,0.0,0.0,0.0,0.0,0.0,0.0,0.0,0.0,0.0,0.0,0.0,0.0,0.0,0.0,0.0,0.0,0.0,0.0,0.0,0.0,0.0,0.0,0.0,0.0,0.0,0.0,0.0,0.0,0.0,0.0,0.0,0.0,0.0,0.0,0.0,0.0,0.0,0.0,0.0,0.0,0.0,0.0,0.0,0.0,0.0,0.0,0.0,0.0,0.0,0.0,0.0,0.0,0.0,0.0,0.0,0.0,0.0,0.0,0.0,0.0,0.0,0.0,0.0,0.0,0.0,0.0,0.0,0.0,0.0,0.0,0.0,0.0,0.0,0.0,0.0,0.0,0.0,0.0,0.0,0.0,0.0,0.0,0.0,0.0,0.0,0.0,0.0,0.0,0.0,-0.0127,-0.0449,-0.0807,-0.0845,-0.0492,-0.0822,-0.0993,-0.0971,-0.0971,-0.1006,-0.1042,-0.1042,-0.0873,-0.0536,-0.0536,-0.0335,0.0,0.0,0.0,0.0,0.0,0.0,0.0,0.0,0.0,0.0,0.0,0.0,0.0,0.0,0.0,0.0,0.0,0.0,0.0,0.0,0.0,0.0,0.0,0.0,0.0,0.0,0.0,0.0,0.0,0.0,0.0,0.0,0.0,0.0,0.0,0.0,0.0,0.0,0.0,0.0,0.0,0.0,0.0,0.0,0.0,0.0,0.0,0.0,0.0,0.0,0.0,0.0,0.0,0.0,0.0,0.0,0.0,0.0,0.0,0.0,0.0,0.0,0.0,0.0,0.0,0.0,0.0,0.0,0.0,0.0,0.0,0.0,0.0,0.0,0.0,0.0,0.0,0.0,0.0,0.0,0.0,0.0,0.0,0.0,0.0,0.0,0.0,0.0,0.0,0.0,0.0,0.0,0.0,0.0,0.0,0.0,0.0,0.0,0.0,0.0,0.0,0.0,0.0,0.0,0.0,0.0,0.0,0.0,0.0,0.0,0.0,0.0,0.0,0.0,0.0,0.0,0.0,0.0,0.0,0.0,0.0,0.0,0.0,0.0,0.0,0.0,0.0,0.0,0.0,0.0,0.0,0.0,0.0,0.0,0.0,0.0,0.0,0.0,0.0,0.0,0.0,0.0,0.0,0.0,0.0,0.0,0.0,0.0,0.0,0.0,0.0,0.0,0.0,0.0,0.0,0.0,0.0,0.0,0.0,0.0,0.0,0.0,0.0,0.0,0.0,0.0,0.0,0.0,0.0,0.0,0.0,0.0,0.0,0.0,0.0,0.0,0.0,0.0,0.0,0.0,0.0,0.0,0.0,0.0,0.0,0.0,0.0,0.0,0.0,0.0,0.0,0.0,0.0,0.0,0.0,0.0,0.0,0.0,0.0,0.0,0.0,0.0,0.0,0.0,0.0,0.0,0.0,0.0,0.0,0.0,0.0,0.0,0.0,0.0,0.0,0.0,0.0,0.0,0.0,0.0,0.0,0.0,0.0,0.0,0.0,0.0,0.0,0.0,0.0,0.0,0.0,0.0,0.0,0.0,0.0,0.0,0.0,0.0,0.0,0.0,0.0,0.0,0.0,0.0,0.0,0.0,0.0,0.0,0.0,0.0,0.0,0.0,0.0,0.0,0.0,0.0,0.0,0.0,0.0,0.0,0.0,0.0,0.0,0.0,0.0,0.0,0.0,0.0,0.0,0.0,0.0,0.0,0.0,0.0,0.0,0.0,0.0,0.0,0.0,0.0,0.0,0.0,0.0,0.0,0.0,0.0,0.0,0.0,0.0,0.0,0.0,0.0,0.0,0.0,0.0,0.0,0.0,0.0,0.0,0.0,0.0,0.0,0.0,0.0,0.0,0.0,0.0,0.0,0.0,0.0,0.0,0.0,0.0,0.0,0.0,0.0,0.0,0.0,0.0,0.0,0.0,0.0,0.0,0.0,0.0,0.0,0.0,0.0,0.0,0.0,0.0,0.0,0.0,0.0,0.0,0.0,0.0,0.0,0.0,0.0,0.0,0.0,0.0,0.0,0.0,0.0,0.0,0.0,0.0,0.0,0.0,0.0,0.0,0.0,0.0,0.0,0.0,0.0,0.0,0.0,0.0,0.0,0.0,0.0,0.0,0.0,0.0,0.0,0.0,0.0,0.0,0.0,0.0,0.0,0.0,0.0,0.0,0.0,0.0,0.0,0.0,0.0,0.0,0.0,0.0,0.0,0.0,0.0,0.0,0.0,0.0,0.0,0.0,0.0,0.0,0.0,0.0,0.0,0.0,0.0,0.0,0.0,0.0,0.0,0.0,0.0,0.0,0.0,0.0,0.0,0.0,0.0,0.0,0.0,0.0,0.0,0.0,0.0,0.0,0.0,0.0,0.0,0.0,0.0,0.0,0.0,0.0,0.0,0.0,0.0,0.0,0.0,0.0,0.0,0.0,0.0,0.0,0.0,0.0,0.0,0.0,0.0,0.0,0.0,0.0,0.0,0.0,0.0,0.0,0.0,0.0,0.0,0.0,0.0,0.0,0.0,0.0,0.0,0.0,0.0,0.0,0.0,0.0,0.0,0.0,0.0,0.0,0.0,0.0,0.0,0.0,0.0,0.0,0.0,0.0,0.0,0.0,0.0,0.0,0.0,0.0,0.0,0.0,0.0,0.0,0.0,0.0,0.0,0.0,0.0,0.0,0.0,0.0,0.0,0.0,0.0,0.0,0.0,0.0,0.0,0.0,0.0,0.0,0.0,0.0,0.0,0.0,0.0,0.0,0.0,0.0,0.0,0.0,0.0,0.0,0.0,0.0,0.0,0.0,0.0,0.0,0.0,0.0,0.0,0.0,0.0,0.0,0.0,0.0,0.0,0.0,0.0,0.0,0.0,0.0,0.0,0.0,0.0,0.0,0.0,0.0,0.0,0.0,0.0,0.0,0.0,0.0,0.0,0.0,0.0,0.0,0.0,0.0,0.0,0.0,0.0,0.0,0.0678,0.0524,0.0062,0.0,0.0,0.0,0.0,0.0,0.0,0.0,0.0,0.0,0.0,0.0,0.0,0.0,0.0,0.0,0.0,0.0,0.0,0.0,0.0,0.0,0.0,0.0,0.0,0.0,0.0,0.0,0.0,0.0,0.0,0.0,0.0,0.0,0.0,0.0,0.0,0.0,0.0,0.0,0.0,0.0,0.0,0.0,0.0,0.0,0.0,0.0,0.0,0.0,0.0,0.0,0.0,0.0,0.0,0.0,0.0,0.0,0.0,0.0,0.0,0.0,0.0,0.0,0.0,0.0,0.0,0.0,0.0,0.0,0.0,0.0,0.0,0.0,0.0,0.0,0.0,0.0,0.0,0.0,0.0,0.0,0.0,0.0,0.0,0.0,0.0,0.0,0.0,0.0,0.0,0.0,0.0,0.0,0.0,0.0,0.0,0.0,0.0,0.0,0.0,0.0,0.0,0.0,0.0,0.0,0.0,0.0,0.0,0.0,0.0,0.0,0.0,0.0,0.0,0.0,0.0,0.0,0.0,0.0,0.0,0.0,0.0,0.0,0.0,0.0,0.0,0.0,0.0,0.0,0.0,0.0,0.0,0.0,0.0,0.0,0.0,0.0,0.0,0.0,0.0,0.0,0.0,0.0,0.0,0.0,0.0,0.0,0.0,0.0,0.0,0.0,0.0,0.0,0.0,0.0,0.0,0.0,0.0,0.0,0.0,0.0,0.0,0.0,0.0,0.0,0.0,0.0,0.0,0.0,0.0,0.0,0.0,0.0,0.0,0.0,0.0,0.0,0.0,0.0,0.0,0.0,0.0,0.0,0.0,0.0,0.0,0.0,0.0,0.0,0.0,0.0,0.0,0.0,0.0,0.0,0.0,0.0,0.0,0.0,0.0,0.0,0.0,0.0,0.0,0.0,0.0,0.0,0.0,0.0,0.0,0.0,0.0,0.0,0.0,0.0,0.0,0.0,0.0,0.0,0.0,0.0,0.0,0.0,0.0,0.0,0.0,0.0,0.0,0.0,0.0,0.0,0.0,0.0,0.0,0.0,0.2278,0.1664,0.1664,0.0617,0.0,0.0,0.0,0.0,0.0,0.0,0.0,0.0,0.0,0.0,0.0,0.0,0.0,0.0,0.0,0.0,0.0,0.0,0.0,0.0,0.0,0.0,0.0,0.0,0.0,0.0,0.0,0.0,0.0,0.0,0.0,0.0,0.0,0.0,0.0,0.0,0.0,0.0,0.0,0.0,0.0,0.0,0.0,0.0,0.0,0.0,0.0,0.0,0.0,0.0,0.0,0.0,0.0,0.0,0.0,0.0,0.0,0.0,0.0,0.0,0.0,0.0,0.0,0.0,0.0,0.0,0.0,0.0,0.0,0.0,0.0,0.0,0.0,0.0,0.0,0.0,0.0,0.0,0.0,0.0,0.0,0.0,0.0,0.0,0.0,0.0,0.0,0.0,0.0,0.0,0.0,0.0,0.0,0.0,0.0,0.0,0.0,0.0,0.0,0.0,0.0,0.0,0.0,0.0,0.0,0.0,0.0,0.0,0.0,0.0,0.0,0.0,0.0,0.3353,0.3353,0.234,0.1756,0.1756,0.1756,0.1764,0.175,0.1751,0.1763,0.1757,0.1757,0.1762,0.1739,0.1739,0.1739,0.1739,0.1739,0.1739,0.174,0.1755,0.1767,0.181,0.1827,0.1472,0.0975,0.0975,0.0572,0.0,0.0,0.0,0.0,0.0,0.0,0.0,0.0,0.0,0.0,0.0,0.0,0.0,0.0,0.0,0.0,0.0,0.0,0.0,0.0,0.0,0.0,0.0,0.0,0.0,0.0,0.0,0.0,0.0,0.0,0.0,0.0,0.0,0.0,0.0,0.0,0.0,0.0,0.0,0.0,0.0,0.0,0.0,0.0,0.0,0.0,0.0,0.0,0.0,0.0,0.0,0.0,0.0,0.0,0.0,0.0,0.0,0.0,0.0,0.0,0.0,0.0,0.0,0.0,0.0,0.0,0.0,0.0,0.0,0.0,0.0,0.0,0.0,0.0,0.0,0.0,0.0,0.0,0.0,0.0,0.0,0.0,0.0,0.0,0.0,0.0,0.0,0.0,0.0,0.5039,0.4947,0.4885,0.4885,0.4885,0.4885,0.4885,0.4885,0.4887,0.4891,0.4891,0.4896,0.4903,0.4903,0.4907,0.4942,0.4942,0.4942,0.4942,0.4915,0.4988,0.5117,0.5122,0.4207,0.2819,0.2719,0.1646,0.0135,0.0034,0.0,0.0,0.0,0.0,0.0,0.0,0.0,0.0,0.0,0.0,0.0,0.0,0.0,0.0,0.0,0.0,0.0,0.0,0.0,0.0,0.0,0.0,0.0,0.0,0.0,0.0,0.0,0.0,0.0,0.0,0.0,0.0,0.0,0.0,0.0,0.0,0.0,0.0,0.0,0.0,0.0,0.0,0.0,0.0,0.0,0.0,0.0,0.0,0.0,0.0,0.0,0.0,0.0,0.0,0.0,0.0,0.0,0.0,0.0,0.0,0.0,0.0,0.0,0.0,0.0,0.0,0.0,0.0,0.0,0.0,0.0,0.0,0.0,0.0,0.0,0.0,0.0,0.0,0.0,0.0,0.0,0.0,0.0,0.0,0.0,0.0,0.0,0.675,0.559,0.4885,0.4885,0.4885,0.4885,0.4885,0.4885,0.4894,0.4913,0.4913,0.495,0.5051,0.5051,0.5113,0.5266,0.5266,0.5266,0.5269,0.5262,0.5298,0.532,0.5311,0.5078,0.4559,0.3221,0.2417,0.1847,0.0471,0.0,0.0,0.0,0.0,0.0,0.0,0.0,0.0,0.0,0.0,0.0,0.0,0.0,0.0,0.0,0.0,0.0,0.0,0.0,0.0,0.0,0.0,0.0,0.0,0.0,0.0,0.0,0.0,0.0,0.0,0.0,0.0,0.0,0.0,0.0,0.0,0.0,0.0,0.0,0.0,0.0,0.0,0.0,0.0,0.0,0.0,0.0,0.0,0.0,0.0,0.0,0.0,0.0,0.0,0.0,0.0,0.0,0.0,0.0,0.0,0.0,0.0,0.0,0.0,0.0,0.0,0.0,0.0,0.0,0.0,0.0,0.0,0.0,0.0,0.0,0.0,0.0,0.0,0.0,0.0,0.0,0.0,0.0,0.0,0.0,0.0,0.0,0.0,0.7579,0.706,0.706,0.706,0.706,0.706,0.706,0.706,0.706,0.706,0.7089,0.7176,0.7176,0.7208,0.7332,0.7332,0.7359,0.7409,0.7407,0.752,0.0,0.0,0.7192,0.6431,0.5426,0.4558,0.3657,0.1847,0.0673,0.0,0.0,0.0,0.0,0.0,0.0,0.0,0.0,0.0,0.0,0.0,0.0,0.0,0.0,0.0,0.0,0.0,0.0,0.0,0.0,0.0,0.0,0.0,0.0,0.0,0.0,0.0,0.0,0.0,0.0,0.0,0.0,0.0,0.0,0.0,0.0,0.0,0.0,0.0,0.0,0.0,0.0,0.0,0.0,0.0,0.0,0.0,0.0,0.0,0.0,0.0,0.0,0.0,0.0,0.0,0.0,0.0,0.0,0.0,0.0,0.0,0.0,0.0,0.0,0.0,0.0,0.0,0.0,0.0,0.0,0.0,0.0,0.0,0.0,0.0,0.0,0.0,0.0,0.0,0.0,0.0,0.0,0.0,0.0,0.0,0.0,0.0,0.0,0.9792,0.9792,0.9792,0.9792,0.9792,0.9792,0.9792,0.9792,0.9792,0.9802,0.9819,0.9819,0.9832,0.9852,0.9852,0.9923,1.0049,1.0069,1.0224,1.0493,1.0514,0.967,0.8332,0.0,0.7065,0.5464,0.3429,0.155,0.0,0.0,0.0,0.0,0.0,0.0,0.0,0.0,0.0,0.0,0.0,0.0,0.0,0.0,0.0,0.0,0.0,0.0,0.0,0.0,0.0,0.0,0.0,0.0,0.0,0.0,0.0,0.0,0.0,0.0,0.0,0.0,0.0,0.0,0.0,0.0,0.0,0.0,0.0,0.0,0.0,0.0,0.0,0.0,0.0,0.0,0.0,0.0,0.0,0.0,0.0,0.0,0.0,0.0,0.0,0.0,0.0,0.0,0.0,0.0,0.0,0.0,0.0,0.0,0.0,0.0,0.0,0.0,0.0,0.0,0.0,0.0,0.0,0.0,0.0,0.0,0.0,0.0,0.9792,0.9792,0.0,0.0,0.0,0.0,0.0,0.0,0.0,0.0,0.0,0.9792,0.9792,0.9792,0.9792,0.9792,0.9792,0.9792,0.9792,0.9856,0.9978,0.9978,1.0045,1.0202,1.0202,1.0215,1.0249,1.0365,1.0443,1.0504,1.0629,1.0495,1.0081,0.8568,0.0,0.0,0.3873,0.1538,0.0,0.0,0.0,0.0,0.0,0.0,0.0,0.0,0.0,0.0,0.0,0.0,0.0,0.0,0.0,0.0,0.0,0.0,0.0,0.0,0.0,0.0,0.0,0.0,0.0,0.0,0.0,0.0,0.0,0.0,0.0,0.0,0.0,0.0,0.0,0.0,0.0,0.0,0.0,0.0,0.0,0.0,0.0,0.0,0.0,0.0,0.0,0.0,0.0,0.0,0.0,0.0,0.0,0.0,0.0,0.0,0.0,0.0,0.0,0.0,0.0,0.0,0.0,0.0,0.0,0.0,0.0,0.0,0.0,0.0,0.0,0.0,0.0,0.0,0.0,0.949,0.9513,0.9585,0.9591,0.9649,0.9771,0.9792,0.0,0.0,0.0,0.0,0.0,0.0,0.0,0.0,0.9792,0.9792,0.9792,0.9792,0.9792,0.9792,0.0,0.9829,0.99,0.99,0.994,1.0042,1.0042,1.0086,1.0164,1.0201,1.0351,1.05,1.0571,1.0649,1.0621,0.0,0.0,0.0,0.504,0.2947,0.1271,0.0312,0.0,0.0,0.0,0.0,0.0,0.0,0.0,0.0,0.0,0.0,0.0,0.0,0.0,0.0,0.0,0.0,0.0,0.0,0.0,0.0,0.0,0.0,0.0,0.0,0.0,0.0,0.0,0.0,0.0,0.0,0.0,0.0,0.0,0.0,0.0,0.0,0.0,0.0,0.0,0.0,0.0,0.0,0.0,0.0,0.0,0.0,0.0,0.0,0.0,0.0,0.0,0.0,0.0,0.0,0.0,0.0,0.0,0.0,0.0,0.0,0.0,0.0,0.0,0.0,0.0,0.0,0.0,0.0,0.0,0.0,0.0,0.0,0.0,0.9362,0.9373,0.9407,0.941,0.9469,0.97,0.9724,0.9744,0.0,0.0,0.0,0.0,0.0,0.0,0.0,0.0,0.0,0.9792,0.0,0.0,0.9792,0.9792,0.0,0.0,0.0,0.0,0.0,0.9792,0.9856,0.9971,0.9974,1.0153,0.0,0.0,1.0565,0.0,0.0,0.0,0.0,0.0,0.422,0.2414,0.0594,0.0,0.0,0.0,0.0,0.0,0.0,0.0,0.0,0.0,0.0,0.0,0.0,0.0,0.0,0.0,0.0,0.0,0.0,0.0,0.0,0.0,0.0,0.0,0.0,0.0,0.0,0.0,0.0,0.0,0.0,0.0,0.0,0.0,0.0,0.0,0.0,0.0,0.0,0.0,0.0,0.0,0.0,0.0,0.0,0.0,0.0,0.0,0.0,0.0,0.0,0.0,0.0,0.0,0.0,0.0,0.0,0.0,0.0,0.0,0.0,0.0,0.0,0.0,0.0,0.0,0.0,0.0,0.0,0.0,0.0,0.0,0.0,0.0,0.9231,0.925,0.9393,0.941,0.942,0.9447,0.9547,0.9629,0.0,0.0,0.0,0.0,0.0,0.0,0.0,0.0,0.0,0.0,0.0,0.0,0.9792,0.9792,0.0,0.0,0.0,0.0,0.0,0.0,0.9798,0.9819,0.9957,0.0,0.0,0.0,0.0,0.0,0.0,0.0,0.0,0.0,0.4246,0.241,0.0596,0.0,0.0,0.0,0.0,0.0,0.0,0.0,0.0,0.0,0.0,0.0,0.0,0.0,0.0,0.0,0.0,0.0,0.0,0.0,0.0,0.0,0.0,0.0,0.0,0.0,0.0,0.0,0.0,0.0,0.0,0.0,0.0,0.0,0.0,0.0,0.0,0.0,0.0,0.0,0.0,0.0,0.0,0.0,0.0,0.0,0.0,0.0,0.0,0.0,0.0,0.0,0.0,0.0,0.0,0.0,0.0,0.0,0.0,0.0,0.0,0.0,0.0,0.0,0.0,0.0,0.0,0.0,0.0,0.0,0.0,0.0,0.0,0.9015,0.9025,0.9045,0.9078,0.9088,0.9088,0.9088,0.9245,0.94,0.0,0.0,0.0,0.0,0.0,0.0,0.0,0.0,0.0,0.0,0.0,0.9792,0.9792,0.9792,0.0,0.0,0.0,0.0,0.0,0.0,0.9792,0.9795,0.9856,0.0,0.0,0.0,0.0,0.0,0.0,0.0,0.0,0.0,0.0,0.3867,0.0969,0.0,0.0,0.0,0.0,0.0,0.0,0.0,0.0,0.0,0.0,0.0,0.0,0.0,0.0,0.0,0.0,0.0,0.0,0.0,0.0,0.0,0.0,0.0,0.0,0.0,0.0,0.0,0.0,0.0,0.0,0.0,0.0,0.0,0.0,0.0,0.0,0.0,0.0,0.0,0.0,0.0,0.0,0.0,0.0,0.0,0.0,0.0,0.0,0.0,0.0,0.0,0.0,0.0,0.0,0.0,0.0,0.0,0.0,0.0,0.0,0.0,0.0,0.0,0.0,0.0,0.0,0.0,0.0,0.0,0.0,0.0,0.8912,0.8912,0.8912,0.8912,0.8912,0.8912,0.8912,0.8912,0.9028,0.9162,0.9242,0.0,0.0,0.0,0.0,0.0,0.0,0.0,0.0,0.0,0.0,0.9792,0.9792,0.9792,0.9792,0.0,0.0,0.9792,0.9792,0.0,0.0,0.0,0.0,0.0,0.0,0.0,0.0,0.0,0.0,0.0,0.0,0.0,0.0,0.0,0.0,0.0,0.0,0.0,0.0,0.0,0.0,0.0,0.0,0.0,0.0,0.0,0.0,0.0,0.0,0.0,0.0,0.0,0.0,0.0,0.0,0.0,0.0,0.0,0.0,0.0,0.0,0.0,0.0,0.0,0.0,0.0,0.0,0.0,0.0,0.0,0.0,0.0,0.0,0.0,0.0,0.0,0.0,0.0,0.0,0.0,0.0,0.0,0.0,0.0,0.0,0.0,0.0,0.0,0.0,0.0,0.0,0.0,0.0,0.0,0.0,0.0,0.0,0.0,0.0,0.0,0.0,0.0,0.0,0.0,0.0,0.0,0.0,0.8912,0.8912,0.8912,0.8912,0.8912,0.8912,0.8912,0.8912,0.8916,0.8916,0.0,0.0,0.0,0.0,0.0,0.0,0.0,0.0,0.0,0.0,0.9792,0.9792,0.9792,0.9792,0.9792,0.9792,0.9792,0.9792,0.0,0.0,0.0,0.0,0.0,0.0,0.0,0.0,0.0,0.0,0.0,0.0,0.0,0.0,0.0,0.0,0.0,0.0,0.0,0.0,0.0,0.0,0.0,0.0,0.0,0.0,0.0,0.0,0.0,0.0,0.0,0.0,0.0,0.0,0.0,0.0,0.0,0.0,0.0,0.0,0.0,0.0,0.0,0.0,0.0,0.0,0.0,0.0,0.0,0.0,0.0,0.0,0.0,0.0,0.0,0.0,0.0,0.0,0.0,0.0,0.0,0.0,0.0,0.0,0.0,0.0,0.0,0.0,0.0,0.0,0.0,0.0,0.0,0.0,0.0,0.0,0.0,0.0,0.0,0.0,0.0,0.0,0.0,0.0,0.0,0.0,0.0,0.0,0.0,0.8912,0.8912,0.8912,0.8912,0.8912,0.8912,0.8912,0.8912,0.8912,0.0,0.0,0.0,0.0,0.0,0.0,0.0,0.0,0.0,0.0,0.9676,0.9676,0.9744,0.9792,0.9792,0.9792,0.9792,0.9792,0.9792,0.0,0.0,0.0,0.0,0.0,0.0,0.0,0.0,0.0,0.0,0.0,0.0,0.0,0.0,0.0,0.0,0.0,0.0,0.0,0.0,0.0,0.0,0.0,0.0,0.0,0.0,0.0,0.0,0.0,0.0,0.0,0.0,0.0,0.0,0.0,0.0,0.0,0.0,0.0,0.0,0.0,0.0,0.0,0.0,0.0,0.0,0.0,0.0,0.0,0.0,0.0,0.0,0.0,0.0,0.0,0.0,0.0,0.0,0.0,0.0,0.0,0.0,0.0,0.0,0.0,0.0,0.0,0.0,0.0,0.0,0.0,0.0,0.0,0.0,0.0,0.0,0.0,0.0,0.0,0.0,0.0,0.0,0.0,0.0,0.0,0.0,0.0,0.0,0.8912,0.8912,0.8912,0.8912,0.8912,0.8912,0.8912,0.8912,0.8912,0.0,0.0,0.0,0.0,0.0,0.0,0.0,0.0,0.0,0.9503,0.9608,0.9608,0.9721,0.9792,0.9792,0.9792,0.9792,0.9792,0.9792,0.9792,0.0,0.0,0.0,0.0,0.0,0.0,0.9957,0.0,0.0,0.0,0.0,0.0,0.0,0.0,0.0,0.0,0.0,0.0,0.0,0.0,0.0,0.0,0.0,0.0,0.0,0.0,0.0,0.0,0.0,0.0,0.0,0.0,0.0,0.0,0.0,0.0,0.0,0.0,0.0,0.0,0.0,0.0,0.0,0.0,0.0,0.0,0.0,0.0,0.0,0.0,0.0,0.0,0.0,0.0,0.0,0.0,0.0,0.0,0.0,0.0,0.0,0.0,0.0,0.0,0.0,0.0,0.0,0.0,0.0,0.0,0.0,0.0,0.0,0.0,0.0,0.0,0.0,0.0,0.0,0.0,0.0,0.0,0.0,0.0,0.0,0.0,0.0,0.0,0.8912,0.8912,0.8912,0.8912,0.8912,0.8912,0.8912,0.8912,0.0,0.0,0.0,0.0,0.0,0.0,0.0,0.0,0.9165,0.9439,0.9595,0.9595,0.9717,0.9792,0.9792,0.9792,0.9792,0.9792,0.9792,0.9792,0.0,0.0,0.0,0.0,0.0,0.0,0.0,0.0,0.0,0.0,0.0,0.0,0.0,0.0,0.0,0.0,0.0,0.0,0.0,0.0,0.0,0.0,0.0,0.0,0.0,0.0,0.0,0.0,0.0,0.0,0.0,0.0,0.0,0.0,0.0,0.0,0.0,0.0,0.0,0.0,0.0,0.0,0.0,0.0,0.0,0.0,0.0,0.0,0.0,0.0,0.0,0.0,0.0,0.0,0.0,0.0,0.0,0.0,0.0,0.0,0.0,0.0,0.0,0.0,0.0,0.0,0.0,0.0,0.0,0.0,0.0,0.0,0.0,0.0,0.0,0.0,0.0,0.0,0.0,0.0,0.0,0.0,0.0,0.0,0.0,0.0,0.0,0.0,0.0,0.0,0.8912,0.8912,0.8912,0.8912,0.8912,0.0,0.0,0.0,0.0,0.0,0.0,0.0,0.0,0.0,0.896,0.9283,0.9435,0.9435,0.9693,0.9792,0.9792,0.9792,0.9792,0.9792,0.9792,0.9792,0.0,0.0,0.0,0.0,0.0,0.0,0.0,0.0,0.0,0.0,0.6239,0.5048,0.0,0.0,0.0,0.0,0.0,0.0,0.0,0.0,0.0,0.0,0.0,0.0,0.0,0.0,0.0,0.0,0.0,0.0,0.0,0.0,0.0,0.0,0.0,0.0,0.0,0.0,0.0,0.0,0.0,0.0,0.0,0.0,0.0,0.0,0.0,0.0,0.0,0.0,0.0,0.0,0.0,0.0,0.0,0.0,0.0,0.0,0.0,0.0,0.0,0.0,0.0,0.0,0.0,0.0,0.0,0.0,0.0,0.0,0.0,0.0,0.0,0.0,0.0,0.0,0.0,0.0,0.0,0.0,0.0,0.0,0.0,0.0,0.0,0.0,0.0,0.0,0.0,0.0,0.0,0.0,0.0,0.0,0.0,0.0,0.0,0.0,0.0,0.0,0.0,0.0,0.0,0.894,0.9035,0.9262,0.9415,0.9486,0.971,0.9792,0.9792,0.9792,0.9792,0.9792,0.9792,0.9792,0.0,0.0,0.0,0.0,0.9792,0.0,0.0,0.0,0.0,0.0,0.6149,0.4976,0.0,0.1098,0.0,0.0,0.0,0.0,0.0,0.0,0.0,0.0,0.0,0.0,0.0,0.0,0.0,0.0,0.0,0.0,0.0,0.0,0.0,0.0,0.0,0.0,0.0,0.0,0.0,0.0,0.0,0.0,0.0,0.0,0.0,0.0,0.0,0.0,0.0,0.0,0.0,0.0,0.0,0.0,0.0,0.0,0.0,0.0,0.0,0.0,0.0,0.0,0.0,0.0,0.0,0.0,0.0,0.0,0.0,0.0,0.0,0.0,0.0,0.0,0.0,0.0,0.0,0.0,0.0,0.0,0.0,0.0,0.0,0.0,0.0,0.0,0.0,0.0,0.0,0.0,0.0,0.0,0.0,0.0,0.0,0.0,0.0,0.0,0.0,0.0,0.0,0.0,0.0,0.9039,0.9213,0.9366,0.9479,0.9608,0.9721,0.9792,0.9792,0.9792,0.9792,0.9792,0.9792,0.9792,0.0,0.0,0.0,0.0,0.9792,0.0,0.0,0.0,0.0,0.0,0.0,0.0,0.0,0.1098,0.0,0.0,0.0,0.0,0.0,0.0,0.0,0.0,0.0,0.0,0.0,0.0,0.0,0.0,0.0,0.0,0.0,0.0,0.0,0.0,0.0,0.0,0.0,0.0,0.0,0.0,0.0,0.0,0.0,0.0,0.0,0.0,0.0,0.0,0.0,0.0,0.0,0.0,0.0,0.0,0.0,0.0,0.0,0.0,0.0,0.0,0.0,0.0,0.0,0.0,0.0,0.0,0.0,0.0,0.0,0.0,0.0,0.0,0.0,0.0,0.0,0.0,0.0,0.0,0.0,0.0,0.0,0.0,0.0,0.0,0.0,0.0,0.0,0.0,0.0,0.0,0.0,0.0,0.0,0.0,0.0,0.0,0.0,0.0,0.0,0.0,0.0,0.9306,0.9216,0.922,0.9373,0.9496,0.9588,0.9608,0.9721,0.9792,0.9792,0.9792,0.9792,0.9792,0.9792,0.9792,0.9792,0.0,0.0,0.0,0.0,0.0,0.0,0.0,0.0,0.0,0.0,0.0,0.0,0.1098,0.0,0.0,0.0,0.0,0.0,0.0,0.0,0.0,0.0,0.0,0.0,0.0,0.0,0.0,0.0,0.0,0.0,0.0,0.0,0.0,0.0,0.0,0.0,0.0,0.0,0.0,0.0,0.0,0.0,0.0,0.0,0.0,0.0,0.0,0.0,0.0,0.0,0.0,0.0,0.0,0.0,0.0,0.0,0.0,0.0,0.0,0.0,0.0,0.0,0.0,0.0,0.0,0.0,0.0,0.0,0.0,0.0,0.0,0.0,0.0,0.0,0.0,0.0,0.0,0.0,0.0,0.0,0.0,0.0,0.0,0.0,0.0,0.0,0.0,0.0,0.0,0.0,0.0,0.0,0.0,0.0,0.0,0.0,0.0,0.0,0.0,0.9373,0.9496,0.9439,0.9432,0.9503,0.9571,0.9646,0.9694,0.9758,0.9792,0.9792,0.9792,0.9792,0.9792,0.9792,0.9792,0.9792,0.9792,0.0,0.0,0.0,0.0,0.0,0.0,0.0,0.0,0.0,0.0,0.0,0.0,0.0,0.0,0.0,0.0,0.0,0.0,0.0,0.0,0.0,0.0,0.0,0.0,0.0,0.0,0.0,0.0,0.0,0.0,0.0,0.0,0.0,0.0,0.0,0.0,0.0,0.0,0.0,0.0,0.0,0.0,0.0,0.0,0.0,0.0,0.0,0.0,0.0,0.0,0.0,0.0,0.0,0.0,0.0,0.0,0.0,0.0,0.0,0.0,0.0,0.0,0.0,0.0,0.0,0.0,0.0,0.0,0.0,0.0,0.0,0.0,0.0,0.0,0.0,0.0,0.0,0.0,0.0,0.0,0.0,0.0,0.0,0.0,0.0,0.0,0.0,0.0,0.0,0.0,0.0,0.0,0.0,0.0,0.0,0.0,0.0,0.0,0.9503,0.9652,0.9659,0.9659,0.9659,0.9659,0.971,0.9792,0.9792,0.9792,0.9792,0.9792,0.9792,0.9792,0.9792,0.9792,0.9792,0.9792,0.9792,0.0,0.0,0.0,0.0,0.0,0.0,0.0,0.0,0.0,0.0,0.0,0.0,0.0,0.0,0.0,0.0,0.0,0.0,0.0,0.0,0.0,0.0,0.0,0.0,0.0,0.0,0.0,0.0,0.0,0.0,0.0,0.0,0.0,0.0,0.0,0.0,0.0,0.0,0.0,0.0,0.0,0.0,0.0,0.0,0.0,0.0,0.0,0.0,0.0,0.0,0.0,0.0,0.0,0.0,0.0,0.0,0.0,0.0,0.0,0.0,0.0,0.0,0.0,0.0,0.0,0.0,0.0,0.0,0.0,0.0,0.0,0.0,0.0,0.0,0.0,0.0,0.0,0.0,0.0,0.0,0.0,0.0,0.0,0.0,0.0,0.0,0.0,0.0,0.0,0.0,0.0,0.0,0.0,0.0,0.0,0.0,0.0,0.9656,0.9768,0.9775,0.9775,0.9775,0.9775,0.9781,0.9792,0.9792,0.9792,0.9792,0.9792,0.9792,0.9792,0.9792,0.9792,0.9792,0.9792,0.9792,0.9792,0.0,0.0,0.0,0.0,0.0,0.0,0.0,0.0,0.0,0.0,0.0,0.0,0.0,0.0,0.0,0.0,0.0,0.0,0.0,0.0,0.0,0.0,0.0,0.0,0.0,0.0,0.0,0.0,0.0,0.0,0.0,0.0,0.0,0.0,0.0,0.0,0.0,0.0,0.0,0.0,0.0,0.0,0.0,0.0,0.0,0.0,0.0,0.0,0.0,0.0,0.0,0.0,0.0,0.0,0.0,0.0,0.0,0.0,0.0,0.0,0.0,0.0,0.0,0.0,0.0,0.0,0.0,0.0,0.0,0.0,0.0,0.0,0.0,0.0,0.0,0.0,0.0,0.0,0.0,0.0,0.0,0.0,0.0,0.0,0.0,0.0,0.0,0.0,0.0,0.0,0.0,0.0,0.0,0.0,0.0,0.9693,0.9734,0.9788,0.9792,0.9792,0.9792,0.9792,0.9792,0.9792,0.9792,0.9792,0.9792,0.9792,0.9792,0.9792,0.9792,0.9792,0.9792,0.9792,0.9792,0.9792,0.9792,0.0,0.0,0.0,0.0,0.0,0.0,0.0,0.0,0.0,0.1512,0.2953,0.0706,0.1545,0.2923,0.0677,0.0813,0.1431,0.0316,0.0,0.0,0.0,0.0,0.0,0.0,0.0,0.0,0.0,0.0,0.0,0.0,0.0,0.0,0.0,0.0,0.0,0.0,0.0,0.0,0.0,0.0,0.0,0.0,0.0,0.0,0.0,0.0,0.0,0.0,0.0,0.0,0.0,0.0,0.0,0.0,0.0,0.0,0.0,0.0,0.0,0.0,0.0,0.0,0.0,0.0,0.0,0.0,0.0,0.0,0.0,0.0,0.0,0.0,0.0,0.0,0.0,0.0,0.0,0.0,0.0,0.0,0.0,0.0,0.0,0.0,0.0,0.0,0.0,0.0,0.0,0.0,0.0,0.0,0.0,0.9673,0.9737,0.9792,0.9792,0.9792,0.9792,0.9792,0.9792,0.9792,0.9792,0.9792,0.9792,0.9792,0.9792,0.9792,0.9792,0.9792,0.9792,0.9792,0.9792,0.9792,0.9792,0.9792,0.9792,0.0,0.0,0.0,0.0,0.0,0.0,0.0,0.0,0.3355,0.4961,0.2484,0.3388,0.4929,0.2417,0.2183,0.2432,0.1182,0.0421,0.0,0.0,0.0,0.0,0.0,0.0,0.0,0.0,0.0,0.0,0.0,0.0,0.0,0.0,0.0,0.0,0.0,0.0,0.0,0.0,0.0,0.0,0.0,0.0,0.0,0.0,0.0,0.0,0.0,0.0,0.0,0.0,0.0,0.0,0.0,0.0,0.0,0.0,0.0,0.0,0.0,0.0,0.0,0.0,0.0,0.0,0.0,0.0,0.0,0.0,0.0,0.0,0.0,0.0,0.0,0.0,0.0,0.0,0.0,0.0,0.0,0.0,0.0,0.0,0.0,0.0,0.0,0.0,0.0,0.0,0.0,0.0,0.0,0.0,0.9781,0.9792,0.9792,0.9792,0.9792,0.9792,0.9792,0.9792,0.9792,0.9792,0.9792,0.9792,0.9792,0.9792,0.9792,0.9792,0.9792,0.9792,0.9792,0.9792,0.9792,0.9792,0.9792,0.9792,0.0,0.0,0.0,0.0,0.0,0.0,0.0,0.0,0.5431,0.5431,0.5397,0.5431,0.5431,0.5397,0.4159,0.2736,0.2743,0.1401,0.0035,0.0036,0.0,0.0,0.0,0.0,0.0,0.0,0.0,0.0,0.0,0.0,0.0,0.0,0.0,0.0,0.0,0.0,0.0,0.0,0.0,0.0,0.0,0.0,0.0,0.0,0.0,0.0,0.0,0.0,0.0,0.0,0.0,0.0,0.0,0.0,0.0,0.0,0.0,0.0,0.0,0.0,0.0,0.0,0.0,0.0,0.0,0.0,0.0,0.0,0.0,0.0,0.0,0.0,0.0,0.0,0.0,0.0,0.0,0.0,0.0,0.0,0.0,0.0,0.0,0.0,0.0,0.0,0.0,0.0,0.0,0.0,0.0,0.0,0.9788,0.9792,0.9792,0.9792,0.9792,0.9792,0.9792,0.9792,0.9792,0.9792,0.9792,0.9792,0.9792,0.9792,0.9792,0.9792,0.9792,0.9792,0.9792,0.9792,0.9792,0.9792,0.9792,0.9856,0.9954,0.0,0.0,0.0,0.0,0.0,0.0,0.0,0.0,0.0,0.6199,0.71,0.864,0.6132,0.5972,0.6345,0.5073,0.3411,0.203,0.2029,0.102,0.0,0.0,0.0,0.0,0.0,0.0,0.0,0.0,0.0,0.0,0.0,0.0,0.0,0.0,0.0,0.0,0.0,0.0,0.0,0.0,0.0,0.0,0.0,0.0,0.0,0.0,0.0,0.0,0.0,0.0,0.0,0.0,0.0,0.0,0.0,0.0,0.0,0.0,0.0,0.0,0.0,0.0,0.0,0.0,0.0,0.0,0.0,0.0,0.0,0.0,0.0,0.0,0.0,0.0,0.0,0.0,0.0,0.0,0.0,0.0,0.0,0.0,0.0,0.6738,0.8111,0.0,0.0,0.0,0.0,0.0,0.0,0.0,0.9792,0.9792,0.9792,0.9792,0.9792,0.9792,0.9792,0.9792,0.9792,0.9792,0.9792,0.9792,0.9792,0.9792,0.9792,0.9792,0.9792,0.9795,0.9856,0.9883,0.9886,0.9978,1.0059,1.0116,0.0,0.0,0.0,0.0,0.0,0.0,0.0,0.0,0.0,0.8171,0.8975,1.0147,0.7267,0.6766,0.6757,0.494,0.3141,0.1754,0.1741,0.0875,0.0,0.0,0.0,0.0,0.0,0.0,0.0,0.0,0.0,0.0,0.0,0.0,0.0,0.0,0.0,0.0,0.0,0.0,0.0,0.0,0.0,0.0,0.0,0.0,0.0,0.0,0.0,0.0,0.0,0.0,0.0,0.0,0.0,0.0,0.0,0.0,0.0,0.0,0.0,0.0,0.0,0.0,0.0,0.0,0.0,0.0,0.0,0.0,0.0,0.0,0.0,0.0,0.0,0.0,0.0,0.0,0.0,0.0,0.0,0.0,0.0,0.0,0.0,0.8155,0.924,0.0,0.0,0.0,0.0,0.0,0.0,0.0,0.0,0.9792,0.9792,0.9792,0.9792,0.9792,0.9792,0.9792,0.9792,0.9792,0.9792,0.9792,0.9792,0.9792,0.9792,0.9805,0.9812,0.9822,0.9974,1.0038,1.0052,1.0222,1.0318,1.0346,1.0443,0.0,0.0,0.0,0.0,0.0,0.0,0.0,0.0,1.0688,1.0688,1.0382,0.8734,0.7006,0.5294,0.3658,0.1769,0.0252,0.0255,0.0146,0.0,0.0,0.0,0.0,0.0,0.0,0.0,0.0,0.0,0.0,0.0,0.0,0.0,0.0,0.0,0.0,0.0,0.0,0.0,0.0,0.0,0.0,0.0,0.0,0.0,0.0,0.0,0.0,0.0,0.0,0.0,0.0,0.0,0.0,0.0,0.0,0.0,0.0,0.0,0.0,0.0,0.0,0.0,0.0,0.0,0.0,0.0,0.0,0.0,0.0,0.0,0.0,0.0,0.0,0.0,0.0,0.0,0.0,0.0,0.0,0.0,0.0,0.0,0.0,0.0,0.0,0.0,0.0,0.0,0.0,0.0,0.0,0.0,0.9792,0.9792,0.9792,0.9792,0.9792,0.9792,0.9792,0.9792,0.9792,0.9792,0.9792,0.9792,0.9792,0.9795,0.9917,0.9967,0.9981,1.0164,1.0232,1.0236,1.0266,1.0348,1.0449,1.048,0.0,0.0,0.0,0.0,0.0,0.0,0.0,0.0,1.0688,1.0688,1.0621,1.0213,0.8962,0.7578,0.7217,0.4725,0.2283,0.229,0.1129,0.0,0.0,0.0,0.0,0.0,0.0,0.0,0.0,0.0,0.0,0.0,0.0,0.0,0.0,0.0,0.0,0.0,0.0,0.0,0.0,0.0,0.0,0.0,0.0,0.0,0.0,0.0,0.0,0.0,0.0,0.0,0.0,0.0,0.0,0.0,0.0,0.0,0.0,0.0,0.0,0.0,0.0,0.0,0.0,0.0,0.0,0.0,0.0,0.0,0.0,0.0,0.0,0.0,0.0,0.0,0.0,0.0,0.0,0.0,0.0,0.0,0.0,0.0,0.0,0.0,0.0,0.0,0.0,0.0,0.0,0.0,0.0,0.0,0.9792,0.9792,0.9792,0.9792,0.9792,0.9792,0.9792,0.9792,0.9863,0.9863,0.9792,0.9866,0.99,0.9907,1.0059,1.0126,1.014,1.0317,1.0414,1.0388,1.0463,1.0534,1.0602,1.0602,1.0649,0.0,1.0688,0.0,0.0,0.0,0.0,0.0,0.0,0.0,1.0518,0.9676,0.88,0.7782,0.6096,0.4254,0.2599,0.1744,0.0765,0.0,0.0,0.0,0.0,0.0,0.0,0.0,0.0,0.0,0.0,0.0,0.0,0.0,0.0,0.0,0.0,0.0,0.0,0.0,0.0,0.0,0.0,0.0,0.0,0.0,0.0,0.0,0.0,0.0,0.0,0.0,0.0,0.0,0.0,0.0,0.0,0.0,0.0,0.0,0.0,0.0,0.0,0.0,0.0,0.0,0.0,0.0,0.0,0.0,0.0,0.0,0.0,0.0,0.0,0.0,0.0,0.0,0.0,0.0,0.0,0.0,0.0,0.0,0.0,0.0,0.0,0.0,0.0,0.0,0.0,0.0,0.0,0.0,0.0,0.9792,0.9792,0.9792,0.9792,0.9815,0.9829,0.9829,0.9984,0.9994,0.9903,0.9998,1.0059,1.0065,1.0249,1.0317,1.0327,1.047,1.0531,1.0541,1.067,1.0688,1.0688,1.0688,1.0688,1.0688,1.0688,1.0688,1.0688,1.0688,0.0,0.0,0.0,0.0,1.0416,0.8903,0.8246,0.7369,0.4454,0.3218,0.2298,0.0473,0.0,0.0,0.0,0.0,0.0,0.0,0.0,0.0,0.0,0.0,0.0,0.0,0.0,0.0,0.0,0.0,0.0,0.0,0.0,0.0,0.0,0.0,0.0,0.0,0.0,0.0,0.0,0.0,0.0,0.0,0.0,0.0,0.0,0.0,0.0,0.0,0.0,0.0,0.0,0.0,0.0,0.0,0.0,0.0,0.0,0.0,0.0,0.0,0.0,0.0,0.0,0.0,0.0,0.0,0.0,0.0,0.0,0.0,0.0,0.0,0.0,0.0,0.0,0.0,0.943,0.9588,0.0,0.0,0.0,0.0,0.0,0.0,0.0,0.0,0.0,0.9792,0.9792,0.9792,0.9792,0.992,0.9988,0.9988,1.0175,1.0239,1.0219,1.0239,1.0249,1.0256,1.0399,1.0463,1.0473,1.0626,1.0657,1.0657,1.0677,1.0688,1.0688,1.0688,1.0688,1.0688,1.0688,1.0688,1.0688,1.0688,1.0688,0.0,0.0,0.0,1.0651,1.0416,0.9231,0.7952,0.7647,0.526,0.2396,0.0474,0.0,0.0,0.0,0.0,0.0,0.0,0.0,0.0,0.0,0.0,0.0,0.0,0.0,0.0,0.0,0.0,0.0,0.0,0.0,0.0,0.0,0.0,0.0,0.0,0.0,0.0,0.0,0.0,0.0,0.0,0.0,0.0,0.0,0.0,0.0,0.0,0.0,0.0,0.0,0.0,0.0,0.0,0.0,0.0,0.0,0.0,0.0,0.0,0.0,0.0,0.0,0.0,0.0,0.0,0.0,0.0,0.0,0.0,0.0,0.0,0.0,0.0,0.0,0.0,0.0,0.9639,0.0,0.0,0.0,0.0,0.0,0.0,0.0,0.0,0.0,0.9913,0.9917,0.9961,1.0076,1.0144,1.0178,1.0178,1.0327,1.0399,1.0399,1.0487,1.048,1.0405,1.0555,1.0619,1.0622,1.0657,1.0688,1.0688,1.0688,1.0688,1.0688,1.0688,1.0688,1.0688,1.0688,1.0688,1.0688,1.0688,1.0688,1.0688,1.0688,0.0,0.0,0.0,1.0125,0.9336,0.8533,0.6439,0.4322,0.3454,0.3236,0.2946,0.1856,0.1638,0.1311,0.0219,0.0,0.0,0.0,0.0,0.0,0.0,0.0,0.0,0.0,0.0,0.0,0.0,0.0,0.0,0.0,0.0,0.0,0.0,0.0,0.0,0.0,0.0,0.0,0.0,0.0,0.0,0.0,0.0,0.0,0.0,0.0,0.0,0.0,0.0,0.0,0.0,0.0,0.0,0.0,0.0,0.0,0.0,0.0,0.0,0.0,0.0,0.0,0.0,0.0,0.0,0.0,0.0,0.0,0.0,0.0,0.0,0.0,0.0,0.0,0.0,0.0,0.0,0.0,0.0,0.0,0.0,0.0,0.0,0.0,1.0069,1.0076,1.0161,1.0312,1.0317,1.0366,1.0366,1.048,1.0551,1.0551,1.0633,1.066,1.0555,1.067,1.0688,1.0688,1.0688,1.0688,1.0688,1.0688,1.0688,1.0688,1.0688,1.0688,1.0688,1.0688,1.0688,0.0,0.0,0.0,0.0,1.0688,1.0688,0.0,0.0,0.0,1.0394,0.8735,0.7416,0.6361,0.5913,0.581,0.5411,0.3959,0.3633,0.309,0.0,0.0729,0.0,0.0,0.0,0.0,0.0,0.0,0.0,0.0,0.0,0.0,0.0,0.0,0.0,0.0,0.0,0.0,0.0,0.0,0.0,0.0,0.0,0.0,0.0,0.0,0.0,0.0,0.0,0.0,0.0,0.0,0.0,0.0,0.0,0.0,0.0,0.0,0.0,0.0,0.0,0.0,0.0,0.0,0.0,0.0,0.0,0.0,0.0,0.0,0.0,0.0,0.0,0.0,0.0,0.0,0.0,0.0,0.0,0.0,0.0,0.9792,0.9792,0.9792,0.9792,0.9792,0.0,0.0,0.0,0.0,1.0291,1.0266,0.0,1.0312,1.0412,1.048,1.048,1.0633,1.0674,1.0674,1.0684,1.0684,1.0674,1.0684,1.0688,1.0688,1.0688,1.0688,1.0688,1.0688,1.0688,1.0688,1.0688,1.0688,1.0688,1.0688,0.0,0.0,0.0,0.0,0.0,0.0,0.0,1.0688,0.0,0.0,0.0,0.8756,0.8313,0.796,0.6224,0.581,0.5774,0.5665,0.5663,0.5084,0.3162,0.0,0.0,0.0,0.0,0.0,0.0,0.0,0.0,0.0,0.0,0.0,0.0,0.0,0.0,0.0,0.0,0.0,0.0,0.0,0.0,0.0,0.0,0.0,0.0,0.0,0.0,0.0,0.0,0.0,0.0,0.0,0.0,0.0,0.0,0.0,0.0,0.0,0.0,0.0,0.0,0.0,0.0,0.0,0.0,0.0,0.0,0.0,0.0,0.0,0.0,0.0,0.0,0.0,0.0,0.0,0.0,0.0,0.0,0.0,0.0,0.0,0.9792,0.9792,0.9792,0.9879,0.0,0.0,0.0,0.0,1.0409,1.0415,1.0463,1.0561,1.0612,1.0636,1.0636,1.0694,1.0688,1.0688,1.0688,1.0688,1.0688,1.0688,1.0688,1.0688,1.0688,1.0688,1.0688,1.0688,1.0688,1.0688,1.0688,1.0688,0.0,0.0,0.0,0.0,0.0,0.0,0.0,0.0,0.0,0.0,1.0688,1.0796,1.0775,1.0288,1.0249,1.0243,0.9656,0.9507,0.918,0.7943,0.7654,0.711,0.5156,0.0,0.0,0.0,0.0,0.0,0.0,0.0,0.0,0.0,0.0,0.0,0.0,0.0,0.0,0.0,0.0,0.0,0.0,0.0,0.0,0.0,0.0,0.0,0.0,0.0,0.0,0.0,0.0,0.0,0.0,0.0,0.0,0.0,0.0,0.0,0.0,0.0,0.0,0.0,0.0,0.0,0.0,0.0,0.0,0.0,0.0,0.0,0.0,0.0,0.0,0.0,0.0,0.0,0.0,0.0,0.0,0.0,0.9778,0.0,0.0,0.0,0.0,0.9812,0.9863,1.0008,1.0192,1.0373,1.0383,1.0415,1.0561,1.0568,1.0616,1.0684,1.0688,1.0688,1.0688,1.0688,1.0688,1.0688,1.0688,1.0688,1.0688,1.0688,1.0688,1.0688,1.0688,1.0688,1.0688,1.0688,1.0688,1.0688,1.0688,0.0,0.0,0.0,0.0,0.0,0.0,0.0,0.0,0.0,0.0,0.0,0.0,1.0759,1.088,1.1145,1.1271,1.1362,1.1569,1.1584,1.1253,0.9975,0.9684,0.9139,0.7183,0.0,0.0,0.0,0.0,0.0,0.0,0.0,0.0,0.0,0.0,0.0,0.0,0.0,0.0,0.0,0.0,0.0,0.0,0.0,0.0,0.0,0.0,0.0,0.0,0.0,0.0,0.0,0.0,0.0,0.0,0.0,0.0,0.0,0.0,0.0,0.0,0.0,0.0,0.0,0.0,0.0,0.0,0.0,0.0,0.0,0.0,0.0,0.0,0.0,0.0,0.0,0.0,0.0,0.0,0.0,0.0,0.9792,0.9792,0.0,0.0,0.0,0.0,0.0,0.9987,1.0202,1.0348,1.049,1.05,1.0565,1.0681,0.0,0.0,1.0688,1.0688,1.0688,1.0688,1.0688,1.0688,1.0688,1.0688,1.0688,1.0688,1.0688,1.0688,1.0688,1.0688,1.0688,1.0688,1.0688,1.0688,1.0688,0.0,0.0,0.0,1.0688,1.0688,0.0,1.0688,0.0,0.0,0.0,0.0,0.0,0.0,0.0,1.0785,0.0,0.0,0.0,1.1538,1.1577,1.1613,1.1616,0.0,1.107,0.9175,0.0,0.0,0.0,0.0,0.0,0.0,0.0,0.0,0.0,0.0,0.0,0.0,0.0,0.0,0.0,0.0,0.0,0.0,0.0,0.0,0.0,0.0,0.0,0.0,0.0,0.0,0.0,0.0,0.0,0.0,0.0,0.0,0.0,0.0,0.0,0.0,0.0,0.0,0.0,0.0,0.0,0.0,0.0,0.0,0.0,0.0,0.0,0.0,0.0,0.0,0.0,0.0,0.0,0.0,0.9717,0.9765,0.9792,0.0,0.0,0.0,0.9792,0.989,1.0059,1.0348,1.0409,1.0497,1.0646,1.0623,1.0677,1.0684,1.0688,1.0688,1.0688,1.0688,1.0688,1.0688,1.0688,1.0688,1.0688,1.0688,1.0688,1.0688,1.0688,1.0688,1.0688,1.0688,1.0688,1.0688,1.0688,1.0688,0.0,0.0,0.0,0.0,0.0,1.0688,1.0688,0.0,1.0688,1.0688,0.0,0.0,0.0,0.0,0.0,0.0,1.0921,0.0,0.0,0.0,0.0,0.0,0.0,0.0,1.1436,1.0926,0.0,0.0,0.0,0.0,0.0,0.0,0.0,0.0,0.0,0.0,0.0,0.0,0.0,0.0,0.0,0.0,0.0,0.0,0.0,0.0,0.0,0.0,0.0,0.0,0.0,0.0,0.0,0.0,0.0,0.0,0.0,0.0,0.0,0.0,0.0,0.0,0.0,0.0,0.0,0.0,0.0,0.0,0.0,0.0,0.0,0.0,0.0,0.0,0.0,0.0,0.0,0.0,0.0,0.9697,0.9778,0.9792,0.9792,0.0,0.0,0.0,1.0005,1.0144,1.0304,1.0477,1.0551,1.0626,1.0681,1.0688,1.0688,1.0688,1.0688,1.0688,1.0688,1.0688,1.0688,1.0688,1.0688,1.0688,1.0688,1.0688,1.0688,1.0688,1.0688,1.0688,1.0688,1.0688,1.0688,1.0688,1.0688,0.0,0.0,1.0688,1.0688,0.0,0.0,0.0,1.0688,1.0688,1.0688,0.0,0.0,0.0,0.0,0.0,0.0,0.0,0.0,1.0914,1.0972,0.0,0.0,0.0,1.1504,1.1572,1.1584,0.0,0.0,0.0,0.0,0.0,0.0,0.0,0.0,0.0,0.0,0.0,0.0,0.0,0.0,0.0,0.0,0.0,0.0,0.0,0.0,0.0,0.0,0.0,0.0,0.0,0.0,0.0,0.0,0.0,0.0,0.0,0.0,0.0,0.0,0.0,0.0,0.0,0.0,0.0,0.0,0.0,0.0,0.0,0.0,0.0,0.0,0.0,0.0,0.0,0.0,0.0,0.9632,0.9632,0.9707,0.9792,0.9792,0.9792,0.9795,0.0,0.9947,1.0103,1.0287,1.0415,1.05,1.0517,1.0639,1.0688,1.0688,1.0688,1.0688,1.0688,1.0688,1.0688,1.0688,1.0688,1.0688,1.0688,1.0688,1.0688,1.0688,1.0688,1.0688,1.0688,1.0688,1.0688,1.0688,1.0688,1.0688,1.0688,1.0688,1.0688,0.0,0.0,1.0688,1.0688,1.0688,1.0688,1.0688,1.0688,1.0698,0.0,0.0,0.0,0.0,0.0,1.0698,0.0,0.0,0.0,0.0,0.0,0.0,0.0,1.1409,1.1521,1.1584,0.0,0.0,0.0,0.0,0.0,0.0,0.0,0.0,0.0,0.0,0.0,0.0,0.0,0.0,0.0,0.0,0.0,0.0,0.0,0.0,0.0,0.0,0.0,0.0,0.0,0.0,0.0,0.0,0.0,0.0,0.0,0.0,0.0,0.0,0.0,0.0,0.0,0.0,0.0,0.0,0.0,0.0,0.0,0.0,0.0,0.0,0.0,0.0,0.0,0.0,0.9727,0.9751,0.9751,0.9771,0.9792,0.9792,0.9792,0.9836,0.9957,1.0109,1.029,1.0436,1.0477,1.0541,1.0666,1.0671,1.0688,1.0688,1.0688,1.0688,1.0688,1.0688,1.0688,1.0688,1.0688,1.0688,1.0688,1.0688,1.0688,1.0688,1.0688,1.0688,1.0688,1.0688,1.0688,1.0688,1.0688,1.0688,1.0688,1.0688,0.0,1.0688,1.0688,1.0688,1.0688,1.0688,1.0688,1.0688,1.0688,1.0769,1.0846,0.0,0.0,0.0,0.0,0.0,0.0,0.0,0.0,0.0,0.0,0.0,0.0,1.1518,1.1563,1.1584,0.0,0.0,0.0,0.0,0.0,0.0,0.0,0.0,0.0,0.0,0.0,0.0,0.0,0.0,0.0,0.0,0.0,0.0,0.0,0.0,0.0,0.0,0.0,0.0,0.0,0.0,0.0,0.0,0.0,0.0,0.0,0.0,0.0,0.0,0.0,0.0,0.0,0.0,0.0,0.0,0.0,0.0,0.0,0.0,0.0,0.0,0.0,0.0,0.0,0.9775,0.9792,0.9792,0.9792,0.9792,0.9792,0.9792,0.9856,0.9934,0.9977,1.0214,1.0443,1.0592,1.0605,1.0636,1.0681,1.0688,1.0688,1.0688,1.0688,1.0688,1.0688,1.0688,1.0688,1.0688,1.0688,1.0688,1.0688,1.0688,1.0688,1.0688,1.0688,1.0688,1.0688,1.0688,1.0688,1.0688,1.0688,1.0688,1.0688,1.0688,0.0,1.0688,1.0688,1.0688,1.0698,1.0772,1.0846,1.0941,1.0941,1.0945,0.0,0.0,1.0995,1.1026,0.0,1.0857,1.088,0.0,0.0,0.0,1.0904,0.0,0.0,0.0,1.1511,1.1584,1.1584,1.1584,1.1584,1.1584,0.0,0.0,0.0,0.0,0.0,0.0,0.0,0.0,0.0,0.0,0.0,0.0,0.0,0.0,0.0,0.0,0.0,0.0,0.0,0.0,0.0,0.0,0.0,0.0,0.0,0.0,0.0,0.0,0.0,0.0,0.0,0.0,0.0,0.0,0.0,0.0,0.0,0.0,0.0,0.0,0.0,0.0,0.0,0.0,0.0,0.9792,0.9815,0.9836,0.9836,0.9859,0.991,0.991,0.9984,1.0072,1.0099,1.0336,1.0582,1.0707,1.0688,1.0688,1.0688,1.0688,1.0688,1.0688,1.0688,1.0688,1.0688,1.0688,1.0688,1.0688,1.0688,1.0688,1.0688,1.0688,1.0688,1.0688,1.0688,1.0688,1.0688,1.0688,1.0688,1.0688,1.0688,1.0704,1.0732,0.0,1.0732,1.0735,1.0795,1.0806,1.0822,1.0911,1.1063,1.1193,1.1166,1.1063,1.0965,1.106,1.1056,0.0,0.0,0.0,0.0,0.0,0.0,0.0,0.0,0.0,1.1162,0.0,0.0,0.0,1.1531,1.1531,1.1531,1.1531,0.0,0.0,0.0,0.0,0.0,0.0,0.0,0.0,0.0,0.0,0.0,0.0,0.0219,0.0,0.0,0.0,0.0,0.0,0.0,0.0,0.0,0.0,0.0,0.0,0.0,0.0,0.0,0.0,0.0,0.0,0.0,0.0,0.0,0.0,0.0,0.0,0.0,0.0,0.0,0.0,0.0,0.0,0.0,0.0,0.0,0.9792,0.99,0.9991,0.9991,1.0106,1.0229,1.0229,1.0274,1.03,1.0426,1.0588,1.0667,1.0684,1.0688,1.0688,1.0688,1.0688,0.0,1.0688,0.0,1.0688,1.0688,1.0688,1.0688,1.0688,1.0688,1.0688,1.0688,1.0688,1.0688,1.0688,1.0688,1.0688,1.0688,1.0688,1.0688,1.0688,1.0688,1.0765,0.0,1.0887,1.0887,0.0,1.1063,1.1149,1.1149,1.1166,1.1183,1.1176,0.0,1.1046,1.1128,0.0,1.1033,1.1263,0.0,0.0,0.0,0.0,0.0,0.0,0.0,1.0914,0.0,0.0,0.0,1.1251,1.1251,0.0,1.1251,1.1251,0.0,0.0,0.0,0.0,0.0,0.0,0.0,0.0,0.0,0.0,0.0,0.0,0.0,0.0,0.0,0.0,0.0,0.0,0.0,0.0,0.0,0.0,0.0,0.0,0.0,0.0,0.0,0.0,0.0,0.0,0.0,0.0,0.0,0.0,0.0,0.0,0.0,0.0,0.0,0.0,0.0,0.0,0.0,0.0,0.0,0.992,0.9974,1.0045,1.0136,1.0239,1.0312,1.0312,1.0383,1.0456,1.0605,1.068,1.0688,1.0688,1.0688,1.0688,1.0688,0.0,1.0688,0.0,0.0,1.0688,1.0688,0.0,0.0,1.0688,1.0688,1.0688,1.0688,1.0688,1.0688,1.0688,1.0688,1.0688,1.0688,1.0688,1.0735,1.0819,0.0,1.0904,0.0,0.0,0.0,0.0,1.1206,1.1251,1.1329,1.1329,1.1352,1.1419,0.0,1.126,0.0,0.0,0.0,0.0,0.0,0.0,0.0,0.0,0.0,0.0,0.0,0.0,0.0,1.1043,0.0,1.1196,0.0,0.0,0.0,0.0,0.0,0.0,0.0,1.0533,0.0,0.0,0.0,0.0,0.0,0.0,0.0,0.0,0.0,0.0,0.0,0.0,0.0,0.0,0.0,0.0,0.0,0.0,0.0,0.0,0.0,0.0,0.0,0.0,0.0,0.0,0.0,0.0,0.0,0.0,0.0,0.0,0.0,0.0,0.0,0.0,0.0,0.0,0.0,0.0,0.0,1.013,1.014,1.0174,1.0321,1.0407,1.0402,1.0402,1.0487,1.0595,1.0707,1.0688,1.0688,1.0688,1.0688,0.0,0.0,1.0688,1.0688,0.0,0.0,1.0688,0.0,0.0,0.0,0.0,0.0,1.0688,1.0688,1.0688,1.0688,1.0688,1.0688,1.0688,1.0688,1.0732,1.0813,1.0917,0.0,1.109,1.1271,1.1348,1.1416,1.1443,1.1366,1.1358,1.1453,1.1453,1.1525,1.1577,1.1569,1.1409,0.0,1.1436,0.0,0.0,0.0,0.0,0.0,1.0803,0.0,0.0,0.0,0.0,0.0,0.0,0.0,0.0,0.0,0.0,0.0,0.0,0.0,1.1074,0.0,0.0,1.1074,0.0,0.0,0.0,0.0,0.0,0.0,0.0,0.0,0.0,0.0,0.0,0.0,0.0,0.0,0.0,0.0,0.0,0.0,0.0,0.0,0.0,0.0,0.0,0.0,0.0,0.0,0.0,0.0,0.0,0.0,0.0,0.0,0.0,0.0,0.0,0.0,0.0,0.0,0.0,0.0,1.0453,1.0477,1.048,1.0483,1.0609,1.0707,1.0707,1.0677,1.0714,1.0688,1.0688,0.0,0.0,0.0,0.0,0.0,0.0,1.0688,1.0688,0.0,1.0688,0.0,0.0,1.0688,0.0,0.0,0.0,1.0688,1.0688,1.0688,1.0688,1.0688,1.0688,1.0694,1.084,1.0911,1.0924,1.1097,1.1278,1.1385,1.1389,1.148,1.1577,0.0,1.1606,1.1577,1.1577,0.0,0.0,1.145,1.1392,0.0,0.0,0.0,0.0,0.0,0.0,0.0,0.0,0.0,0.0,1.0725,0.0,0.0,0.0,0.0,1.0734,0.0,0.0,0.0,0.0,1.0734,1.0734,0.0,0.0,0.0,0.0,0.0,0.0,0.0,0.0,0.0,0.0,0.0,0.0,0.0,0.0,0.0,0.0,0.0,0.0,0.0,0.0,0.0,0.0,0.0,0.0,0.0,0.0,0.0,0.0,0.0,0.0,0.0,0.0,0.0,0.0,0.0,0.0,0.0,0.0,0.0,0.0,0.0,0.0,0.0,1.0483,1.0571,1.0643,1.0643,1.0683,1.0688,0.0,1.0688,0.0,0.0,1.0688,0.0,0.0,1.0688,1.0688,0.0,0.0,1.0688,1.0688,1.0782,0.0,0.0,0.0,1.0836,0.0,0.0,0.0,0.0,0.0,1.0836,1.0836,1.0836,1.0887,1.1016,1.1067,1.1145,0.0,0.0,0.0,0.0,0.0,1.1572,1.1584,0.0,0.0,1.1584,1.1584,1.1584,0.0,1.1558,1.1474,1.1399,1.145,1.1362,1.1285,1.1336,1.1312,0.0,0.0,0.0,1.1182,1.0901,0.0,0.0,0.0,0.0,0.0,0.0,0.0,0.0,0.0,0.0,1.0688,0.0,0.0,0.0,0.0,0.0,0.0,0.0,0.0,0.0,0.0,0.0,0.0,0.0,0.0,0.0,0.0,0.0,0.0,0.0,0.0,0.0,0.0,0.0,0.0,0.0,0.0,0.0,0.0,0.0,0.0,0.0,0.0,0.0,0.0,0.0,0.0,0.0,0.0,0.0,0.0,0.0,0.0,0.0,1.0571,1.0653,1.0688,1.0688,1.0688,0.0,0.0,0.0,0.0,0.0,1.0769,0.0,1.0724,0.0,1.0688,0.0,1.0688,1.0711,1.0765,1.0809,0.0,1.0877,1.0887,0.0,0.0,0.0,0.0,0.0,0.0,1.1026,1.1026,1.1026,1.1073,1.12,1.1254,1.1332,1.1396,1.145,1.1531,0.0,0.0,1.1584,0.0,0.0,1.1584,1.1584,0.0,1.1584,1.1584,1.1584,1.1555,1.1491,1.1589,1.1484,1.1345,1.1443,1.1402,1.1314,1.1295,1.1314,0.0,1.1084,1.1094,0.0,1.0856,0.0,0.0,0.0,0.0,0.0,0.0,0.0,0.0,0.0,0.0,0.0,0.0,1.0819,0.0,0.0,0.0,0.0,0.0,0.0,0.0,0.0,0.1088,0.0,0.0,0.0,0.0,0.0,0.0,0.0,0.0,0.0,0.0,0.0,0.0,0.0,0.0,0.0,0.0,0.0,0.0,0.0,0.0,0.0,0.0,0.0,0.0,0.0,0.0,0.0,0.0,0.0,1.0688,1.0724,1.0701,0.0,1.0738,0.0,0.0,0.0,1.0914,0.0,1.0873,1.0846,1.0701,1.0688,1.0688,1.0688,1.0694,1.0762,1.0907,1.0792,0.0,0.0,1.1005,1.0999,1.1206,0.0,0.0,0.0,0.0,1.1206,1.1206,1.1206,1.1213,1.1227,1.1338,1.1402,1.1413,1.1558,1.1584,1.1584,1.1584,1.1584,1.1584,1.1584,1.1584,1.1584,1.1584,1.1584,1.1584,1.1584,1.1584,1.1584,1.1584,1.1584,1.1584,1.1584,1.1584,1.1589,1.1443,1.1402,1.1365,1.1247,0.0,0.0,0.0,0.0,1.0924,0.0,0.0,0.0,0.0,0.0,0.0,0.0,0.0,0.0,0.0,0.0,0.0,0.0,0.0,0.0,0.0,0.0,0.4872,0.3153,0.1152,0.0,0.0,0.0,0.0,0.0,0.0,0.0,0.0,0.0,0.0,0.0,0.0,0.0,0.0,0.0,0.0,0.0,0.0,0.0,0.0,0.0,0.0,0.0,0.0,0.0,0.0,0.0,0.0,0.0,1.0688,1.0779,1.089,0.0,1.0962,1.0904,0.0,0.0,0.0,0.0,1.0816,1.0732,1.0691,1.0688,1.0688,1.0688,1.0789,0.0,0.0,0.0,0.0,1.12,1.1236,1.1294,1.1366,1.1335,0.0,1.1335,0.0,1.1335,1.1335,1.1335,1.1392,1.1504,1.1545,1.1562,1.1562,1.1603,1.1584,1.1584,1.1584,1.1584,0.0,0.0,1.1584,1.1584,1.1584,1.1584,1.1584,1.1584,1.1584,1.1584,1.1584,1.1584,1.1584,1.1584,1.1584,1.1573,1.1572,1.1562,1.1525,1.1369,1.1335,1.1329,0.0,0.0,0.0,0.0,0.0,0.0,0.0,0.0,0.0,0.0,0.0,0.0,0.0,0.0,0.0,0.0,0.0,0.0,0.0,0.0,0.5399,0.4936,0.1877,0.0,0.0,0.0,0.0,0.0,0.0,0.0,0.0,0.0,0.0,0.0,0.0,0.0,0.0,0.0,0.0,0.0,0.0,0.0,0.0,0.0,0.0,0.0,0.0,0.0,0.0,0.0,0.0,0.0,1.09,1.0982,0.0,1.1271,0.0,0.0,1.1186,1.1151,0.0,1.105,1.0968,0.0,1.0792,1.0728,1.0715,1.0782,1.0867,0.0,1.1097,0.0,0.0,1.1358,1.1382,1.1423,1.1491,1.1491,0.0,1.1491,0.0,0.0,1.1491,1.1491,1.1538,1.1584,1.1584,1.1584,1.1584,1.1584,1.1584,1.1584,1.1584,0.0,0.0,1.1584,1.1584,1.1584,1.1584,1.1584,1.1584,1.1584,1.1584,1.1584,1.1584,1.1584,1.1584,1.1584,1.1584,1.1584,1.1584,1.1584,1.1563,1.1511,1.1491,1.145,1.1332,1.1298,1.1298,0.0,0.0,0.0,0.0,0.0,0.0,0.0,0.0,0.0,0.0,0.0,0.0,0.0,0.0,0.0,0.0,0.7769,0.5589,0.5586,0.3697,0.0,0.0,0.0,0.0,0.0036,0.0,0.0,0.0,0.0,0.0,0.0,0.0,0.0,0.0,0.0,0.0,0.0,0.0,0.0,0.0,0.0,0.0,0.0,0.0,0.0,0.0,0.0,0.0,0.0,1.12,1.1227,0.0,0.0,0.0,0.0,0.0,1.1295,0.0,1.1186,0.0,1.1056,1.0897,1.0786,1.0772,1.0904,0.0,1.1083,1.1372,1.1322,1.1376,1.1606,1.1491,1.1484,1.1616,1.1584,0.0,0.0,0.0,0.0,1.1584,1.1584,1.1584,1.1584,1.1584,1.1584,0.0,1.1584,1.1584,1.1584,1.1584,1.1584,1.1584,1.1584,1.1584,1.1584,1.1584,1.1584,1.1584,1.1584,1.1584,1.1584,1.1584,1.1584,1.1584,1.1584,1.1584,1.1584,1.1584,1.1584,1.1584,1.1584,1.1584,1.1586,1.145,1.1239,1.1063,1.1063,1.0744,1.0553,0.0,0.0,0.0,0.0,0.0,0.0,0.0,0.0,0.0,0.0,0.0,0.0,0.0,0.0,0.0,0.5973,0.5882,0.0,0.0,0.0,0.0,0.0073,0.0,0.0,0.0,0.0,0.0,0.0,0.0,0.0,0.0,0.0,0.0,0.0,0.0,0.0,0.0,0.0,0.0,0.0,0.0,0.0,0.0,0.0,0.0,0.0,1.1356,0.0,0.0,0.0,0.0,1.1342,1.1217,1.1087,1.0982,1.0955,1.0877,1.0755,1.0728,1.0816,1.0884,1.0914,1.1137,0.0,0.0,0.0,0.0,1.1616,1.1592,1.1592,1.1584,1.1584,1.1584,0.0,0.0,0.0,1.1584,1.1584,1.1584,1.1584,1.1584,1.1584,1.1584,1.1584,0.0,1.1584,1.1584,1.1584,1.1584,1.1584,1.1584,1.1584,1.1584,1.1584,1.1584,1.1584,1.1584,1.1584,1.1584,1.1584,1.1584,1.1584,1.1584,1.1584,1.1584,1.1584,1.1584,1.1584,1.1584,1.1577,1.1586,1.0305,0.9181,0.9181,0.7868,0.6727,0.665,0.0,0.0,0.0,0.0,0.0,0.0,0.0,0.0,0.0,0.0,0.0,0.0,0.0,0.0,0.0,0.0,0.0,0.0,0.0,0.0,0.0,0.0,0.0,0.0,0.0,0.0,0.0,0.0,0.0,0.0,0.0,0.0,0.0,0.0,0.0,0.0,0.0,0.0,0.0,0.0,0.0,0.0,0.0,0.0,0.0,1.1494,0.0,0.0,0.0,0.0,0.0,0.0,1.0894,0.0,1.0904,1.085,1.0833,1.0941,1.0914,1.0975,1.113,1.1307,1.1423,1.1504,1.1543,1.1584,1.1584,1.1584,0.0,1.1584,1.1584,1.1584,1.1584,0.0,0.0,1.1584,1.1584,1.1584,1.1584,1.1584,1.1584,0.0,0.0,0.0,1.1584,1.1584,1.1584,1.1584,1.1584,1.1584,1.1584,1.1584,1.1584,1.1584,1.1584,1.1584,1.1584,1.1584,1.1584,1.1584,1.1584,1.1584,1.1584,1.1584,1.1584,1.1364,1.0341,1.0851,1.1074,0.9036,0.8634,0.8412,0.7399,0.646,0.575,0.5638,0.5563,0.0,0.0,0.0,0.0,0.0,0.0,0.0,0.0,0.0,0.0,0.0,0.0,0.0,0.0,0.0,0.0,0.0,0.0,0.0,0.0,0.0,0.0,0.0,0.0,0.0,0.0,0.0,0.0,0.0,0.0,0.0,0.0,0.0,0.0,0.0,0.0,0.0,0.0,0.0,0.0,0.0,0.0,0.0,0.0,0.0,1.1569,0.0,0.0,1.1216,0.0,1.0931,1.0786,1.0732,1.085,1.0894,1.0958,1.1104,1.1073,1.11,1.1369,1.1419,1.1491,1.1577,1.1584,1.1584,1.1584,1.1584,1.1584,1.1584,1.1584,1.1584,0.0,0.0,0.0,0.0,0.0,0.0,0.0,0.0,0.0,0.0,0.0,1.1584,1.1584,1.1584,1.1584,1.1584,1.1584,1.1584,1.1584,1.1584,1.1584,1.1584,1.1584,1.1584,1.1584,1.1584,1.1584,1.1584,1.1584,1.1584,1.1584,1.1584,1.1289,1.0632,0.9067,0.954,0.9582,0.6498,0.6677,0.7036,0.5482,0.4868,0.4667,0.4926,0.4671,0.0,0.0,0.0,0.0,0.0,0.0,0.0,0.0,0.0,0.0,0.0,0.0,0.0,0.0,0.0,0.0,0.0,0.0,0.0,0.0,0.0,0.2183,0.062,0.0,0.0,0.0,0.0,0.0,0.0,0.0,0.0,0.0,0.0,0.0,0.0,0.0,0.0,0.0,0.0,0.0,0.0,0.0,0.0,0.0,0.0,0.0,0.0,0.0,0.0,0.0,1.0917,1.0786,1.0691,1.0708,1.083,1.0921,1.0931,1.1196,1.1362,1.1389,1.1518,1.1603,1.1616,1.1584,1.1584,1.1584,1.1584,1.1584,1.1584,1.1584,1.1584,0.0,0.0,0.0,0.0,0.0,0.0,0.0,0.0,0.0,0.0,1.1584,1.1584,1.1584,1.1584,1.1584,1.1584,1.1584,1.1584,1.1584,1.1584,1.1584,1.1584,1.1584,1.1584,1.1584,1.1584,1.1584,1.1584,1.1584,1.1584,1.1584,1.1584,1.0305,0.892,0.8739,0.751,0.6244,0.5881,0.4576,0.3379,0.3198,0.1784,0.1053,0.2683,0.1622,0.1049,0.0,0.0,0.0,0.0,0.0,0.0,0.0,0.0,0.0,0.0,0.0,0.0,0.0,0.0,0.0,0.0,0.0,0.0,0.5591,0.0,0.2799,0.2618,0.0875,0.0,0.0,0.0,0.0,0.0,0.0,0.0,0.0,0.0,0.0,0.0,0.0,0.0,0.0,0.0,0.0,0.0,0.0,0.0,0.0,0.0,0.0,0.0,0.0,0.0,0.0,0.0,1.0725,1.0721,1.0813,1.0877,1.0948,1.1067,1.1267,1.1426,1.1518,1.1586,1.1584,1.1584,1.1584,1.1584,1.1584,1.1584,1.1584,1.1584,1.1584,1.1584,0.0,0.0,0.0,0.0,0.0,0.0,0.0,0.0,1.1584,1.1584,1.1584,1.1584,1.1584,1.1584,1.1584,1.1584,1.1584,1.1584,1.1584,1.1584,1.1584,1.1584,1.1584,1.1584,1.1584,1.1584,1.1584,1.1584,1.1584,1.0779,0.9867,0.9867,0.8451,0.6677,0.5515,0.5517,0.5194,0.2838,0.2619,0.2581,0.1384,0.0547,0.0219,0.0941,0.0506,0.0253,0.0,0.0,0.0,0.0,0.0,0.0,0.0,0.0,0.0,0.0,0.0,0.0,0.0,0.0,0.0,0.0,0.0,0.0,0.7582,0.0,0.4068,0.2908,0.3272,0.2909,0.1747,0.2909,0.3491,0.3491,0.3491,0.2837,0.1675,0.051,0.0,0.0,0.0,0.0,0.0,0.0,0.0,0.0,0.0,0.0,0.0,1.1107,0.0,1.1053,0.0,1.0846,1.0813,1.0701,1.0688,1.0742,1.0894,1.0951,1.1067,1.1247,1.1365,1.1501,1.1573,1.1584,1.1584,1.1584,1.1584,1.1584,1.1584,1.1584,0.0,1.1584,1.1584,1.1584,1.1584,1.1584,0.0,0.0,0.0,0.0,0.0,1.1584,1.1584,1.1584,1.1584,1.1584,1.1584,1.1584,1.1584,1.1584,1.1584,1.1584,1.1584,1.1584,1.1584,1.1584,1.1584,1.1584,1.1584,1.1584,1.1217,1.0743,1.0743,0.936,0.7835,0.7835,0.6422,0.4612,0.3235,0.3489,0.3382,0.062,0.1056,0.1675,0.0292,0.0,0.0,0.0,0.0,0.0,0.0,0.0,0.0,0.0,0.0,0.0,0.0,0.1293,0.2141,0.3423,0.0,0.0,0.0,0.0,0.0,0.0,0.0,0.0,0.0,0.0,0.0,0.0,0.541,0.512,0.3778,0.5156,0.581,0.5774,0.5192,0.4213,0.2799,0.0838,0.0,0.0,0.0,0.0,0.0,0.0,0.0,0.0,0.0,0.0,0.0,1.0945,1.0917,1.087,1.0718,1.0691,1.0688,1.0688,1.0688,1.0742,1.0894,1.107,1.1254,1.1372,1.1525,1.1616,1.1584,1.1584,1.1584,1.1584,1.1584,1.1584,0.0,0.0,1.1584,1.1584,1.1584,1.1584,1.1584,0.0,0.0,1.1584,0.0,1.1584,1.1584,1.1584,1.1584,1.1584,1.1584,1.1584,1.1584,1.1584,1.1584,1.1584,1.1584,1.1584,1.1584,1.1584,1.1584,1.1584,1.1584,1.1584,1.1584,1.1584,1.0266,0.8739,0.8739,0.7363,0.5846,0.5846,0.4431,0.2944,0.2908,0.1456,0.0073,0.0,0.0,0.0036,0.0,0.0,0.0,0.0,0.0,0.0,0.0,0.0,0.0,0.0,0.0,0.0,0.0,0.4347,0.5554,0.5552,0.0,0.0,0.0,0.0,0.0,0.0,0.0,0.0,0.8776,0.8665,0.0,0.8631,0.6749,0.5774,0.5772,0.5774,0.581,0.5736,0.3814,0.2908,0.2799,0.0838,0.0,0.0,0.0,0.0,0.0,0.0,0.0,0.0,0.0,0.0,0.0,1.0769,1.0759,1.0745,1.0694,1.0688,1.0688,1.0688,1.0775,1.0894,1.1077,1.1226,1.1379,1.1531,1.1553,1.1584,0.0,1.1584,1.1584,0.0,1.1584,1.1584,1.1584,1.1584,1.1584,1.1584,1.1584,1.1584,1.1584,0.0,0.0,0.0,1.1584,1.1584,1.1584,1.1584,1.1584,1.1584,1.1584,1.1584,1.1584,1.1584,1.1584,1.1584,1.1584,1.1584,1.1584,1.1584,1.1584,1.1584,1.1584,1.1584,1.1364,1.005,0.9211,0.8448,0.711,0.5336,0.3814,0.3814,0.2401,0.0911,0.0911,0.0474,0.0,0.0,0.0,0.0,0.0,0.0,0.0,0.0,0.0,0.0,0.0,0.0,0.0,0.0,0.0,0.0,0.0,0.0,0.4296,0.0,0.804,0.0,0.0,0.0,0.0,0.0,0.0,0.0,0.0,0.9394,0.0,0.8703,0.9396,0.9072,0.7797,0.9105,0.9762,0.9654,0.6351,0.4866,0.4685,0.142,0.0,0.0,0.0,0.0,0.0,0.0,0.0,0.0,0.0,0.0,0.0,1.0688,1.0688,1.0688,1.0688,1.0688,1.0688,1.0688,1.0816,1.0965,1.1176,1.1332,1.145,1.1603,1.1584,0.0,1.1584,1.1584,1.1584,1.1584,1.1584,1.1584,1.1584,1.1584,1.1584,1.1584,0.0,0.0,1.1584,1.1584,1.1584,1.1584,1.1584,1.1584,1.1584,1.1584,1.1584,1.1584,1.1584,1.1584,1.1584,1.1584,1.1584,1.1584,1.1584,1.1584,1.1584,1.1584,1.1584,1.1584,1.1584,1.1584,1.1145,0.8451,0.7616,0.7219,0.5263,0.3344,0.182,0.182,0.0911,0.0,0.0,0.0,0.0,0.0,0.0,0.0,0.0,0.0,0.0,0.0,0.0,0.0,0.0,0.0,0.0,0.0,0.0,0.0,0.0,0.0,0.0,0.0,0.9003,0.0,0.0,0.0,0.0,0.0,0.0,0.0,1.0485,1.005,0.0,0.9793,1.0998,1.0998,0.9793,1.1034,1.1584,1.1472,0.8345,0.6894,0.6677,0.2764,0.1093,0.102,0.0292,0.0,0.0,0.0,0.0,0.0,0.0,0.0,0.0,1.0688,1.0688,0.0,0.0,1.0688,0.0,1.0688,1.0826,1.0978,1.1179,1.1304,1.146,1.1603,1.1584,1.1584,1.1584,0.0,0.0,0.0,1.1584,1.1584,1.1584,1.1584,1.1584,1.1584,1.1584,1.1584,1.1584,1.1584,1.1584,1.1584,1.1584,1.1584,1.1584,1.1584,1.1584,1.1584,1.1584,1.1584,1.1584,1.1584,1.1584,1.1584,1.1584,1.1584,1.1584,1.1584,1.1584,1.1584,1.1584,1.1584,1.0926,0.704,0.581,0.5373,0.3307,0.142,0.0,0.0,0.0,0.0,0.0,0.0,0.0,0.0,0.0,0.0,0.0,0.0,0.0,0.0,0.0,0.0,0.0,0.0,0.0,0.0,0.0,0.0,0.0,0.0,0.0,0.0,1.1406,1.146,0.0,0.0,0.0,0.0,0.0,1.0631,0.8953,1.0668,1.1584,1.1584,1.1584,1.1584,1.1584,1.1584,1.1584,1.1544,0.9576,0.8703,0.8485,0.4718,0.3017,0.2762,0.0947,0.0109,0.0,0.0,0.0,0.0,0.0,0.0,0.0,0.0,0.0,1.0688,1.0688,1.0688,1.0688,1.0688,1.0941,1.1159,1.1193,1.1399,1.1543,1.1616,1.1584,1.1584,1.1584,1.1584,1.1584,1.1584,1.1584,1.1584,1.1584,1.1584,1.1584,1.1584,1.1584,1.1584,1.1584,1.1584,1.1584,1.1584,1.1584,1.1584,1.1584,1.1584,1.1584,1.1584,1.1584,1.1584,1.1584,1.1584,1.1584,1.1584,1.1584,1.1584,1.1584,1.1584,1.1584,1.1584,1.1584,1.1584,1.0926,0.704,0.581,0.5121,0.1675,0.0365,0.0,0.0,0.0,0.0,0.0,0.0,0.0,0.0,0.0,0.0,0.0,0.0,0.0,0.0,0.0,0.0,0.0,0.0,0.0,0.0,0.1275,0.0,0.0,0.7077,0.8916,1.1311,1.1565,1.1531,0.0,0.0,0.0,0.0,1.1409,1.1244,1.092,1.1364,1.1584,1.1584,1.1584,1.1584,1.1584,1.1584,1.1584,1.1544,0.9576,0.8703,0.8557,0.617,0.4286,0.2871,0.24,0.1347,0.0,0.0,0.0,0.0,0.0,0.0,0.0,1.0688,1.0688,1.0688,1.0688,1.0688,1.0688,1.0688,1.0972,1.1196,1.1196,1.143,1.1584,1.1584,1.1584,1.1584,1.1584,1.1584,1.1584,1.1584,1.1584,1.1584,1.1584,1.1584,1.1584,1.1584,1.1584,1.1584,1.1584,1.1584,1.1584,1.1584,1.1584,1.1584,1.1584,1.1584,1.1584,1.1584,1.1584,1.1584,1.1584,1.1584,1.1584,1.1584,1.1584,1.1584,1.1584,1.1584,1.1584,1.1584,1.1584,1.1584,1.107,0.8054,0.6532,0.5194,0.2219,0.0693,0.0,0.0,0.0,0.0,0.0,0.0,0.0,0.0,0.0,0.0,0.0,0.0,0.0,0.0,0.0,0.0292,0.1166,0.058,0.0616,0.24,0.2786,0.0,0.6779,0.8052,0.9466,1.14,1.1584,1.1586,1.1501,0.0,0.0,1.1494,1.1494,1.1535,1.1616,1.1584,1.1584,1.1584,1.1584,1.1584,1.1584,1.1584,1.1584,1.1548,1.0524,1.0014,0.9903,0.7979,0.6025,0.4141,0.327,0.1747,0.0,0.0,0.0,0.0,0.0,0.0,0.0,1.0688,1.0688,1.0688,1.0688,1.0688,1.0688,1.0688,1.0972,1.1196,1.1196,1.143,1.1584,1.1584,1.1584,1.1584,1.1584,1.1584,1.1584,1.1584,1.1584,1.1584,1.1584,1.1584,1.1584,1.1584,1.1584,1.1584,1.1584,1.1584,1.1584,1.1584,1.1584,1.1584,1.1584,1.1584,1.1584,1.1584,1.1584,1.1584,1.1584,1.1584,1.1584,1.1584,1.1584,1.1584,1.1584,1.1584,1.1584,1.1584,1.1584,1.1584,1.1253,0.9321,0.7582,0.5808,0.356,0.1747,0.0365,0.0073,0.0,0.0,0.0,0.0,0.0,0.0,0.0,0.0,0.0,0.0,0.0,0.0,0.0,0.0547,0.2182,0.1335,0.1582,0.4895,0.0,0.5018,0.8292,0.8956,0.9795,1.1436,1.1584,1.1584,1.1584,1.1584,1.1584,0.0,1.1584,1.1584,1.1584,1.1584,1.1584,1.1584,1.1584,1.1584,1.1584,1.1584,1.1584,1.1584,1.1584,1.1584,1.1512,0.9867,0.8016,0.6098,0.4141,0.2183,0.0401,0.0109,0.0,0.0,0.0,0.0,0.0,1.0688,1.0688,1.0688,1.0688,1.0688,1.0688,1.0688,1.0972,1.1196,1.1196,1.143,1.1584,1.1584,1.1584,1.1584,1.1584,1.1584,1.1584,1.1584,1.1584,1.1584,1.1584,1.1584,1.1584,1.1584,1.1584,1.1584,1.1584,1.1584,1.1584,1.1584,1.1584,1.1584,1.1584,1.1584,1.1584,1.1584,1.1584,1.1584,1.1584,1.1584,1.1584,1.1584,1.1584,1.1584,1.1584,1.1584,1.1584,1.1584,1.1584,1.1584,1.1253,0.9321,0.8485,0.7544,0.3958,0.2691,0.2074,0.0438,0.0,0.0,0.0,0.0,0.0,0.0,0.0,0.0,0.0,0.0,0.0,0.0,0.0,0.0109,0.0401,0.1563,0.2648,0.327,0.0,0.8033,0.8629,1.0158,1.1253,1.1584,1.1584,1.1584,1.1584,1.1584,1.1584,1.1584,1.1584,1.1584,1.1584,1.1584,1.1584,1.1584,1.1584,1.1584,1.1584,1.1584,1.1584,1.1584,1.1584,1.1584,1.1584,1.1289,1.005,0.8088,0.617,0.4215,0.2291,0.0656,0.0,0.0,0.0,0.0,0.0,1.0688,1.0688,1.0688,1.0688,1.0688,1.0688,1.0688,1.0972,1.1196,1.1196,1.143,1.1584,1.1584,1.1584,1.1584,1.1584,1.1584,1.1584,1.1584,1.1584,1.1584,1.1584,1.1584,1.1584,1.1584,1.1584,1.1584,1.1584,1.1584,1.1584,1.1584,1.1584,1.1584,1.1584,1.1584,1.1584,1.1584,1.1584,1.1584,1.1584,1.1584,1.1584,1.1584,1.1584,1.1584,1.1584,1.1584,1.1584,1.1584,1.1584,1.1584,1.1436,1.0524,0.9538,0.834,0.6566,0.3814,0.1129,0.0255,0.0,0.0,0.0,0.0,0.0,0.0,0.0,0.0,0.0,0.0,0.0,0.0,0.0838,0.1566,0.1566,0.318,0.0,0.0,0.7569,0.9102,1.0149,1.1034,1.1584,1.1584,1.1584,1.1584,1.1584,1.1584,1.1584,1.1584,1.1584,1.1584,1.1584,1.1584,1.1584,1.1584,1.1584,1.1584,1.1584,1.1584,1.1584,1.1584,1.1584,1.1584,1.1584,1.1584,1.0488,0.8559,0.6604,0.4649,0.2691,0.0765,0.0,0.0,0.0,0.0,0.0,1.0688,1.0688,1.0688,1.0688,1.0688,1.0688,1.0688,1.0972,1.1196,1.1196,1.143,1.1584,1.1584,1.1584,1.1584,1.1584,1.1584,1.1584,1.1584,1.1584,1.1584,1.1584,1.1584,1.1584,1.1584,1.1584,1.1584,1.1584,1.1584,1.1584,1.1584,1.1584,1.1584,1.1584,1.1584,1.1584,1.1584,1.1584,1.1584,1.1584,1.1584,1.1584,1.1584,1.1584,1.1584,1.1584,1.1584,1.1584,1.1584,1.1584,1.1584,1.1584,1.1584,1.0596,0.9285,0.8848,0.5191,0.1166,0.0255,0.0,0.0,0.0,0.0,0.0,0.0,0.0,0.0,0.0,0.0,0.0146,0.0583,0.1892,0.3053,0.3489,0.0,0.0,0.0,0.9097,0.9936,1.1423,1.1584,1.1584,1.1584,1.1584,1.1584,1.1584,1.1584,1.1584,1.1584,1.1584,1.1584,1.1584,1.1584,1.1584,1.1584,1.1584,1.1584,1.1584,1.1584,1.1584,1.1584,1.1584,1.1584,1.1584,1.1584,1.0488,0.8559,0.6604,0.4649,0.2691,0.0765,0.0,0.0,0.0,0.0,0.0,1.0688,1.0688,1.0688,1.0688,1.0688,1.0688,1.0688,1.0972,1.1196,1.1196,1.143,1.1584,1.1584,1.1584,1.1584,1.1584,1.1584,1.1584,1.1584,1.1584,1.1584,1.1584,1.1584,1.1584,1.1584,1.1584,1.1584,1.1584,1.1584,1.1584,1.1584,1.1584,1.1584,1.1584,1.1584,1.1584,1.1584,1.1584,1.1584,1.1584,1.1584,1.1584,1.1584,1.1584,1.1584,1.1584,1.1584,1.1584,1.1584,1.1584,1.1584,1.1584,1.1584,1.1512,1.1034,0.9211,0.711,0.4577,0.0984,0.0,0.0,0.0,0.0,0.0,0.0,0.0,0.0,0.0,0.0,0.0547,0.2364,0.2799,0.3489,0.5301,0.0,0.0,0.8665,1.026,1.1426,1.158,1.1584,1.1584,1.1584,1.1584,1.1584,1.1584,1.1584,1.1584,1.1584,1.1584,1.1584,1.1584,1.1584,1.1584,1.1584,1.1584,1.1584,1.1584,1.1584,1.1584,1.1584,1.1584,1.1584,1.1584,1.1584,1.0488,0.8559,0.6604,0.4649,0.2691,0.0765,0.0,0.0,0.0,0.0,0.0,1.0688,1.0688,1.0688,1.0688,1.0688,1.0688,1.0688,1.0972,1.1196,1.1196,1.143,1.1584,1.1584,1.1584,1.1584,1.1584,1.1584,1.1584,1.1584,1.1584,1.1584,1.1584,1.1584,1.1584,1.1584,1.1584,1.1584,1.1584,1.1584,1.1584,1.1584,1.1584,1.1584,1.1584,1.1584,1.1584,1.1584,1.1584,1.1584,1.1584,1.1584,1.1584,1.1584,1.1584,1.1584,1.1584,1.1584,1.1584,1.1584,1.1584,1.1584,1.1584,1.1584,1.1584,1.1217,0.9283,0.816,0.7002,0.4323,0.2728,0.2074,0.3309,0.1784,0.0328,0.1529,0.0875,0.0328,0.1566,0.1783,0.2401,0.4323,0.5698,0.6349,0.5881,0.0,1.0086,0.8884,1.0377,1.1584,1.1584,1.1584,1.1584,1.1584,1.1584,1.1584,1.1584,1.1584,1.1584,1.1584,1.1584,1.1584,1.1584,1.1584,1.1584,1.1584,1.1584,1.1584,1.1584,1.1584,1.1584,1.1584,1.1584,1.1584,1.1584,1.1584,1.1181,1.0233,0.7112,0.5373,0.4395,0.1239,0.0,0.0,0.0,0.0,0.0,1.0688,1.0688,1.0688,1.0688,1.0688,1.0688,1.0688,1.0972,1.1196,1.1196,1.143,1.1584,1.1584,1.1584,1.1584,1.1584,1.1584,1.1584,1.1584,1.1584,1.1584,1.1584,1.1584,1.1584,1.1584,1.1584,1.1584,1.1584,1.1584,1.1584,1.1584,1.1584,1.1584,1.1584,1.1584,1.1584,1.1584,1.1584,1.1584,1.1584,1.1584,1.1584,1.1584,1.1584,1.1584,1.1584,1.1584,1.1584,1.1584,1.1584,1.1584,1.1584,1.1584,1.1584,1.1329,1.0011,0.9612,0.9321,0.7984,0.6204,0.4901,0.5627,0.378,0.2184,0.3525,0.2764,0.2184,0.3525,0.3814,0.4395,0.6351,0.7797,0.8448,0.7729,0.987,1.1142,0.9793,1.0743,1.1584,1.1584,1.1584,1.1584,1.1584,1.1584,1.1584,1.1584,1.1584,1.1584,1.1584,1.1584,1.1584,1.1584,1.1584,1.1584,1.1584,1.1584,1.1584,1.1584,1.1584,1.1584,1.1584,1.1584,1.1584,1.1584,1.1584,1.1253,1.0452,0.7149,0.5446,0.4576,0.1275,0.0,0.0,0.0,0.0,0.0,1.0688,1.0688,1.0688,1.0688,1.0688,1.0688,1.0688,1.0972,1.1196,1.1196,1.143,1.1584,1.1584,1.1584,1.1584,1.1584,1.1584,1.1584,1.1584,1.1584,1.1584,1.1584,1.1584,1.1584,1.1584,1.1584,1.1584,1.1584,1.1584,1.1584,1.1584,1.1584,1.1584,1.1584,1.1584,1.1584,1.1584,1.1584,1.1584,1.1584,1.1584,1.1584,1.1584,1.1584,1.1584,1.1584,1.1584,1.1584,1.1584,1.1584,1.1584,1.1584,1.1584,1.1584,1.1584,1.1584,1.1584,1.1584,1.1584,1.0194,0.8268,0.6317,0.581,0.581,0.581,0.581,0.581,0.581,0.581,0.6423,0.8376,0.8739,0.9357,1.1289,1.1584,1.1584,1.1584,1.1584,1.1584,1.1584,1.1584,1.1584,1.1584,1.1584,1.1584,1.1584,1.1584,1.1584,1.1584,1.1584,1.1584,1.1584,1.1584,1.1584,1.1584,1.1584,1.1584,1.1584,1.1584,1.1584,1.1584,1.1584,1.1584,1.1584,1.1584,1.0524,0.8557,0.6604,0.4649,0.2727,0.0765,0.0,0.0,0.0,0.0,0.0,1.0688,1.0688,1.0688,1.0688,1.0688,1.0688,1.0688,1.0972,1.1196,1.1196,1.143,1.1584,1.1584,1.1584,1.1584,1.1584,1.1584,1.1584,1.1584,1.1584,1.1584,1.1584,1.1584,1.1584,1.1584,1.1584,1.1584,1.1584,1.1584,1.1584,1.1584,1.1584,1.1584,1.1584,1.1584,1.1584,1.1584,1.1584,1.1584,1.1584,1.1584,1.1584,1.1584,1.1584,1.1584,1.1584,1.1584,1.1584,1.1584,1.1584,1.1584,1.1584,1.1584,1.1584,1.1584,1.1584,1.1584,1.1584,1.1584,1.1181,1.0596,1.0014,0.7804,0.617,0.7508,0.6785,0.617,0.7544,0.7835,0.8415,1.0377,1.0743,1.0926,1.1512,1.1584,1.1584,1.1584,1.1584,1.1584,1.1584,1.1584,1.1584,1.1584,1.1584,1.1584,1.1584,1.1584,1.1584,1.1584,1.1584,1.1584,1.1584,1.1584,1.1584,1.1584,1.1584,1.1584,1.1584,1.1584,1.1584,1.1584,1.1584,1.1584,1.1584,1.1584,1.1253,1.0488,0.7149,0.5446,0.4612,0.1275,0.0,0.0,0.0,0.0,0.0,1.0688,1.0688,1.0688,1.0688,1.0688,1.0688,1.0688,1.0972,1.1196,1.1196,1.143,1.1584,1.1584,1.1584,1.1584,1.1584,1.1584,1.1584,1.1584,1.1584,1.1584,1.1584,1.1584,1.1584,1.1584,1.1584,1.1584,1.1584,1.1584,1.1584,1.1584,1.1584,1.1584,1.1584,1.1584,1.1584,1.1584,1.1584,1.1584,1.1584,1.1584,1.1584,1.1584,1.1584,1.1584,1.1584,1.1584,1.1584,1.1584,1.1584,1.1584,1.1584,1.1584,1.1584,1.1584,1.1584,1.1584,1.1584,1.1584,1.1584,1.1584,1.1584,0.9834,0.8417,0.9576,0.8925,0.8417,0.9612,0.9831,1.0194,1.1364,1.1584,1.1584,1.1584,1.1584,1.1584,1.1584,1.1584,1.1584,1.1584,1.1584,1.1584,1.1584,1.1584,1.1584,1.1584,1.1584,1.1584,1.1584,1.1584,1.1584,1.1584,1.1584,1.1584,1.1584,1.1584,1.1584,1.1584,1.1584,1.1584,1.1584,1.1584,1.1584,1.1584,1.1584,1.1584,1.1293,0.7404,0.581,0.541,0.153,0.0,0.0,0.0,0.0,0.0,1.0688,1.0688,1.0688,1.0688,1.0688,1.0688,1.0688,1.0972,1.1196,1.1196,1.143,1.1584,1.1584,1.1584,1.1584,1.1584,1.1584,1.1584,1.1584,1.1584,1.1584,1.1584,1.1584,1.1584,1.1584,1.1584,1.1584,1.1584,1.1584,1.1584,1.1584,1.1584,1.1584,1.1584,1.1584,1.1584,1.1584,1.1584,1.1584,1.1584,1.1584,1.1584,1.1584,1.1584,1.1584,1.1584,1.1584,1.1584,1.1584,1.1584,1.1584,1.1584,1.1584,1.1584,1.1584,1.1584,1.1584,1.1584,1.1584,1.1584,1.1584,1.1584,1.1584,1.1584,1.1584,1.1584,1.1584,1.1584,1.1584,1.1584,1.1584,1.1584,1.1584,1.1584,1.1584,1.1584,1.1584,1.1584,1.1584,1.1584,1.1584,1.1584,1.1584,1.1584,1.1584,1.1584,1.1584,1.1584,1.1584,1.1584,1.1584,1.1584,1.1584,1.1584,1.1584,1.1584,1.1584,1.1584,1.1584,1.1584,1.1584,1.1584,1.1584,1.1584,1.1584,1.1512,1.1034,0.7331,0.5701,0.5158,0.1457,0.0,0.0,0.0,0.0,0.0,1.0688,1.0688,1.0688,1.0688,1.0688,1.0688,1.0688,1.0972,1.1196,1.1196,1.143,1.1584,1.1584,1.1584,1.1584,1.1584,1.1584,1.1584,1.1584,1.1584,1.1584,1.1584,1.1584,1.1584,1.1584,1.1584,1.1584,1.1584,1.1584,1.1584,1.1584,1.1584,1.1584,1.1584,1.1584,1.1584,1.1584,1.1584,1.1584,1.1584,1.1584,1.1584,1.1584,1.1584,1.1584,1.1584,1.1584,1.1584,1.1584,1.1584,1.1584,1.1584,1.1584,1.1584,1.1584,1.1584,1.1584,1.1584,1.1584,1.1584,1.1584,1.1584,1.1584,1.1584,1.1584,1.1584,1.1584,1.1584,1.1584,1.1584,1.1584,1.1584,1.1584,1.1584,1.1584,1.1584,1.1584,1.1584,1.1584,1.1584,1.1584,1.1584,1.1584,1.1584,1.1584,1.1584,1.1584,1.1584,1.1584,1.1584,1.1584,1.1584,1.1584,1.1584,1.1584,1.1584,1.1584,1.1584,1.1584,1.1584,1.1584,1.1584,1.1584,1.1584,1.1584,1.0743,0.9139,0.6787,0.4902,0.3307,0.0911,0.0,0.0,0.0,0.0,0.0,1.0688,1.0688,1.0688,1.0688,1.0688,1.0688,1.0688,1.0972,1.1196,1.1196,1.143,1.1584,1.1584,1.1584,1.1584,1.1584,1.1584,1.1584,1.1584,1.1584,1.1584,1.1584,1.1584,1.1584,1.1584,1.1584,1.1584,1.1584,1.1584,1.1584,1.1584,1.1584,1.1584,1.1584,1.1584,1.1584,1.1584,1.1584,1.1584,1.1584,1.1584,1.1584,1.1584,1.1584,1.1584,1.1584,1.1584,1.1584,1.1584,1.1584,1.1584,1.1584,1.1584,1.1584,1.1584,1.1584,1.1584,1.1584,1.1584,1.1584,1.1584,1.1584,1.1584,1.1584,1.1584,1.1584,1.1584,1.1584,1.1584,1.1584,1.1584,1.1584,1.1584,1.1584,1.1584,1.1584,1.1584,1.1584,1.1584,1.1584,1.1584,1.1584,1.1584,1.1584,1.1584,1.1584,1.1584,1.1584,1.1584,1.1584,1.1584,1.1584,1.1584,1.1584,1.1584,1.1584,1.1584,1.1584,1.1584,1.1584,1.1584,1.1584,1.1584,1.1584,1.1584,1.1034,0.9867,0.6968,0.5192,0.3996,0.113,0.0,0.0,0.0,0.0,0.0,1.0688,1.0688,1.0688,1.0688,1.0688,1.0688,1.0688,1.0972,1.1196,1.1196,1.143,1.1584,1.1584,1.1584,1.1584,1.1584,1.1584,1.1584,1.1584,1.1584,1.1584,1.1584,1.1584,1.1584,1.1584,1.1584,1.1584,1.1584,1.1584,1.1584,1.1584,1.1584,1.1584,1.1584,1.1584,1.1584,1.1584,1.1584,1.1584,1.1584,1.1584,1.1584,1.1584,1.1584,1.1584,1.1584,1.1584,1.1584,1.1584,1.1584,1.1584,1.1584,1.1584,1.1584,1.1584,1.1584,1.1584,1.1584,1.1584,1.1584,1.1584,1.1584,1.1584,1.1584,1.1584,1.1584,1.1584,1.1584,1.1584,1.1584,1.1584,1.1584,1.1584,1.1584,1.1584,1.1584,1.1584,1.1584,1.1584,1.1584,1.1584,1.1584,1.1584,1.1584,1.1584,1.1584,1.1584,1.1584,1.1584,1.1584,1.1584,1.1584,1.1584,1.1584,1.1584,1.1584,1.1584,1.1584,1.1584,1.1584,1.1584,1.1584,1.1584,1.1584,1.1584,1.14,1.0815,0.7257,0.5591,0.494,0.1384,0.0,0.0,0.0,0.0,0.0,1.0688,1.0688,1.0688,1.0688,1.0688,1.0688,1.0688,1.0972,1.1196,1.1196,1.143,1.1584,1.1584,1.1584,1.1584,1.1584,1.1584,1.1584,1.1584,1.1584,1.1584,1.1584,1.1584,1.1584,1.1584,1.1584,1.1584,1.1584,1.1584,1.1584,1.1584,1.1584,1.1584,1.1584,1.1584,1.1584,1.1584,1.1584,1.1584,1.1584,1.1584,1.1584,1.1584,1.1584,1.1584,1.1584,1.1584,1.1584,1.1584,1.1584,1.1584,1.1584,1.1584,1.1584,1.1584,1.1584,1.1584,1.1584,1.1584,1.1584,1.1584,1.1584,1.1584,1.1584,1.1584,1.1584,1.1584,1.1584,1.1584,1.1584,1.1584,1.1584,1.1584,1.1584,1.1584,1.1584,1.1584,1.1584,1.1584,1.1584,1.1584,1.1584,1.1584,1.1584,1.1584,1.1584,1.1584,1.1584,1.1584,1.1584,1.1584,1.1584,1.1584,1.1584,1.1584,1.1584,1.1584,1.1584,1.1584,1.1584,1.1584,1.1584,1.1584,1.1584,1.1584,1.0632,0.892,0.6713,0.4794,0.3089,0.0875,0.0,0.0,0.0,0.0,0.0,1.0688,1.0688,1.0688,1.0688,1.0688,1.0688,1.0688,1.0972,1.1196,1.1196,1.143,1.1584,1.1584,1.1584,1.1584,1.1584,1.1584,1.1584,1.1584,1.1584,1.1584,1.1584,1.1584,1.1584,1.1584,1.1584,1.1584,1.1584,1.1584,1.1584,1.1584,1.1584,1.1584,1.1584,1.1584,1.1584,1.1584,1.1584,1.1584,1.1584,1.1584,1.1584,1.1584,1.1584,1.1584,1.1584,1.1584,1.1584,1.1584,1.1584,1.1584,1.1584,1.1584,1.1584,1.1584,1.1584,1.1584,1.1584,1.1584,1.1584,1.1584,1.1584,1.1584,1.1584,1.1584,1.1584,1.1584,1.1584,1.1584,1.1584,1.1584,1.1584,1.1584,1.1584,1.1584,1.1584,1.1584,1.1584,1.1584,1.1584,1.1584,1.1584,1.1584,1.1584,1.1584,1.1584,1.1584,1.1584,1.1584,1.1584,1.1584,1.1584,1.1584,1.1584,1.1584,1.1584,1.1584,1.1584,1.1584,1.1584,1.1584,1.1584,1.1584,1.1584,1.1584,1.0488,0.8559,0.6604,0.4649,0.2691,0.0765,0.0,0.0,0.0,0.0,0.0]},{"header":{"parameterUnit":"m.s-1","parameterCategory":1,"la1":30.6,"la2":28.766,"lo1":-90.7593,"lo2":-88.6598,"dy":0.0162,"dx":0.0183,"nx":116,"ny":114,"refTime":"2023-05-28T12:00:00:Z","depth":0,"parameterNumber":3,"parameterNumberName":"V-component_of_WINDS"},"data":[0.0,0.0,0.0,0.0,0.0,0.0,0.0,0.0,0.0,0.0,0.0,0.0,0.0,0.0,0.0,0.0,0.0,0.0,0.0,0.0,0.0,0.0,0.0,0.0,0.0,0.0,0.0,0.0,0.0,0.0,0.0,0.0,0.0,0.0,0.0,0.0,0.0,0.0,0.0,0.0,0.0,0.0,0.0,0.0,0.0,0.0,0.0,0.0,0.0,0.0,0.0,0.0,0.0,0.0,0.0,0.0,0.0,0.0,0.0,0.0,0.0,0.0,0.0,0.0,0.0,0.0,0.0,0.0,0.0,0.0,0.0,0.0,0.0,0.0,0.0,0.0,0.0,0.0,0.0,0.0,0.0,0.0,0.0,0.0,0.0,0.0,0.0,0.0,0.0,0.0,0.0,0.0,0.0,0.0,0.0,0.0,0.0,0.0,0.0,0.0,0.0,0.0,0.0,0.0,0.0,0.0,0.0,0.0,0.0,0.0,0.0,0.0,0.0,0.0,0.0,0.0,0.0,0.0,0.0,0.0,0.0,0.0,0.0,0.0,0.0,0.0,0.0,0.0,0.0,0.0,0.0,0.0,0.0,0.0,0.0,0.0,0.0,0.0,0.0,0.0,0.0,0.0,0.0,0.0,0.0,0.0,0.0,0.0,0.0,0.0,0.0,0.0,0.0,0.0,0.0,0.0,0.0,0.0,0.0,0.0,0.0,0.0,0.0,0.0,0.0,0.0,0.0,0.0,0.0,0.0,0.0,0.0,0.0,0.0,0.0,0.0,0.0,0.0,0.0,0.0,0.0,0.0,0.0,0.0,0.0,0.0,0.0,0.0,0.0,0.0,0.0,0.0,0.0,0.0,0.0,0.0,0.0,0.0,0.0,0.0,0.0,0.0,0.0,0.0,0.0,0.0,0.0,0.0,0.0,0.0,0.0,0.0,0.0,0.0,0.0,0.0,0.0,0.0,0.0,0.0,0.0,0.0,0.0,0.0,0.0,0.0,0.0,0.0,0.0,0.0,0.0,0.0,0.0,0.0,0.0,0.0,0.0,0.0,0.0,0.0,0.0,0.0,0.0,0.0,0.0,0.0,0.0,0.0,0.0,0.0,0.0,0.0,0.0,0.0,0.0,0.0,0.0,0.0,0.0,0.0,0.0,0.0,0.0,0.0,0.0,0.0,0.0,0.0,0.0,0.0,0.0,0.0,0.0,0.0,0.0,0.0,0.0,0.0,0.0,0.0,0.0,0.0,0.0,0.0,0.0,0.0,0.0,0.0,0.0,0.0,0.0,0.0,0.0,0.0,0.0,0.0,0.0,0.0,0.0,0.0,0.0,0.0,0.0,0.0,0.0,0.0,0.0,0.0,0.0,0.0,0.0,0.0,0.0,0.0,0.0,0.0,0.0,0.0,0.0,0.0,0.0,0.0,0.0,0.0,0.0,0.0,0.0,0.0,0.0,0.0,0.0,0.0,0.0,0.0,0.0,0.0,0.0,0.0,0.0,0.0,0.0,0.0,0.0,0.0,0.0,0.0,0.0,0.0,0.0,0.0,0.0,0.0,0.0,0.0,0.0,0.0,0.0,0.0,0.0,0.0,0.0,0.0,0.0,0.0,0.0,0.0,0.0,0.0,0.0,0.0,0.0,0.0,0.0,0.0,0.0,0.0,0.0,0.0,0.0,0.0,0.0,0.0,0.0,0.0,0.0,0.0,0.0,0.0,0.0,0.0,0.0,0.0,0.0,0.0,0.0,0.0,0.0,0.0,0.0,0.0,0.0,0.0,0.0,0.0,0.0,0.0,0.0,0.0,0.0,0.0,0.0,0.0,0.0,0.0,0.0,0.0,0.0,0.0,0.0,0.0,0.0,0.0,0.0,0.0,0.0,0.0,0.0,0.0,0.0,0.0,0.0,0.0,0.0,0.0,0.0,0.0,0.0,0.0,0.0,0.0,0.0,0.0,0.0,0.0,0.0,0.0,0.0,0.0,0.0,0.0,0.0,0.0,0.0,0.0,0.0,0.0,0.0,0.0,0.0,0.0,0.0,0.0,0.0,0.0,0.0,0.0,0.0,0.0,0.0,0.0,0.0,0.0,0.0,0.0,0.0,0.0,0.0,0.0,0.0,0.0,0.0,0.0,0.0,0.0,0.0,0.0,0.0,0.0,0.0,0.0,0.0,0.0,0.0,0.0,0.0,0.0,0.0,0.0,0.0,0.0,0.0,0.0,0.0,0.0,0.0,0.0,0.0,0.0,0.0,0.0,0.0,0.0,0.0,0.0,0.0,0.0,0.0,0.0,0.0,0.0,0.0,0.0,0.0,0.0,0.0,0.0,0.0,0.0,0.0,0.0,0.0,0.0,0.0,0.0,0.0,0.0,0.0,0.0,0.0,0.0,0.0,0.0,0.0,0.0,0.0,0.0,0.0,0.0,0.0,0.0,0.0,0.0,0.0,0.0,0.0,0.0,0.0,0.0,0.0,0.0,0.0,0.0,0.0,0.0,0.0,0.0,0.0,0.0,0.0,0.0,0.0,0.0,0.0,0.0,0.0,0.0,0.0,0.0,0.0,0.0,0.0,0.0,0.0,0.0,0.0,0.0,0.0,0.0,0.0,0.0,0.0,0.0,0.0,0.0,0.0,0.0,0.0,0.0,0.0,0.0,0.0,0.0,0.0,0.0,0.0,0.0,0.0,0.0,0.0,0.0,0.0,0.0,0.0,0.0,0.0,0.0,0.0,0.0,0.0,0.0,0.0,0.0,0.0,0.0,0.0,0.0,0.0,0.0,0.0,0.0,0.0,0.0,0.0,0.0,0.0,0.0,0.0,0.0,0.0,0.0,0.0,0.0,0.0,0.0,0.0,0.0,0.0,0.0,0.0,0.0,0.0,0.0,0.0,0.0,0.0,0.0,0.0,0.0,0.0,0.0,0.0,0.0,0.0,0.0,0.0,0.0,0.0,0.0,0.0,0.0,0.0,0.0,0.0,0.0,0.0,0.0,0.0,0.0,0.0,0.0,0.0,0.0,0.0,0.0,0.0,0.0,0.0,0.0,0.0,0.0,0.0,0.0,0.0,0.0,0.0,0.0,0.0,0.0,0.0,0.0,0.0,0.0,0.0,0.0,0.0,0.0,0.0,0.0,0.0,0.0,0.0,0.0,0.0,0.0,0.0,0.0,0.0,0.0,0.0,0.0,0.0,0.0,0.0,0.0,0.0,0.0,0.0,0.0,0.0,0.0,0.0,0.0,0.0,0.0,0.0,0.0,0.0,0.0,0.0,0.0,0.0,0.0,0.0,0.0,0.0,0.0,0.0,0.0,0.0,0.0,0.0,0.0,0.0,0.0,0.0,0.0,0.0,0.0,0.0,0.0,0.0,0.0,0.0,0.0,0.0,0.0,0.0,0.0,0.0,0.0,0.0,0.0,0.0,0.0,0.0,0.0,0.0,0.0,0.0,0.0,0.0,0.0,0.0,0.0,0.0,0.0,0.0,0.0,0.0,0.0,0.0,0.0,0.0,0.0,0.0,0.0,0.0,0.0,0.0,0.0,0.0,0.0,0.0,0.0,0.0,0.0,0.0,0.0,0.0,0.0,0.0,0.0,0.0,0.0,0.0,0.0,0.0,0.0,0.0,0.0,0.0,0.0,0.0,0.0,0.0,0.0,0.0,0.0,0.0,0.0,0.0,0.0,0.0,0.0,0.0,0.0,0.0,0.0,0.0,0.0,0.0,0.0,0.0,0.0,0.0,0.0,0.0,0.0,0.0,0.0,0.0,0.0,0.0,0.0,0.0,0.0,0.0,0.0,0.0,0.0,0.0,0.0,0.0,0.0,0.0,0.0,0.0,0.0,0.0,0.0,0.0,0.0,0.0,0.0,0.0,0.0,0.0,0.0,0.0,0.0,0.0,0.0,0.0,0.0,0.0,0.0,0.0,0.0,0.0,0.0,0.0,0.0,0.0,0.0,0.0,0.0,0.0,0.0,0.0,0.0,0.0,0.0,0.0,0.0,0.0,0.0,0.0,0.0,0.0,0.0,0.0,0.0,0.0,0.0,0.0,0.0,0.0,0.0,0.0,0.0,0.0,0.0,0.0,0.0,0.0,0.0,0.0,0.0,0.0,0.0,0.0,0.0,0.0,0.0,0.0,0.0,0.0,0.0,0.0,0.0,0.0,0.0,0.0,0.0,0.0,0.0,0.0,0.0,0.0,0.0,0.0,0.0,0.0,0.0,0.0,0.0,0.0,0.0,0.0,0.0,0.0,0.0,0.0,0.0,0.0,0.0,0.0,0.0,0.0,0.0,0.0,0.0,0.0,0.0,0.0,0.0,0.0,0.0,0.0,0.0,0.0,0.0,0.0,0.0,0.0,0.0,0.0,0.0,0.0,0.0,0.0,0.0,0.0,0.0,0.0,0.0,0.0,0.0,0.0,0.0,0.0,0.0,0.0,0.0,0.0,0.0,0.0,0.0,0.0,0.0,0.0,0.0,0.0,0.0,0.0,0.0,0.0,0.0,0.0,0.0,0.0,0.0,0.0,0.0,0.0,0.0,0.0,0.0,0.0,0.0,0.0,0.0,0.0,0.0,0.0,0.0,0.0,0.0,0.0,0.0,0.0,0.0,0.0,0.0,0.0,0.0,0.0,0.0,0.0,0.0,0.0,0.0,0.0,0.0,0.0,0.0,0.0,0.0,0.0,0.0,0.0,0.0,0.0,0.0,0.0,0.0,0.0,0.0,0.0,0.0,0.0,0.0,0.0,0.0,0.0,0.0,0.0,0.0,0.0,0.0,0.0,0.0,0.0,0.0,0.0,0.0,0.0,0.0,0.0,0.0,0.0,0.0,0.0,0.0,0.0,0.0,0.0,0.0,0.0,0.0,0.0,0.0,0.0,0.0,0.0,0.0,0.0,0.0,0.0,0.0,0.0,0.0,0.0,0.0,0.0,0.0,0.0,0.0,0.0,0.0,0.0,0.0,0.0,0.0,0.0,0.0,0.0,0.0,0.0,0.0,0.0,0.0,0.0,0.0,0.0,0.0,0.0,0.0,0.0,0.0,0.0,0.0,0.0,0.0,0.0,0.0,0.0,0.0,0.0,0.0,0.0,0.0,0.0,0.0,0.0,0.0,0.0,0.0,0.0,0.0,0.0,0.0,0.0,0.0,0.0,0.0,0.0,0.0,0.0,0.0,0.0,0.0,0.0,0.0,0.0,0.0,0.0,0.0,0.0,0.0,0.0,0.0,0.0,0.0,0.0,0.0,0.0,0.0,0.0,0.0,0.0,0.0,0.0,0.0,0.0,0.0,0.0,0.0,0.0,0.0,0.0,0.0,0.0,0.0,0.0,0.0,0.0,0.0,0.0,0.0,0.0,0.0,0.0,0.0,0.0,0.0,0.0,0.0,0.0,0.0,0.0,0.0,0.0,0.0,0.0,0.0,0.0,0.0,0.0,0.0,0.0,0.0,0.0,0.0,0.0,0.0,0.0,0.0,0.0,0.0,0.0,0.0,0.0,0.0,0.0,0.0,0.0,0.0,0.0,0.0,0.0,0.0,0.0,0.0,0.0,0.0,0.0,0.0,0.0,0.0,0.0,0.0,0.0,0.0,0.0,0.0,0.0,0.0,0.0,0.0,0.0,0.0,0.0,0.0,0.0,0.0,0.0,0.0,0.0,0.0,0.0,0.0,0.0,0.0,0.0,0.0,0.0,0.0,0.0,0.0,0.0,0.0,0.0,0.0,0.0,0.0,0.0,0.0,0.0,0.0,0.0,0.0,0.0,0.0,0.0,0.0,0.0,0.0,0.0,0.0,0.0,0.0,0.0,0.0,0.0,0.0,0.0,0.0,0.0,0.0,0.0,0.0,0.0,0.0,0.0,0.0,0.0,0.0,0.0,0.0,0.0,0.0,0.0,0.0,0.0,0.0,0.0,0.0,0.0,0.0,0.0,0.0,0.0,0.0,0.0,0.0,0.0,0.0,0.0,0.0,0.0,0.0,0.0,0.0,0.0,0.0,0.0,0.0,0.0,0.0,0.0,0.0,0.0,0.0,0.0,0.0,0.0,0.0,0.0,0.0,0.0,0.0,0.0,0.0,0.0,0.0,0.0,0.0,0.0,0.0,5.4609,0.0,0.0,0.0,0.0,0.0,0.0,0.0,0.0,0.0,0.0,0.0,0.0,0.0,0.0,0.0,0.0,0.0,0.0,0.0,0.0,0.0,0.0,0.0,0.0,0.0,0.0,0.0,0.0,0.0,0.0,0.0,0.0,0.0,0.0,0.0,0.0,0.0,0.0,5.1279,5.1279,5.1697,5.2524,5.2163,5.1503,5.0582,0.0,0.0,0.0,0.0,0.0,0.0,0.0,0.0,0.0,0.0,0.0,0.0,0.0,0.0,0.0,0.0,0.0,0.0,0.0,0.0,0.0,0.0,0.0,0.0,0.0,0.0,0.0,0.0,0.0,0.0,0.0,0.0,0.0,0.0,0.0,0.0,0.0,0.0,0.0,0.0,0.0,0.0,0.0,0.0,0.0,0.0,0.0,0.0,0.0,0.0,0.0,0.0,0.0,0.0,0.0,0.0,0.0,0.0,0.0,0.0,0.0,0.0,0.0,0.0,0.0,0.0,0.0,0.0,0.0,0.0,0.0,5.5254,0.0,0.0,0.0,0.0,0.0,0.0,0.0,0.0,0.0,0.0,0.0,0.0,0.0,0.0,0.0,0.0,0.0,0.0,0.0,0.0,0.0,0.0,0.0,0.0,4.8682,4.9553,4.963,4.9938,0.0,0.0,0.0,0.0,0.0,0.0,0.0,5.1053,5.1452,5.214,5.2274,5.2717,5.3439,5.3569,5.3187,5.2348,5.1556,0.0,0.0,0.0,0.0,0.0,0.0,0.0,0.0,0.0,0.0,0.0,0.0,0.0,0.0,0.0,0.0,0.0,0.0,0.0,0.0,0.0,0.0,0.0,0.0,0.0,0.0,0.0,0.0,0.0,0.0,0.0,0.0,0.0,0.0,0.0,0.0,0.0,0.0,0.0,0.0,0.0,0.0,0.0,0.0,0.0,0.0,0.0,0.0,0.0,0.0,0.0,0.0,0.0,0.0,0.0,0.0,0.0,0.0,0.0,0.0,0.0,0.0,0.0,5.6758,5.6836,5.6836,5.6973,5.7051,5.7051,5.7051,5.6875,5.6601,0.0,0.0,0.0,0.0,0.0,0.0,0.0,0.0,0.0,0.0,0.0,0.0,0.0,0.0,0.0,0.0,0.0,0.0,0.0,0.0,0.0,0.0,4.9221,4.9591,5.0457,5.0534,5.0572,0.0,0.0,0.0,0.0,0.0,0.0,5.1736,5.2486,5.2909,5.3024,5.3799,5.4222,5.4323,5.4474,5.4452,5.4297,5.3556,5.3216,5.3216,0.0,0.0,0.0,0.0,0.0,0.0,0.0,0.0,0.0,0.0,0.0,0.0,0.0,0.0,0.0,0.0,0.0,0.0,0.0,0.0,0.0,0.0,0.0,0.0,0.0,0.0,0.0,0.0,0.0,0.0,0.0,0.0,0.0,0.0,0.0,0.0,0.0,0.0,0.0,0.0,0.0,5.3535,5.3633,0.0,0.0,0.0,0.0,0.0,0.0,0.0,0.0,0.0,0.0,0.0,0.0,0.0,0.0,5.6601,5.6601,5.6601,5.6601,5.7363,5.7734,5.7754,5.8515,5.8867,5.8867,5.8867,0.0,5.6601,5.6601,0.0,0.0,0.0,0.0,0.0,0.0,0.0,0.0,0.0,0.0,0.0,0.0,0.0,0.0,0.0,0.0,0.0,0.0,0.0,0.0,0.0,5.0529,5.0966,5.1337,5.1818,5.2106,5.2106,0.0,0.0,0.0,0.0,5.264,5.264,5.3005,5.3433,5.3933,5.4761,5.517,5.5175,5.5315,5.5427,5.5537,5.5277,5.4595,5.3604,5.3689,0.0,0.0,0.0,0.0,0.0,0.0,0.0,0.0,0.0,0.0,0.0,0.0,0.0,0.0,0.0,0.0,0.0,0.0,0.0,0.0,0.0,0.0,0.0,0.0,0.0,0.0,0.0,0.0,0.0,0.0,0.0,0.0,0.0,0.0,0.0,0.0,0.0,0.0,0.0,5.3516,5.4004,5.4004,5.4004,5.4375,0.0,0.0,0.0,0.0,0.0,0.0,0.0,0.0,0.0,5.7324,5.7812,5.8066,5.8066,5.8066,5.8066,5.8066,5.8457,5.8633,5.8633,5.9023,5.9199,5.9199,5.9199,5.8769,5.8066,5.8066,5.8555,5.9316,0.0,0.0,0.0,0.0,6.0293,5.9863,0.0,0.0,0.0,0.0,0.0,0.0,0.0,0.0,0.0,0.0,0.0,0.0,5.0984,5.1784,5.2276,5.2241,5.2832,5.3197,5.3197,5.3197,0.0,5.3197,5.3409,5.353,5.353,5.3741,5.4164,5.4799,5.542,5.5708,5.5695,5.5833,5.601,5.6219,5.6333,5.5631,5.4375,5.4471,5.4389,5.4197,0.0,0.0,0.0,0.0,0.0,0.0,0.0,0.0,0.0,0.0,0.0,0.0,0.0,0.0,0.0,0.0,0.0,0.0,0.0,0.0,0.0,0.0,0.0,0.0,0.0,0.0,0.0,0.0,0.0,0.0,0.0,0.0,0.0,0.0,0.0,0.0,0.0,5.4512,5.4746,5.4961,5.4805,5.5254,0.0,0.0,0.0,0.0,0.0,0.0,5.7285,5.8086,5.8457,5.8242,5.8867,5.9199,5.9199,5.9199,5.9199,5.9199,5.9414,5.9512,5.9512,5.9746,5.9844,5.9844,5.9844,5.9844,5.9805,5.9375,5.9668,6.039,6.039,6.0937,6.1699,6.1699,6.1289,6.0723,0.0,0.0,0.0,0.0,0.0,0.0,0.0,0.0,0.0,0.0,0.0,5.2113,5.2035,5.2798,5.326,5.3146,5.3159,5.3197,5.3197,5.3197,5.3197,5.3197,5.3991,5.4434,5.4434,5.5184,5.5593,5.5651,5.5689,5.5708,5.5695,5.5833,5.601,5.6219,5.6333,5.6421,5.6445,5.6465,5.5976,5.5234,5.5234,0.0,0.0,0.0,0.0,0.0,0.0,0.0,0.0,0.0,0.0,0.0,0.0,0.0,0.0,0.0,0.0,0.0,0.0,0.0,0.0,0.0,0.0,0.0,0.0,0.0,0.0,0.0,0.0,0.0,0.0,0.0,0.0,0.0,0.0,0.0,0.0,0.0,0.0,5.7617,5.6973,0.0,0.0,0.0,0.0,5.789,5.9336,5.9883,5.9101,5.9844,5.9922,5.916,5.918,5.9199,5.9199,5.9199,5.9199,5.9219,5.9961,6.0332,6.0371,6.1191,6.1562,6.1562,6.1562,6.1562,6.1445,5.9863,5.9668,6.039,6.039,6.0937,6.1699,6.1699,6.168,6.1621,0.0,0.0,0.0,0.0,0.0,0.0,0.0,0.0,5.0921,5.1758,5.211,5.2504,5.3019,5.3765,5.4223,5.4179,5.4559,5.4799,5.4799,5.4799,5.5049,5.5612,5.5939,5.6112,5.6112,5.5843,5.5708,5.5708,5.5708,5.5708,5.5695,5.5833,5.601,5.6219,5.6333,5.6462,5.6601,5.6601,5.6426,5.6133,5.6133,5.5605,0.0,0.0,0.0,0.0,0.0,0.0,0.0,0.0,0.0,0.0,0.0,0.0,0.0,0.0,0.0,0.0,0.0,0.0,0.0,0.0,0.0,0.0,0.0,0.0,0.0,0.0,0.0,0.0,0.0,0.0,0.0,0.0,0.0,0.0,0.0,0.0,0.0,5.7851,5.8125,0.0,5.9433,5.9043,5.8945,5.9473,5.957,5.9492,5.9219,5.9961,6.0273,5.998,6.0527,6.0801,6.0801,6.0801,6.0801,6.0801,6.1094,6.123,6.125,6.1562,6.1699,6.1699,6.1699,6.1699,6.164,6.1055,6.0976,6.123,6.123,6.1426,6.1699,6.1699,6.1699,6.1699,0.0,0.0,0.0,0.0,0.0,0.0,0.0,0.0,5.1946,5.2768,5.3139,5.3518,5.405,5.4805,5.5265,5.5206,5.5617,5.584,5.5769,5.6082,5.6483,5.697,5.7003,5.7003,5.7003,5.642,5.6285,5.6588,5.6588,5.6444,5.6213,5.6293,5.6313,5.626,5.6366,5.6462,5.6601,5.6601,5.6601,5.6601,5.6601,5.625,5.5742,0.0,0.0,0.0,0.0,0.0,0.0,0.0,0.0,0.0,0.0,0.0,0.0,0.0,0.0,0.0,0.0,0.0,0.0,0.0,0.0,0.0,0.0,0.0,0.0,0.0,0.0,0.0,0.0,0.0,0.0,0.0,0.0,0.0,0.0,0.0,5.8437,5.8711,5.9004,5.9512,6.0312,5.9922,5.9824,6.0351,6.0176,6.0039,6.0039,6.0547,6.084,6.084,6.1406,6.1699,6.1699,6.1699,6.1699,6.1699,6.1699,6.1699,6.1699,6.1699,6.1699,6.1699,6.1699,6.1875,6.2148,6.2148,6.2305,6.2519,6.1933,6.1699,6.1699,6.1699,6.1699,6.1699,0.0,0.0,0.0,0.0,0.0,0.0,0.0,5.2695,5.3027,5.3926,5.4785,5.525,5.5169,5.5902,5.6358,5.621,5.6194,5.6128,5.5963,5.6854,5.7303,5.709,5.7068,5.7068,5.7087,5.7068,5.7467,5.8308,5.8308,5.7939,5.7244,5.7249,5.6984,5.6488,5.6451,5.6523,5.664,5.6601,5.6601,5.6601,5.6601,5.6601,5.6601,0.0,0.0,0.0,0.0,0.0,0.0,0.0,0.0,0.0,0.0,0.0,0.0,0.0,0.0,0.0,0.0,0.0,0.0,0.0,0.0,0.0,0.0,0.0,0.0,0.0,0.0,0.0,0.0,0.0,0.0,0.0,0.0,0.0,5.9219,5.9219,5.9531,6.0312,5.9746,5.957,6.0351,6.0449,6.0449,6.0449,6.1211,6.1699,6.1699,6.1699,6.1699,6.1699,6.1699,6.1719,6.1738,6.1738,6.1758,6.1777,6.1777,6.1777,6.1777,6.1777,6.1777,6.1777,6.1777,6.2265,6.3047,6.3047,6.3535,6.4121,6.2441,6.1777,6.1777,6.1777,6.1777,6.1777,0.0,0.0,0.0,0.0,0.0,0.0,0.0,5.2695,5.3242,5.4746,5.5156,5.5527,5.6129,5.63,5.6382,5.636,5.6268,5.6411,5.6957,5.7248,5.7936,5.9126,5.8572,5.8533,5.9161,5.8563,5.8349,5.8598,5.8598,5.849,5.8285,5.8386,5.8357,5.8191,5.7702,5.7518,5.75,5.6875,5.6601,5.6601,5.6601,5.6601,5.6601,0.0,0.0,0.0,0.0,0.0,0.0,0.0,0.0,0.0,0.0,0.0,0.0,0.0,0.0,0.0,0.0,0.0,0.0,0.0,0.0,0.0,0.0,0.0,0.0,0.0,0.0,0.0,0.0,0.0,0.0,0.0,0.0,6.0586,5.9375,5.9707,6.0156,6.0371,6.0762,6.1094,6.1328,6.1348,6.1348,6.1348,6.1562,6.1699,6.1699,6.1699,6.1699,6.1699,6.1699,6.1992,6.2637,6.2637,6.2969,6.3594,6.3594,6.3594,6.3594,6.3594,6.3594,6.3594,6.3594,6.3711,6.3945,6.3945,6.4082,6.4258,6.3769,6.3594,6.3594,6.3594,6.3594,6.3594,0.0,0.0,0.0,0.0,0.0,0.0,0.0,5.3555,5.4277,5.5664,5.584,5.6035,5.6543,5.6536,5.6485,5.6485,5.6749,5.7081,5.7507,5.8121,5.8797,5.9512,5.9345,5.9488,6.0,5.9496,5.9416,5.9783,5.9783,5.9637,5.9321,5.9416,5.9296,5.9006,5.8611,5.8437,5.8398,5.7519,5.7148,5.7109,5.6758,5.6601,5.6601,5.6601,5.6601,5.6601,5.6601,5.6601,5.6601,5.6601,0.0,0.0,0.0,0.0,0.0,0.0,0.0,0.0,0.0,0.0,0.0,0.0,0.0,0.0,0.0,0.0,0.0,0.0,0.0,0.0,0.0,0.0,0.0,0.0,6.1699,6.1367,6.0371,6.0644,6.0937,6.0937,6.1387,6.1699,6.1699,6.1699,6.1699,6.1699,6.2031,6.2246,6.2246,6.2598,6.2793,6.2793,6.2793,6.3027,6.3535,6.3535,6.3808,6.4297,6.4297,6.4297,6.4297,6.4297,6.4297,0.0,6.4297,6.4512,6.4844,6.4844,6.5058,0.0,0.0,0.0,0.0,0.0,6.4297,6.4297,0.0,0.0,0.0,0.0,0.0,0.0,0.0,5.4668,5.5508,5.6465,5.6601,5.6601,5.6601,5.6601,5.6601,5.6601,5.7402,5.7887,5.7871,5.9145,5.9661,5.9096,5.971,6.0083,6.0181,6.0181,6.0568,6.1356,6.1356,6.1004,6.0362,6.0362,6.0058,5.9473,5.9375,5.9336,5.9277,5.8418,5.8047,5.7988,5.7207,5.6777,5.6601,5.6601,5.6601,5.6601,5.6601,5.6601,5.6601,5.6601,0.0,0.0,0.0,0.0,0.0,0.0,0.0,0.0,0.0,0.0,0.0,0.0,0.0,0.0,0.0,0.0,0.0,0.0,0.0,0.0,0.0,0.0,0.0,0.0,6.1699,6.1699,6.1699,6.1777,6.1816,6.1719,6.1699,6.1738,6.1836,6.1855,6.1894,6.1992,6.2715,6.3144,6.3144,0.0,0.0,0.0,0.0,6.4355,6.4453,6.4453,6.4492,6.459,6.459,6.459,6.459,6.459,6.459,6.459,6.459,6.5039,6.5742,6.5742,6.6191,6.6758,6.5195,6.459,6.459,6.459,6.459,6.459,0.0,0.0,0.0,0.0,0.0,0.0,0.0,5.4141,5.4824,5.6387,5.6601,5.6601,5.6601,5.6601,5.6601,5.6601,5.7402,5.8183,5.8865,5.9194,5.9584,6.0096,6.0248,6.0656,6.1359,6.1379,6.1456,6.1612,6.1612,6.1556,6.1404,6.1404,6.1347,6.1191,6.0488,6.0176,6.0117,5.9297,5.8945,5.8926,5.8769,5.7851,5.6601,5.6601,5.6601,5.6601,5.6601,5.6601,5.6601,5.6601,5.6601,5.6719,5.7422,5.7656,0.0,0.0,0.0,0.0,0.0,0.0,0.0,0.0,0.0,0.0,0.0,0.0,0.0,0.0,0.0,0.0,0.0,0.0,0.0,6.1699,6.1699,6.1699,6.1699,6.2305,6.248,6.1777,6.1699,6.1973,6.2676,6.2754,6.3047,6.373,6.3945,6.4043,6.4043,6.4219,0.0,6.4297,6.4297,6.4648,6.5332,6.5351,6.5703,6.6406,0.0,0.0,6.6406,6.6406,6.6406,6.6406,6.6406,6.6484,6.664,6.664,6.6758,6.6875,6.6523,6.6406,6.6406,6.6406,6.6406,6.6406,0.0,0.0,0.0,0.0,0.0,0.0,0.0,5.4375,5.5117,5.6426,5.6601,5.6601,5.6601,5.6601,5.6601,5.6601,5.7402,5.8262,5.914,5.957,5.9805,5.9805,6.0605,6.125,6.1699,6.1699,6.1699,6.1699,6.1699,6.1699,6.1699,6.1699,6.1699,6.168,6.123,6.1055,6.0996,6.0156,5.9805,5.9765,5.9355,5.8672,5.789,5.789,5.789,5.789,5.789,5.789,5.789,5.789,5.789,5.7988,5.8418,5.8555,5.8711,0.0,0.0,0.0,0.0,0.0,0.0,0.0,0.0,0.0,0.0,0.0,0.0,0.0,0.0,6.1699,0.0,0.0,6.1836,6.2285,6.2344,6.25,6.2949,6.3379,6.332,6.2441,6.2734,6.3164,6.3613,6.3652,6.3828,6.4277,6.4707,6.4941,6.4941,6.5351,6.5605,6.5605,6.5605,6.5801,6.625,6.625,6.6465,6.6894,6.6894,6.6894,6.6894,6.6894,6.6894,6.6894,6.6894,6.6894,6.6894,6.6894,6.6894,6.6894,6.6894,6.6894,6.6894,6.6894,6.6894,6.6894,0.0,0.0,0.0,0.0,0.0,0.0,0.0,5.4609,5.543,5.6465,5.6601,5.6601,5.6601,5.6601,5.668,5.6836,5.7344,5.8027,5.8887,5.9551,5.9707,5.9219,6.0644,6.1523,6.1699,6.1699,6.1699,6.1699,6.1699,6.1699,6.1699,6.1699,6.1699,6.1699,6.1699,6.1699,6.164,6.0957,6.0644,6.0605,5.9941,5.9687,5.9687,5.9687,5.9473,5.9199,5.9199,5.9199,5.9199,5.9199,5.9199,5.9238,5.9375,5.9433,5.959,6.041,6.0644,0.0,0.0,0.0,0.0,0.0,0.0,0.0,0.0,6.1699,6.1699,6.1699,6.1699,6.1758,6.1914,6.1953,6.2246,6.3105,6.3242,6.3496,6.4199,6.4453,6.4297,6.3594,6.3984,6.4375,6.4531,6.4551,6.4629,6.4785,6.5469,6.5859,6.5859,6.6523,6.6894,6.6894,6.6894,6.6894,6.6894,6.6894,6.6894,6.6894,6.6894,6.6894,6.6894,6.6894,6.6894,6.6894,6.6894,6.6894,6.6894,6.6894,6.6894,6.6894,6.6894,6.6894,6.6894,6.6894,6.6894,6.6894,0.0,0.0,0.0,0.0,0.0,0.0,0.0,0.0,5.4746,5.6387,5.6601,5.6601,5.6601,5.6601,5.6914,5.7695,5.7148,5.7129,5.7988,5.8125,5.8476,5.918,6.0058,6.0918,6.168,6.1699,6.1699,6.1699,6.1699,6.1699,6.1699,6.1699,6.1699,6.1699,6.1699,6.1699,6.1699,6.1601,6.1543,6.1543,6.1465,6.1426,6.1426,6.1426,6.0508,5.9199,5.9199,5.9199,5.9199,5.9199,5.9199,5.9316,6.0039,6.0273,6.0449,6.1308,6.1543,6.1582,6.168,6.1699,6.1699,6.1699,6.1621,6.1582,0.0,6.1699,6.1699,6.1699,6.1699,6.1933,6.2715,6.2851,6.3144,6.4004,6.414,6.4199,6.4297,6.4961,6.543,6.5312,6.4707,6.4609,6.5371,6.5449,6.5781,6.6543,6.6699,6.6758,6.6758,6.6855,6.6894,6.6894,6.6894,6.6894,6.6894,6.6894,6.6894,6.6894,6.6894,6.6894,6.6894,6.6894,6.6894,6.6894,6.6894,6.6894,6.6894,6.6894,6.6894,6.6894,6.6894,6.6894,6.6894,6.6894,6.6894,6.6894,0.0,0.0,0.0,0.0,0.0,0.0,0.0,0.0,0.0,5.6367,5.6601,5.6601,5.6601,5.6601,5.6953,5.7812,5.7109,5.6973,5.7832,5.789,5.8066,5.8437,5.9258,6.0098,6.0937,6.0937,6.1191,6.1699,6.1699,6.1699,6.1699,6.1699,6.1699,6.1699,6.1699,6.1699,6.1699,6.1699,6.1699,6.1699,6.1699,6.1699,6.1699,6.1699,6.1269,6.0644,6.0644,6.0644,0.0,6.0644,6.0644,6.0703,6.1055,6.1152,6.123,6.1582,6.1699,6.1699,6.1699,6.1699,6.1699,6.1699,6.1699,6.1699,6.1699,6.1699,6.1836,6.2344,6.2461,6.2715,6.3594,6.3769,6.4043,0.0,6.5058,6.5234,6.5742,6.6133,6.6367,6.6367,6.6035,6.5957,6.6328,6.6367,6.6504,6.6875,6.6894,6.6894,6.6894,6.6894,6.6894,6.6894,6.6894,6.6894,6.6894,6.6894,6.6894,6.6894,6.6894,6.6894,6.6894,6.6894,6.6894,6.6894,6.6894,6.6894,6.6894,6.6894,6.6894,6.6894,6.6894,6.6894,6.6894,6.6894,6.6894,6.6894,0.0,0.0,0.0,0.0,0.0,0.0,0.0,0.0,0.0,0.0,5.6539,5.656,5.6601,5.6601,5.6855,5.748,5.6953,5.6875,5.75,5.7539,5.7656,5.789,5.8496,5.9238,6.0058,6.0078,6.0488,6.1348,6.1348,6.1465,6.1699,6.1699,6.1699,6.1699,6.1699,6.1699,6.1699,6.1699,6.1699,6.1699,6.1699,6.1699,6.1699,6.1699,6.1699,6.1699,6.1699,6.1699,6.1699,6.1699,6.1699,6.1699,6.1699,6.1699,6.1699,6.1699,6.1699,6.1699,6.1699,6.1699,6.1699,6.1699,6.1699,6.1699,6.1699,6.1894,6.2246,6.2871,6.3183,6.3613,6.4492,6.4668,6.4941,6.582,6.5957,6.6172,6.6816,6.6894,6.6894,6.6894,6.6894,6.6894,6.6894,6.6894,6.6894,6.6894,6.6894,6.6894,6.6894,6.6894,6.6894,6.6894,6.6894,6.6894,6.6894,6.6894,6.6894,6.6894,6.6894,6.6894,6.6894,6.6894,6.6894,6.6894,6.6894,6.6894,6.6894,6.6894,6.6894,6.6894,6.6894,6.6894,6.6894,6.6894,6.6894,6.6894,0.0,0.0,0.0,0.0,0.0,0.0,0.0,0.0,0.0,0.0,0.0,0.0,0.0,5.6601,5.6601,5.664,5.6621,5.6601,5.664,5.664,5.7012,5.7851,5.793,5.8359,5.9219,5.9238,5.9629,6.0449,6.0449,6.0879,6.1699,6.1699,6.1699,6.1699,6.1699,6.1699,6.1699,6.1699,6.1699,6.1699,6.1699,6.1699,6.1699,6.1699,6.1699,6.1699,6.1699,6.1699,6.1699,6.1699,6.1699,6.1699,6.1699,6.1699,6.1699,6.1699,6.1699,6.1699,6.1699,6.1699,6.1699,6.1699,6.1699,6.1699,6.1699,6.2344,6.2969,6.2988,6.3672,6.4531,6.539,6.5566,6.5859,6.6719,6.6855,6.6875,6.6894,6.6894,6.6894,6.6894,6.6894,6.6894,0.0,6.6894,6.6894,6.6894,6.6894,6.6894,6.6894,6.6894,6.6894,6.6894,6.6894,6.6894,6.6894,6.6894,6.6894,6.6894,6.6894,6.6894,6.6894,6.6894,6.6894,6.6894,6.6894,6.6894,6.6894,6.6894,6.6894,6.6894,6.6894,6.6894,6.6894,6.6894,6.6894,6.6894,0.0,0.0,0.0,0.0,0.0,0.0,0.0,0.0,0.0,0.0,0.0,0.0,0.0,0.0,0.0,0.0,5.6419,5.6479,5.6479,5.6559,5.6738,5.7012,5.7031,5.7441,5.832,5.834,5.875,5.9609,5.9609,5.9746,6.0039,6.0039,6.0039,6.0039,6.0039,6.0039,6.0078,6.0605,6.084,6.0898,6.1465,6.1699,6.1699,6.1699,6.1699,6.1699,0.0,6.1699,6.1699,6.1699,6.1699,6.1699,6.1699,6.1699,6.1816,6.2383,6.2148,6.1836,6.2402,6.2148,6.1699,6.1699,6.2129,6.2558,6.2558,6.3242,6.4023,6.4609,6.4961,6.543,6.6308,6.6465,6.6562,6.6855,6.6894,6.6894,6.6894,6.6894,6.6894,6.6894,6.6894,0.0,0.0,0.0,0.0,6.6894,6.6894,6.6894,6.6894,6.6894,6.6894,6.6894,6.6894,6.6894,6.6894,6.6894,6.6894,6.6894,6.6894,6.6894,6.6894,6.6894,6.6894,6.6894,6.6894,6.6894,6.6894,6.6894,6.6894,6.6894,6.6894,6.6894,6.6894,6.6894,6.6894,6.6894,0.0,0.0,0.0,0.0,0.0,0.0,0.0,0.0,0.0,0.0,0.0,0.0,0.0,0.0,0.0,0.0,0.0,5.6326,5.6326,5.6416,5.6457,5.6457,5.6457,5.6711,5.7278,5.7297,5.7707,5.8567,5.8567,5.8723,5.9017,5.9017,5.9017,5.9017,5.9017,5.9017,5.9056,5.9564,5.9974,6.0305,6.0871,6.131,6.1633,6.1633,6.1657,0.0,6.1699,6.1699,6.1699,6.1699,6.1699,6.1758,6.207,6.2383,6.2676,6.293,6.2598,6.2226,6.2461,6.2129,6.1777,6.209,6.2598,6.3086,6.3398,6.414,6.4922,6.5488,6.5859,6.6328,6.7207,6.7109,6.7109,6.7734,6.7578,6.7363,6.7363,6.7363,6.7246,6.6933,6.6894,6.6894,0.0,0.0,0.0,6.6894,6.6894,6.6894,6.6894,6.6894,6.6894,6.6894,6.6894,6.6894,6.6894,6.6894,6.6894,6.6894,6.6894,6.6894,6.6894,6.6894,6.6894,6.6894,6.6894,6.6894,6.6894,6.6894,6.6894,6.6894,6.6894,6.6894,6.6894,6.6894,6.6894,6.6894,0.0,0.0,0.0,0.0,0.0,0.0,0.0,0.0,0.0,0.0,0.0,0.0,0.0,0.0,0.0,0.0,0.0,0.0,5.6181,5.6189,5.6194,5.6194,5.6194,5.6194,5.6194,5.6194,5.6567,5.735,5.735,5.7781,5.8623,5.8623,5.8662,5.8698,5.8698,5.8698,5.8698,5.876,5.9243,5.9997,6.0055,6.0635,6.1498,6.1502,6.1579,6.1699,6.1699,6.1699,6.1699,6.1699,6.1699,6.1836,6.2676,6.3496,6.4004,6.3223,6.2969,6.2754,6.1973,6.1738,6.1914,6.2773,6.3027,6.3281,6.418,6.5039,6.5683,6.5723,6.6387,6.7226,6.8105,6.7558,6.7519,6.916,6.8691,6.8125,6.8125,6.8125,6.7832,0.0,0.0,0.0,0.0,0.0,0.0,6.6894,0.0,6.6894,6.6894,6.6894,6.6894,6.6894,6.6894,6.6894,6.6894,6.6894,6.6894,6.6894,6.6894,6.6894,6.6894,6.6894,6.6894,6.6894,6.6894,6.6894,6.6894,6.6894,6.6894,6.6894,6.6894,6.6894,6.6894,6.6894,6.6894,6.6894,0.0,0.0,0.0,0.0,0.0,0.0,0.0,0.0,0.0,0.0,0.0,0.0,0.0,0.0,0.0,0.0,0.0,0.0,5.5981,5.6128,5.6194,5.6194,5.6194,5.6194,5.6194,5.6194,5.6291,5.6505,5.6505,5.6934,5.7729,5.7729,5.8076,5.871,5.871,5.871,5.8748,5.9396,5.9805,6.0058,6.0705,6.1117,6.1354,6.1458,6.1515,6.1554,6.1658,6.1699,6.1699,6.1699,6.1699,6.1738,6.1953,6.2187,6.2441,6.2871,6.2539,6.2129,6.2558,6.2187,6.1914,6.2773,6.3496,6.4199,6.5078,6.5937,6.6758,6.7402,6.7715,6.8125,6.8945,6.8418,6.8008,6.8457,6.7793,0.0,6.7226,6.7226,0.0,6.6933,0.0,6.6894,6.6894,6.6894,0.0,0.0,6.6894,6.6894,6.6894,6.6894,6.6894,6.6894,6.6894,6.6894,6.6894,6.6894,6.6894,6.6894,6.6894,6.6894,6.6894,6.6894,6.6894,6.6894,6.6894,6.6894,6.6894,6.6894,6.6894,6.6894,6.6894,6.6894,6.6894,6.6894,6.6894,6.6894,0.0,0.0,0.0,0.0,0.0,0.0,0.0,0.0,0.0,0.0,0.0,0.0,0.0,0.0,0.0,0.0,0.0,0.0,0.0,5.5914,5.5982,5.5982,5.5982,5.5982,5.5982,5.5982,5.5982,5.5982,5.5982,5.6215,5.6657,5.6657,5.6908,5.7385,5.7385,5.7598,5.7985,5.8478,5.9113,0.0,0.0,6.0767,6.1186,6.1244,6.1335,6.1434,6.1554,6.1656,6.1758,6.2148,6.2265,6.2265,6.2265,6.2539,6.2851,6.2969,6.2656,6.2285,6.2402,6.2344,6.248,6.3359,6.4238,6.5195,6.6465,6.6816,6.7246,6.8476,6.8457,6.8555,6.9746,6.9004,6.8437,6.918,6.8262,6.7461,6.7461,6.7461,6.7324,6.6953,6.6894,0.0,6.6894,6.6894,6.6894,0.0,6.6894,6.6894,6.6894,6.6894,6.6894,6.6894,6.6894,6.6894,6.6894,6.6894,6.6894,6.6894,6.6894,6.6894,6.6894,6.6894,6.6894,6.6894,0.0,6.6894,6.6894,6.6894,6.6894,6.6894,6.6894,6.6894,6.6894,6.6894,6.6894,6.6894,0.0,0.0,0.0,0.0,0.0,0.0,0.0,0.0,0.0,0.0,0.0,0.0,0.0,0.0,0.0,0.0,0.0,0.0,0.0,0.0,5.5708,5.5708,5.5708,5.5708,5.5708,5.5708,5.5708,5.5708,5.5708,5.5766,5.5862,5.5862,5.5939,5.6055,5.6055,5.6459,5.717,5.7286,5.8171,5.9511,5.9627,6.0205,6.0976,0.0,6.1116,6.13,6.1565,6.1758,6.1992,6.2754,6.293,6.2832,6.2832,6.3359,6.3808,6.3047,6.2832,6.2656,6.1914,6.2344,6.3203,6.4082,6.4961,6.6035,6.7656,6.7441,6.7383,6.9043,6.8847,6.8887,7.0566,6.959,6.8965,7.0312,6.9219,6.8164,6.8047,6.8027,6.7754,6.6992,6.6894,6.6894,6.6894,6.6894,6.6894,6.6894,6.6894,6.6894,6.6894,6.6894,6.6894,6.6894,6.6894,6.6894,6.6894,6.6894,6.6894,6.6894,6.6894,6.6894,6.6894,6.6894,6.6894,6.6894,0.0,0.0,6.6894,6.6894,6.6894,6.6894,6.6894,6.6894,6.6894,6.6894,6.6894,6.6894,0.0,0.0,0.0,0.0,0.0,0.0,0.0,0.0,0.0,0.0,5.5708,5.5708,0.0,0.0,0.0,0.0,0.0,0.0,0.0,0.0,0.0,5.5708,5.5708,5.5708,5.5708,5.5708,5.5708,5.5708,5.5708,5.6074,5.6766,5.6766,5.7151,5.7857,5.7857,5.7934,5.8127,5.8781,5.9223,5.9569,6.0281,6.0681,6.085,6.0963,0.0,0.0,6.2204,6.2657,6.2793,6.2949,6.2519,6.1933,6.1933,6.2031,6.2129,6.1973,6.1933,6.1894,6.1738,6.2344,6.3203,6.4082,6.4961,6.5879,6.6894,6.7012,6.7383,6.9043,6.9336,6.9785,7.1465,7.0957,7.0137,6.9765,6.8867,6.7949,6.7226,6.7129,6.707,6.6914,6.6894,6.6894,6.6894,6.6894,0.0,0.0,0.0,6.6894,6.6894,6.6894,6.6894,6.6894,6.6894,6.6894,6.6894,6.6894,6.6894,6.6894,6.6894,6.6894,6.6894,6.6894,6.6894,6.6894,6.6894,0.0,6.6894,6.6894,6.6894,6.6894,6.6894,6.6894,6.6894,6.6894,6.6894,6.6894,0.0,0.0,0.0,0.0,0.0,0.0,0.0,5.3818,5.3953,5.4357,5.4395,5.4722,5.5593,5.5708,0.0,0.0,0.0,0.0,0.0,0.0,0.0,0.0,5.5708,5.5708,5.5708,5.5708,5.5708,5.5708,0.0,5.592,5.6324,5.6324,5.6555,5.6953,5.6953,5.7203,5.7646,5.8036,5.8704,5.955,5.9954,6.0396,6.0818,0.0,0.0,0.0,6.2296,6.2782,6.2975,6.3495,6.3105,6.2305,6.1836,6.1699,6.1699,6.1699,6.1699,6.1699,6.1699,6.2676,6.3789,6.4199,6.5293,6.6504,6.7383,6.7226,6.75,6.9648,6.9746,6.9961,7.168,7.1289,7.0566,7.0195,6.9043,6.8047,6.7637,6.7187,6.6894,6.6894,6.6894,6.6894,6.6894,6.6894,6.6894,0.0,0.0,6.6894,6.6894,6.6894,6.6894,6.6894,6.6894,6.6894,6.6894,6.6894,6.6894,6.6894,6.6894,6.6894,6.6894,6.6894,6.6894,6.6894,6.6894,0.0,6.6894,6.6894,6.6894,6.6894,6.6894,6.6894,6.6894,6.6894,6.6894,6.6894,0.0,0.0,0.0,0.0,0.0,0.0,0.0,5.2928,5.2986,5.3178,5.3197,5.3703,5.5011,5.5324,5.5439,0.0,0.0,0.0,0.0,0.0,0.0,0.0,0.0,0.0,5.5708,0.0,0.0,5.5708,5.5708,0.0,0.0,0.0,0.0,0.0,5.5708,5.6074,5.6728,5.6926,5.7767,0.0,0.0,5.9915,0.0,0.0,0.0,0.0,0.0,6.2807,6.3196,6.4021,6.3848,6.3164,6.2461,6.2129,6.1973,6.1973,6.1973,6.1933,6.1758,6.2969,6.4297,6.4297,6.5605,6.707,6.7773,6.7383,6.7578,6.9922,6.9883,6.9941,7.168,7.1445,7.0918,7.0722,6.959,6.8613,6.8242,6.7617,6.7109,6.6914,6.6894,0.0,6.6894,6.6894,0.0,0.0,0.0,0.0,6.6894,6.6894,6.6894,6.6894,6.6894,6.6894,6.6894,6.6894,6.6894,6.6894,6.6894,6.6894,6.6894,6.6894,6.6894,6.6894,6.6894,0.0,0.0,6.6894,6.6894,6.6894,6.6894,6.6894,6.6894,6.6894,6.6894,6.6894,0.0,0.0,0.0,0.0,0.0,0.0,0.0,5.2019,5.2294,5.3101,5.3197,5.3255,5.3409,5.4145,5.4607,0.0,0.0,0.0,0.0,0.0,0.0,0.0,0.0,0.0,0.0,0.0,0.0,5.5708,5.5708,0.0,0.0,0.0,0.0,0.0,0.0,5.5747,5.5862,5.6651,0.0,0.0,0.0,0.0,0.0,0.0,0.0,0.0,0.0,6.3197,6.4017,6.4235,6.4258,6.418,6.4082,6.3515,6.2871,6.2871,6.2871,6.2715,6.1914,6.2969,6.4297,6.4297,6.5605,6.6914,6.6992,6.6953,6.7402,6.916,6.9492,7.0,7.1699,7.1933,7.1621,7.082,7.0566,6.9941,6.8418,6.8125,6.7793,6.6992,0.0,0.0,6.6894,6.6894,0.0,0.0,0.0,0.0,6.6894,6.6894,6.6894,6.6894,6.6894,6.6894,6.6894,6.6894,6.6894,6.6894,6.6894,6.6894,6.6894,6.6894,6.6894,6.6894,6.6894,0.0,0.0,6.6894,6.6894,6.6894,6.6894,6.6894,6.6894,6.6894,6.6894,6.6894,0.0,0.0,0.0,0.0,0.0,0.0,5.1125,5.1183,5.1298,5.165,5.1707,5.1707,5.1707,5.2433,5.314,0.0,0.0,0.0,0.0,0.0,0.0,0.0,0.0,0.0,0.0,0.0,5.5708,5.5708,5.5708,0.0,0.0,0.0,0.0,0.0,0.0,5.5708,5.5728,5.6074,0.0,0.0,0.0,0.0,0.0,0.0,0.0,0.0,0.0,0.0,6.3222,6.3449,6.3515,6.3691,6.4746,6.4473,6.3672,6.3144,6.3008,6.2812,6.1933,6.2969,6.4297,6.4297,6.5605,6.6894,6.6894,6.7305,6.8008,6.916,6.9844,7.0586,7.1777,7.1992,7.1894,7.1543,7.1035,7.0469,6.9805,6.8847,6.8066,6.7715,6.7226,0.0,0.0,0.0,0.0,0.0,0.0,0.0,6.6894,6.6894,6.6894,6.6894,6.6894,6.6894,6.6894,6.6894,6.6894,6.6894,6.6894,6.6894,6.6894,6.6894,6.6894,6.6894,6.6894,0.0,0.0,6.6894,6.6894,6.6894,6.6894,6.6894,6.6894,6.6894,6.6894,6.6894,0.0,0.0,0.0,0.0,0.0,5.0707,5.0707,5.0707,5.0707,5.0707,5.0707,5.0707,5.0707,5.1202,5.1793,5.2414,0.0,0.0,0.0,0.0,0.0,0.0,0.0,0.0,0.0,0.0,5.5708,5.5708,5.5708,5.5708,0.0,0.0,5.5708,5.5708,0.0,0.0,0.0,0.0,0.0,0.0,0.0,0.0,0.0,0.0,0.0,0.0,0.0,0.0,0.0,0.0,0.0,6.3262,6.4746,6.4629,6.3906,6.3808,6.3594,6.3183,6.2324,6.3164,6.4297,6.4297,6.5605,6.6894,6.6894,6.7578,6.8437,6.9258,7.0117,7.0976,7.1836,7.1992,7.1992,7.1992,7.1484,7.0996,7.0742,6.9687,6.8847,6.8613,0.0,6.7558,0.0,0.0,0.0,0.0,0.0,0.0,0.0,6.6894,6.6894,6.6894,6.6894,6.6894,6.6894,6.6894,6.6894,6.6894,6.6894,6.6894,6.6894,6.6894,6.6894,6.6894,0.0,0.0,0.0,6.6894,6.6894,6.6894,6.6894,6.6894,6.6894,6.6894,6.6894,6.6894,0.0,0.0,0.0,0.0,0.0,0.0,5.0707,5.0707,5.0707,5.0707,5.0707,5.0707,5.0707,5.0707,5.0726,5.0726,0.0,0.0,0.0,0.0,0.0,0.0,0.0,0.0,0.0,0.0,5.5708,5.5708,5.5708,5.5708,5.5708,5.5708,5.5708,5.5708,0.0,0.0,0.0,0.0,0.0,0.0,0.0,0.0,0.0,0.0,0.0,0.0,0.0,0.0,0.0,0.0,0.0,0.0,0.0,6.3711,6.3359,6.5078,6.4961,6.4101,6.3223,6.3633,6.4297,6.4297,6.5605,6.6894,6.6894,6.7578,6.8457,6.9316,7.0137,7.0976,7.1836,7.1992,7.1992,7.1992,7.1992,7.1699,7.082,7.0683,7.0371,0.0,0.0,6.9062,6.8262,0.0,0.0,0.0,0.0,0.0,0.0,6.6894,6.6894,6.6894,6.6894,6.6894,6.6894,6.6894,6.6894,6.6894,6.6894,6.6894,6.6894,6.6894,6.6894,0.0,0.0,0.0,0.0,6.6894,6.6894,6.6894,6.6894,6.6894,6.6894,6.6894,6.6894,6.6894,0.0,0.0,0.0,0.0,0.0,0.0,0.0,5.0707,5.0707,5.0707,5.0707,5.0707,5.0707,5.0707,5.0707,5.0707,0.0,0.0,0.0,0.0,0.0,0.0,0.0,0.0,0.0,0.0,5.4876,5.4876,5.5439,5.5708,5.5708,5.5708,5.5708,5.5708,5.5708,0.0,0.0,0.0,0.0,0.0,0.0,0.0,0.0,0.0,0.0,0.0,0.0,0.0,0.0,0.0,0.0,0.0,0.0,0.0,0.0,6.5254,6.498,6.4238,6.3965,6.4512,6.5195,6.5195,6.6055,6.6894,6.6894,6.8047,6.914,6.9375,7.0586,7.168,7.1953,7.1992,7.1992,7.1992,7.1992,7.1894,7.1621,7.0566,6.9726,6.9453,6.8398,6.7598,0.0,0.0,0.0,0.0,0.0,0.0,0.0,6.6894,6.6894,6.6894,6.6894,6.6894,6.6894,6.6894,6.6894,6.6894,6.6894,6.6894,6.6894,6.6894,0.0,0.0,0.0,0.0,0.0,6.6894,6.6894,6.6894,6.6894,6.6894,6.6894,6.6894,6.6894,6.6894,0.0,0.0,0.0,0.0,0.0,0.0,0.0,5.0707,5.0707,5.0707,5.0707,5.0707,5.0707,5.0707,5.0707,5.0707,0.0,0.0,0.0,0.0,0.0,0.0,0.0,0.0,0.0,5.3895,5.4491,5.4491,5.5304,5.5708,5.5708,5.5708,5.5708,5.5708,5.5708,5.5708,0.0,0.0,0.0,0.0,0.0,0.0,5.6651,0.0,0.0,0.0,0.0,0.0,0.0,0.0,0.0,0.0,0.0,0.0,0.0,0.0,6.4961,6.4785,6.4785,6.5195,6.5605,6.5605,6.6269,6.6894,6.6894,6.8222,6.9453,6.9414,7.0781,7.1992,7.1992,7.1992,7.1992,7.1992,7.1992,7.1894,7.1562,7.0566,6.9785,6.9472,0.0,0.0,0.0,0.0,0.0,0.0,0.0,0.0,0.0,6.6894,6.6894,6.6894,6.6894,6.6894,6.6894,6.6894,6.6894,6.6894,6.6894,6.6894,6.6894,6.6894,0.0,0.0,0.0,0.0,0.0,6.6894,6.6894,6.6894,6.6894,6.6894,6.6894,6.6894,6.6894,6.6894,0.0,0.0,0.0,0.0,0.0,0.0,0.0,0.0,5.0707,5.0707,5.0707,5.0707,5.0707,5.0707,5.0707,5.0707,0.0,0.0,0.0,0.0,0.0,0.0,0.0,0.0,5.1813,5.353,5.4414,5.4414,5.5285,5.5708,5.5708,5.5708,5.5708,5.5708,5.5708,5.5708,0.0,0.0,0.0,0.0,0.0,0.0,0.0,0.0,0.0,0.0,0.0,0.0,0.0,0.0,0.0,0.0,0.0,0.0,0.0,0.0,0.0,0.0,0.0,6.5683,6.5683,6.5683,6.6308,6.6914,6.6972,6.8242,0.0,6.9472,7.082,7.1992,7.1992,7.1992,7.1992,7.1992,7.1992,7.1699,7.082,7.0605,0.0,0.0,6.8633,0.0,0.0,0.0,0.0,0.0,0.0,0.0,0.0,6.6894,6.6894,6.6894,6.6894,6.6894,6.6894,6.6894,6.6894,6.6894,6.6894,6.6894,6.6894,6.6894,0.0,0.0,0.0,0.0,0.0,6.6894,6.6894,6.6894,6.6894,6.6894,6.6894,6.6894,6.6894,6.6894,0.0,0.0,0.0,0.0,0.0,0.0,0.0,0.0,0.0,0.0,5.0707,5.0707,5.0707,5.0707,5.0707,0.0,0.0,0.0,0.0,0.0,0.0,0.0,0.0,0.0,5.0976,5.2645,5.351,5.351,5.4972,5.5708,5.5708,5.5708,5.5708,5.5708,5.5708,5.5708,0.0,0.0,0.0,0.0,0.0,0.0,0.0,0.0,0.0,0.0,5.9046,5.9572,0.0,0.0,0.0,0.0,0.0,0.0,0.0,0.0,6.5918,6.6582,6.6582,0.0,6.6582,6.6582,6.6758,6.707,0.0,6.8711,6.9648,7.0273,7.125,7.1992,7.1992,7.1992,7.1992,7.1992,7.1992,7.1699,7.082,6.9609,0.0,6.8535,6.7734,0.0,0.0,0.0,0.0,0.0,0.0,0.0,0.0,6.6894,6.6894,6.6894,6.6894,6.6894,6.6894,6.6894,6.6894,6.6894,6.6894,6.6894,6.6894,6.6894,0.0,0.0,0.0,0.0,6.6894,6.6894,6.6894,6.6894,6.6894,6.6894,6.6894,6.6894,6.6894,6.6894,0.0,0.0,0.0,0.0,0.0,0.0,0.0,0.0,0.0,0.0,0.0,0.0,0.0,0.0,0.0,0.0,0.0,0.0,0.0,0.0,0.0,0.0,0.0,5.0861,5.1241,5.2529,5.3395,5.3799,5.5068,5.5708,5.5708,5.5708,5.5708,5.5708,5.5708,5.5708,0.0,0.0,0.0,0.0,5.5708,0.0,0.0,0.0,0.0,0.0,5.8506,5.9107,0.0,6.1025,6.1699,6.1777,0.0,0.0,0.0,0.0,6.5898,6.6894,6.6894,6.6894,6.6894,6.6894,6.6894,6.7012,6.75,6.8281,6.9121,6.9941,7.0801,7.1523,7.1933,7.168,7.1523,7.1933,7.1328,7.0644,0.0,0.0,6.8652,6.8242,6.7773,0.0,0.0,0.0,0.0,0.0,0.0,0.0,0.0,6.6894,6.6894,6.6894,6.6894,6.6894,6.6894,6.6894,6.6894,6.6894,6.6894,6.6894,6.6894,6.6894,6.6894,0.0,0.0,0.0,6.6894,6.6894,6.6894,6.6894,6.6894,6.6894,6.6894,6.6894,6.6894,6.6894,0.0,0.0,0.0,0.0,0.0,0.0,0.0,0.0,0.0,0.0,0.0,0.0,0.0,0.0,0.0,0.0,0.0,0.0,0.0,0.0,0.0,0.0,0.0,5.126,5.2082,5.2947,5.376,5.4491,5.5304,5.5708,5.5708,5.5708,5.5708,5.5708,5.5708,5.5708,0.0,0.0,0.0,0.0,5.5708,0.0,0.0,0.0,0.0,0.0,0.0,0.0,0.0,6.1025,6.1699,6.1719,6.1855,0.0,0.0,0.0,0.0,0.0,6.6855,6.6894,6.6894,6.6894,6.6894,6.6933,6.707,6.7676,6.8476,6.9414,7.0195,7.0937,7.168,7.1308,7.1094,7.1699,7.0449,0.0,6.9316,6.9199,6.8887,6.8262,0.0,0.0,0.0,0.0,0.0,0.0,0.0,0.0,0.0,6.6894,6.6894,6.6894,6.6894,6.6894,6.6894,6.6894,6.6894,6.6894,6.6894,6.6894,6.6894,6.6894,6.6894,0.0,0.0,0.0,6.6894,6.6894,6.6894,6.6894,6.6894,6.6894,6.6894,6.6894,6.6894,6.6894,0.0,0.0,0.0,0.0,0.0,0.0,0.0,0.0,0.0,0.0,0.0,0.0,0.0,0.0,0.0,0.0,0.0,0.0,0.0,0.0,0.0,5.2779,5.2101,5.212,5.2986,5.3857,5.4376,5.4491,5.5304,5.5708,5.5708,5.5708,5.5708,5.5708,5.5708,5.5708,5.5708,0.0,0.0,0.0,0.0,0.0,0.0,0.0,0.0,0.0,0.0,0.0,0.0,6.1025,6.1699,6.1836,6.2578,0.0,0.0,0.0,0.0,0.0,6.6699,6.6894,6.6894,6.6894,6.6894,6.709,6.7832,6.8105,6.8633,7.0176,7.0605,7.0742,7.0879,7.1387,7.1601,7.0996,0.0,6.918,0.0,0.0,6.7519,0.0,0.0,0.0,0.0,0.0,0.0,0.0,0.0,0.0,0.0,6.6894,6.6894,6.6894,6.6894,6.6894,6.6894,6.6894,6.6894,6.6894,6.6894,6.6894,6.6894,6.6894,6.6894,0.0,0.0,6.6894,6.6894,6.6894,6.6894,6.6894,6.6894,6.6894,6.6894,6.6894,6.6894,6.6894,0.0,0.0,0.0,0.0,0.0,0.0,0.0,0.0,0.0,0.0,0.0,0.0,0.0,0.0,0.0,0.0,0.0,0.0,0.0,0.0,5.2986,5.3857,5.353,5.3491,5.3895,5.428,5.4703,5.5151,5.5516,5.5708,5.5708,5.5708,5.5708,5.5708,5.5708,5.5708,5.5708,5.5708,0.0,0.0,0.0,0.0,0.0,0.0,0.0,0.0,0.0,0.0,0.0,0.0,6.1699,6.1777,6.2168,0.0,0.0,0.0,0.0,0.0,6.5957,6.6191,6.6308,6.6777,6.6894,6.6992,6.7402,6.75,6.7851,6.9082,6.9355,6.9472,6.9922,6.9961,6.9668,6.8789,0.0,6.9121,6.8301,6.8222,0.0,0.0,0.0,0.0,0.0,0.0,0.0,0.0,0.0,0.0,0.0,0.0,6.6894,6.6894,6.6894,6.6894,6.6894,6.6894,6.6894,6.6894,6.6894,6.6894,6.6894,6.6894,6.6894,6.6894,0.0,6.6894,6.6894,6.6894,6.6894,6.6894,6.6894,6.6894,6.6894,6.6894,6.6894,6.6894,0.0,0.0,0.0,0.0,0.0,0.0,0.0,0.0,0.0,0.0,0.0,0.0,0.0,0.0,0.0,0.0,0.0,0.0,0.0,0.0,5.3895,5.4741,5.478,5.478,5.478,5.478,5.5068,5.5708,5.5708,5.5708,5.5708,5.5708,5.5708,5.5708,5.5708,5.5708,5.5708,5.5708,5.5708,0.0,0.0,0.0,0.0,0.0,0.0,0.0,0.0,0.0,0.0,0.0,0.0,0.0,0.0,0.0,0.0,6.2949,6.3476,6.4238,6.5312,6.5605,6.5801,6.668,6.6894,6.6894,6.6894,6.6894,6.7148,6.8027,6.8203,6.8457,6.9258,6.8906,6.8262,6.7598,6.8398,6.8828,6.8008,0.0,0.0,0.0,0.0,0.0,0.0,0.0,0.0,0.0,0.0,0.0,0.0,0.0,6.6894,6.6894,6.6894,6.6894,6.6894,6.6894,6.6894,6.6894,6.6894,6.6894,6.6894,6.6894,6.6894,6.6894,6.6894,6.6894,6.6894,6.6894,6.6894,6.6894,6.6894,6.6894,6.6894,6.6894,6.6894,6.6894,0.0,0.0,0.0,0.0,0.0,0.0,0.0,0.0,0.0,0.0,0.0,0.0,0.0,0.0,0.0,0.0,0.0,0.0,0.0,0.0,5.4761,5.5574,5.5612,5.5612,5.5612,5.5612,5.5651,5.5708,5.5708,5.5708,5.5708,5.5708,5.5708,5.5708,5.5708,5.5708,5.5708,5.5708,5.5708,5.5708,0.0,0.0,0.0,0.0,0.0,0.0,0.0,0.0,0.0,0.0,0.0,0.0,0.0,0.0,6.1953,6.2754,6.3047,6.3457,6.5137,6.5605,6.5801,6.668,6.6894,6.6894,6.6894,6.6894,6.7148,6.8027,6.8203,6.8457,6.9258,6.9355,6.9297,6.9238,6.8691,6.7988,0.0,0.0,0.0,0.0,0.0,0.0,0.0,0.0,0.0,0.0,0.0,0.0,0.0,0.0,0.0,6.6894,6.6894,6.6894,6.6894,6.6894,6.6894,6.6894,6.6894,6.6894,6.6894,6.6894,6.6894,6.6894,6.6894,6.6894,6.6894,6.6894,6.6894,6.6894,6.6894,6.6894,6.6894,6.6894,6.6894,6.6894,0.0,0.0,0.0,0.0,0.0,0.0,0.0,0.0,0.0,0.0,0.0,0.0,0.0,0.0,0.0,0.0,0.0,0.0,0.0,5.4972,5.5381,5.5689,5.5708,5.5708,5.5708,5.5708,5.5708,5.5708,5.5708,5.5708,5.5708,5.5708,5.5708,5.5708,5.5708,5.5708,5.5708,5.5708,5.5708,5.5708,5.5708,0.0,0.0,0.0,0.0,0.0,0.0,0.0,0.0,0.0,6.1583,6.1472,6.1656,6.1582,6.1552,6.2047,6.2123,6.2464,6.4296,6.4785,6.5137,6.6543,6.6894,6.6894,6.6894,6.6894,6.6992,6.7324,6.7383,6.7656,6.8496,6.8203,6.8027,6.8574,6.7949,6.7285,0.0,0.0,0.0,0.0,0.0,0.0,0.0,0.0,0.0,0.0,0.0,0.0,0.0,0.0,0.0,6.6894,6.6894,6.6894,6.6894,6.6894,6.6894,6.6894,6.6894,6.6894,6.6894,6.6894,6.6894,6.6894,6.6894,6.6894,6.6894,6.6894,6.6894,6.6894,6.6894,6.6894,6.6894,6.6894,6.6894,6.6894,0.0,0.0,0.0,0.0,0.0,0.0,0.0,0.0,0.0,0.0,0.0,0.0,0.0,0.0,0.0,0.0,0.0,0.0,5.4857,5.5401,5.5708,5.5708,5.5708,5.5708,5.5708,5.5708,5.5708,5.5708,5.5708,5.5708,5.5708,5.5708,5.5708,5.5708,5.5708,5.5708,5.5708,5.5708,5.5708,5.5708,5.5708,5.5708,0.0,0.0,0.0,0.0,0.0,0.0,0.0,0.0,6.1451,6.1323,6.1512,6.1449,6.1345,6.1515,6.1543,6.1905,6.3739,6.4276,6.4726,6.6465,6.6894,6.6894,6.6894,6.6894,6.6894,6.6894,6.7129,6.748,6.8086,6.7715,0.0,0.0,6.7461,0.0,0.0,0.0,0.0,0.0,0.0,0.0,0.0,0.0,0.0,0.0,0.0,0.0,0.0,0.0,0.0,0.0,6.6894,6.6894,6.6894,6.6894,6.6894,6.6894,6.6894,6.6894,6.6894,6.6894,6.6894,6.6894,6.6894,6.6894,6.6894,6.6894,6.6894,6.6894,6.6894,6.6894,6.6894,6.6894,6.6894,6.6894,0.0,0.0,0.0,0.0,0.0,0.0,0.0,0.0,0.0,0.0,0.0,0.0,0.0,0.0,0.0,0.0,0.0,0.0,5.5651,5.5708,5.5708,5.5708,5.5708,5.5708,5.5708,5.5708,5.5708,5.5708,5.5708,5.5708,5.5708,5.5708,5.5708,5.5708,5.5708,5.5708,5.5708,5.5708,5.5708,5.5708,5.5708,5.5708,0.0,0.0,0.0,0.0,0.0,0.0,0.0,0.0,6.1303,6.1303,6.1306,6.1303,6.1303,6.1306,6.1402,6.1893,6.3632,6.4203,6.4726,6.6465,6.6894,6.6894,6.6894,6.6894,6.6894,6.6894,6.7598,6.8183,6.8203,6.8183,0.0,0.0,0.0,0.0,0.0,0.0,0.0,0.0,0.0,0.0,0.0,0.0,0.0,0.0,0.0,0.0,0.0,0.0,0.0,0.0,6.6894,6.6894,6.6894,6.6894,6.6894,6.6894,6.6894,6.6894,6.6894,6.6894,6.6894,6.6894,6.6894,6.6894,6.6894,6.6894,6.6894,6.6894,6.6894,6.6894,6.6894,6.6894,6.6894,6.6894,0.0,0.0,0.0,0.0,0.0,0.0,0.0,0.0,0.0,0.0,0.0,0.0,0.0,0.0,0.0,0.0,0.0,0.0,5.5689,5.5708,5.5708,5.5708,5.5708,5.5708,5.5708,5.5708,5.5708,5.5708,5.5708,5.5708,5.5708,5.5708,5.5708,5.5708,5.5708,5.5708,5.5708,5.5708,5.5708,5.5708,5.5708,5.6074,5.6632,0.0,0.0,0.0,0.0,0.0,0.0,0.0,0.0,0.0,6.123,6.1132,6.0993,6.1237,6.1665,6.2334,6.3567,6.4421,6.5261,6.6414,6.6808,6.6894,6.6894,6.6894,6.6894,6.6894,6.7109,6.7461,6.8086,6.7695,0.0,0.0,0.0,0.0,0.0,0.0,0.0,0.0,0.0,0.0,0.0,0.0,0.0,0.0,0.0,0.0,0.0,0.0,0.0,0.0,6.6894,6.6894,6.6894,6.6894,6.6894,6.6894,6.6894,6.6894,6.6894,6.6894,6.6894,6.6894,6.6894,6.6894,6.6894,6.6894,6.6894,6.6894,6.6894,6.6894,6.6894,6.6894,6.6894,6.6894,0.0,0.0,0.0,0.0,0.0,0.0,0.0,0.0,0.0,0.0,5.1179,5.1573,0.0,0.0,0.0,0.0,0.0,0.0,0.0,5.5708,5.5708,5.5708,5.5708,5.5708,5.5708,5.5708,5.5708,5.5708,5.5708,5.5708,5.5708,5.5708,5.5708,5.5708,5.5708,5.5708,5.5728,5.6074,5.6228,5.6247,5.6588,5.7049,5.7555,0.0,0.0,0.0,0.0,0.0,0.0,0.0,0.0,0.0,6.1037,6.0964,6.0839,6.1112,6.1779,6.2644,6.3656,6.465,6.5621,6.65,6.6811,6.6894,6.6894,6.6894,6.6894,6.6894,6.6894,6.7051,6.7598,6.7246,0.0,0.0,0.0,0.0,0.0,0.0,0.0,0.0,0.0,0.0,0.0,0.0,0.0,0.0,0.0,0.0,0.0,0.0,0.0,0.0,6.6894,6.6894,6.6894,6.6894,6.6894,6.6894,6.6894,6.6894,6.6894,6.6894,6.6894,6.6894,6.6894,6.6894,6.6894,6.6894,6.6894,6.6894,6.6894,6.6894,6.6894,6.6894,6.6894,6.6894,0.0,0.0,0.0,0.0,0.0,0.0,0.0,0.0,0.0,0.0,5.1487,5.2236,0.0,0.0,0.0,0.0,0.0,0.0,0.0,0.0,5.5708,5.5708,5.5708,5.5708,5.5708,5.5708,5.5708,5.5708,5.5708,5.5708,5.5708,5.5708,5.5708,5.5708,5.5785,5.5824,5.5882,5.6747,5.7113,5.719,5.7973,5.8333,5.8486,5.9223,0.0,0.0,0.0,0.0,0.0,0.0,0.0,0.0,6.0806,6.0806,6.0819,6.094,6.1791,6.2883,6.3801,6.4859,6.5878,6.6679,6.6894,6.6894,6.6894,6.6894,6.6894,6.6894,6.6894,6.6894,6.6894,6.6894,0.0,0.0,0.0,0.0,0.0,0.0,0.0,0.0,0.0,0.0,0.0,0.0,0.0,0.0,0.0,0.0,0.0,0.0,0.0,6.6894,6.6894,6.6894,6.6894,6.6894,6.6894,0.0,6.6894,6.6894,6.6894,6.6894,6.6894,6.6894,6.6894,6.6894,6.6894,6.6894,6.6894,6.6894,6.6894,6.6894,6.6894,6.6894,6.6894,6.6894,0.0,0.0,0.0,0.0,0.0,0.0,0.0,0.0,0.0,0.0,0.0,0.0,0.0,0.0,0.0,0.0,0.0,0.0,0.0,0.0,5.5708,5.5708,5.5708,5.5708,5.5708,5.5708,5.5708,5.5708,5.5708,5.5708,5.5708,5.5708,5.5708,5.5728,5.642,5.6709,5.6786,5.7646,5.803,5.805,5.8223,5.8684,5.9261,5.9435,0.0,0.0,0.0,0.0,0.0,0.0,0.0,0.0,6.0806,6.0806,6.0818,6.0828,6.2051,6.3436,6.3654,6.5024,6.6425,6.6621,6.6787,6.6894,6.6894,6.6894,6.6894,6.6894,6.6894,6.6894,6.6894,6.6894,0.0,0.0,0.0,0.0,0.0,0.0,0.0,0.0,0.0,0.0,0.0,0.0,0.0,0.0,0.0,0.0,0.0,0.0,0.0,6.6894,6.6894,6.6894,6.6894,6.6894,6.6894,0.0,6.6894,6.6894,6.6894,6.6894,6.6894,6.6894,6.6894,6.6894,6.6894,6.6894,6.6894,6.6894,6.6894,6.6894,6.6894,6.6894,6.6894,6.6894,0.0,0.0,0.0,0.0,0.0,0.0,0.0,0.0,0.0,0.0,0.0,0.0,0.0,0.0,0.0,0.0,0.0,0.0,0.0,0.0,5.5708,5.5708,5.5708,5.5708,5.5708,5.5708,5.5708,5.5708,5.6112,5.6112,5.5708,5.6132,5.6324,5.6362,5.7228,5.7613,5.769,5.8511,5.8871,5.8915,5.9338,5.9742,6.0127,6.0127,6.0396,0.0,6.0806,0.0,0.0,0.0,0.0,0.0,0.0,0.0,6.0816,6.0876,6.1877,6.3096,6.3674,6.49,6.614,6.6618,6.6812,6.6894,6.6894,6.6894,6.6894,6.6894,6.6894,6.6894,6.6894,0.0,0.0,0.0,0.0,0.0,0.0,0.0,0.0,0.0,0.0,0.0,0.0,0.0,0.0,0.0,0.0,0.0,0.0,6.6894,6.6894,6.6894,6.6894,6.6894,6.6894,6.6894,6.6894,6.6894,6.6894,6.6894,6.6894,6.6894,6.6894,6.6894,6.6894,6.6894,6.6894,6.6894,6.6894,6.6894,6.6894,6.6894,6.6894,6.6894,6.6894,6.6894,0.0,0.0,0.0,0.0,0.0,0.0,0.0,0.0,0.0,0.0,0.0,0.0,0.0,0.0,0.0,0.0,0.0,0.0,0.0,0.0,0.0,5.5708,5.5708,5.5708,5.5708,5.5843,5.592,5.592,5.6805,5.6863,5.6165,5.6882,5.7228,5.7267,5.8127,5.8511,5.8569,5.9377,5.9723,5.9781,6.0512,6.0806,6.0806,6.0806,6.0806,6.0806,6.0806,6.0806,6.0806,6.0806,0.0,0.0,0.0,0.0,6.0814,6.0935,6.1599,6.2556,6.3692,6.4783,6.5819,6.6678,6.6894,6.6894,6.6894,6.6894,6.6894,6.6894,6.6894,6.6894,0.0,0.0,0.0,0.0,0.0,0.0,0.0,0.0,0.0,0.0,0.0,0.0,0.0,0.0,0.0,0.0,0.0,0.0,6.6894,6.6894,6.6894,6.6894,6.6894,6.6894,6.6894,6.6894,6.6894,6.6894,6.6894,6.6894,6.6894,6.6894,6.6894,6.6894,6.6894,6.6894,6.6894,6.6894,6.6894,6.6894,6.6894,6.6894,6.6894,6.6894,6.6894,6.6894,0.0,0.0,0.0,0.0,0.0,0.0,0.0,0.0,0.0,0.0,5.3313,5.4376,0.0,0.0,0.0,0.0,0.0,0.0,0.0,0.0,0.0,5.5708,5.5708,5.5708,5.5708,5.6439,5.6824,5.6824,5.7703,5.8069,5.7953,5.8069,5.8127,5.8165,5.8973,5.9338,5.9396,6.0262,6.0633,6.0633,6.0748,6.0806,6.0806,6.0806,6.0806,6.0806,6.0806,6.0806,6.0806,6.0806,6.0806,0.0,0.0,0.0,6.0793,6.0814,6.1538,6.2504,6.3427,6.5022,6.6519,6.6815,6.6894,6.6894,6.6894,6.6894,6.6894,0.0,6.6894,6.6894,0.0,0.0,0.0,0.0,0.0,0.0,0.0,0.0,0.0,0.0,0.0,0.0,0.0,0.0,0.0,0.0,0.0,0.0,6.6894,6.6894,6.6894,6.6894,6.6894,6.6894,6.6894,6.6894,6.6894,6.6894,6.6894,6.6894,6.6894,6.6894,6.6894,6.6894,6.6894,6.6894,6.6894,6.6894,6.6894,6.6894,6.6894,6.6894,6.6894,6.6894,6.6894,6.6894,0.0,0.0,0.0,0.0,0.0,0.0,0.0,0.0,0.0,0.0,0.0,5.4664,0.0,0.0,0.0,0.0,0.0,0.0,0.0,0.0,0.0,5.6401,5.642,5.667,5.7146,5.753,5.7723,5.7723,5.8569,5.8973,5.8973,5.9473,5.9435,5.9011,5.9858,6.0223,6.0242,6.0633,6.0806,6.0806,6.0806,6.0806,6.0806,6.0806,6.0806,6.0806,6.0806,6.0806,6.0806,6.0806,6.0806,6.0806,6.0806,0.0,0.0,0.0,6.112,6.1779,6.3216,6.5014,6.65,6.661,6.662,6.6634,6.6712,6.6738,6.6764,6.6874,6.6894,0.0,0.0,0.0,0.0,0.0,0.0,0.0,0.0,0.0,0.0,0.0,0.0,0.0,0.0,0.0,0.0,0.0,0.0,6.6894,6.6894,6.6894,6.6894,6.6894,6.6894,6.6894,6.6894,6.6894,6.6894,6.6894,6.6894,6.6894,6.6894,6.6894,6.6894,6.6894,6.6894,6.6894,6.6894,6.6894,6.6894,6.6894,6.6894,6.6894,6.6894,6.6894,6.6894,6.6894,0.0,0.0,0.0,0.0,0.0,0.0,0.0,0.0,0.0,0.0,0.0,0.0,0.0,0.0,0.0,0.0,0.0,0.0,0.0,0.0,0.0,5.7286,5.7324,5.7627,5.8294,5.8511,5.8602,5.8602,5.9435,5.9838,5.9838,6.0498,6.0454,5.9858,6.0512,6.0806,6.0806,6.0806,6.0806,6.0806,6.0806,6.0806,6.0806,6.0806,6.0806,6.0806,6.0806,6.0806,0.0,0.0,0.0,0.0,6.0806,6.0806,0.0,0.0,0.0,6.1491,6.3149,6.4772,6.6061,6.6338,6.6406,6.644,6.6523,6.6541,6.6608,0.0,6.6812,0.0,0.0,0.0,0.0,0.0,0.0,0.0,0.0,0.0,0.0,0.0,0.0,0.0,0.0,0.0,0.0,0.0,0.0,6.6894,6.6894,6.6894,6.6894,6.6894,6.6894,6.6894,6.6894,6.6894,6.6894,6.6894,6.6894,6.6894,6.6894,6.6894,6.6894,6.6894,6.6894,6.6894,6.6894,6.6894,6.6894,6.6894,6.6894,6.6894,6.6894,6.6894,6.6894,6.6894,0.0,0.0,0.0,0.0,0.0,0.0,0.0,0.0,0.0,0.0,0.0,0.0,5.5708,5.5708,5.5708,5.5708,5.5708,0.0,0.0,0.0,0.0,5.8179,5.8223,0.0,5.8294,5.905,5.9435,5.9435,6.03,6.0729,6.0729,6.0787,6.0787,6.0729,6.0787,6.0806,6.0806,6.0806,6.0806,6.0806,6.0806,6.0806,6.0806,6.0806,6.0806,6.0806,6.0806,0.0,0.0,0.0,0.0,0.0,0.0,0.0,6.0806,0.0,0.0,0.0,6.3303,6.423,6.5121,6.6153,6.6406,6.6409,6.6419,6.6399,6.6446,6.6585,0.0,0.0,0.0,0.0,0.0,0.0,0.0,0.0,0.0,0.0,0.0,0.0,0.0,0.0,0.0,0.0,0.0,0.0,0.0,6.6894,6.6894,6.6894,6.6894,6.6894,6.6894,6.6894,6.6894,6.6894,6.6894,6.6894,6.6894,6.6894,6.6894,6.6894,6.6894,6.6894,6.6894,6.6894,6.6894,6.6894,6.6894,6.6894,6.6894,6.6894,6.6894,6.6894,6.6894,6.6894,0.0,0.0,0.0,0.0,0.0,0.0,0.0,0.0,0.0,0.0,0.0,0.0,0.0,5.5708,5.5708,5.5708,5.6209,0.0,0.0,0.0,0.0,5.9031,5.9069,5.9338,5.9896,6.0185,6.0319,6.0319,6.0646,6.0806,6.0806,6.0806,6.0806,6.0806,6.0806,6.0806,6.0806,6.0806,6.0806,6.0806,6.0806,6.0806,6.0806,6.0806,6.0806,0.0,0.0,0.0,0.0,0.0,0.0,0.0,0.0,0.0,0.0,6.0806,6.1422,6.2298,6.3171,6.4029,6.49,6.5838,6.6077,6.6104,6.6185,6.6219,6.626,6.6441,0.0,0.0,0.0,0.0,0.0,0.0,0.0,0.0,0.0,0.0,0.0,0.0,0.0,0.0,0.0,0.0,0.0,0.0,0.0,0.0,6.6894,6.6894,6.6894,6.6894,6.6894,6.6894,6.6894,6.6894,6.6894,6.6894,6.6894,6.6894,6.6894,6.6894,6.6894,6.6894,6.6894,6.6894,6.6894,6.6894,6.6894,6.6894,6.6894,6.6894,6.6894,6.6894,6.6894,6.6894,0.0,0.0,0.0,0.0,0.0,0.0,0.0,0.0,0.0,5.5631,0.0,0.0,0.0,0.0,5.5824,5.6112,5.694,5.78,5.864,5.8698,5.9069,5.9896,5.9935,6.0204,6.0787,6.0806,6.0806,6.0806,6.0806,6.0806,6.0806,6.0806,6.0806,6.0806,6.0806,6.0806,6.0806,6.0806,6.0806,6.0806,6.0806,6.0806,6.0806,6.0806,0.0,0.0,0.0,0.0,0.0,0.0,0.0,0.0,0.0,0.0,0.0,0.0,6.121,6.1903,6.3006,6.3718,6.4436,6.5609,6.5904,6.5921,6.6008,6.6032,6.607,6.6252,0.0,0.0,0.0,0.0,0.0,0.0,0.0,0.0,0.0,0.0,0.0,0.0,0.0,0.0,0.0,0.0,0.0,0.0,0.0,0.0,6.6894,6.6894,6.6894,6.6894,6.6894,6.6894,6.6894,6.6894,6.6894,6.6894,6.6894,6.6894,6.6894,6.6894,6.6894,6.6894,6.6894,6.6894,6.6894,6.6894,6.6894,6.6894,6.6894,6.6894,6.6894,6.6894,6.6894,6.6894,0.0,0.0,0.0,0.0,0.0,0.0,0.0,0.0,5.5708,5.5708,0.0,0.0,0.0,0.0,0.0,5.7003,5.7857,5.8684,5.9492,5.955,5.9915,6.0768,0.0,0.0,6.0806,6.0806,6.0806,6.0806,6.0806,6.0806,6.0806,6.0806,6.0806,6.0806,6.0806,6.0806,6.0806,6.0806,6.0806,6.0806,6.0806,6.0806,6.0806,0.0,0.0,0.0,6.0806,6.0806,0.0,6.0806,0.0,0.0,0.0,0.0,0.0,0.0,0.0,6.1166,0.0,0.0,0.0,6.5436,6.5865,6.5859,6.5878,0.0,6.5932,6.6065,0.0,0.0,0.0,0.0,0.0,0.0,0.0,0.0,0.0,0.0,0.0,0.0,0.0,0.0,0.0,0.0,0.0,0.0,0.0,6.6894,6.6894,6.6894,6.6894,6.6894,6.6894,6.6894,6.6894,6.6894,6.6894,6.6894,6.6894,6.6894,6.6894,6.6894,6.6894,6.6894,6.6894,6.6894,6.6894,6.6894,6.6894,6.6894,6.6894,6.6894,6.6894,6.6894,6.6894,6.6894,0.0,0.0,0.0,0.0,0.0,0.0,5.5285,5.5555,5.5708,0.0,0.0,0.0,5.5708,5.6266,5.7228,5.8684,5.9031,5.9531,6.0377,6.0441,6.055,6.0787,6.0806,6.0806,6.0806,6.0806,6.0806,6.0806,6.0806,6.0806,6.0806,6.0806,6.0806,6.0806,6.0806,6.0806,6.0806,6.0806,6.0806,6.0806,6.0806,6.0806,0.0,0.0,0.0,0.0,0.0,6.0806,6.0806,0.0,6.0806,6.0806,0.0,0.0,0.0,0.0,0.0,0.0,6.2133,0.0,0.0,0.0,0.0,0.0,0.0,0.0,6.591,6.5956,0.0,0.0,0.0,0.0,0.0,0.0,0.0,0.0,0.0,0.0,0.0,0.0,0.0,0.0,0.0,0.0,0.0,0.0,6.6894,6.6894,6.6894,6.6894,6.6894,6.6894,6.6894,6.6894,6.6894,6.6894,6.6894,6.6894,6.6894,6.6894,6.6894,6.6894,6.6894,6.6894,6.6894,6.6894,6.6894,6.6894,6.6894,6.6894,6.6894,6.6894,6.6894,6.6894,6.6894,6.6894,0.0,0.0,0.0,0.0,0.0,5.517,5.5631,5.5708,5.5708,0.0,0.0,0.0,5.6742,5.753,5.8434,5.9415,5.9838,6.0262,6.0768,6.0806,6.0806,6.0806,6.0806,6.0806,6.0806,6.0806,6.0806,6.0806,6.0806,6.0806,6.0806,6.0806,6.0806,6.0806,6.0806,6.0806,6.0806,6.0806,6.0806,6.0806,6.0806,0.0,0.0,6.0806,6.0806,0.0,0.0,0.0,6.0806,6.0806,6.0806,0.0,0.0,0.0,0.0,0.0,0.0,0.0,0.0,6.2095,6.2422,0.0,0.0,0.0,6.5243,6.5628,6.5904,0.0,0.0,0.0,0.0,0.0,0.0,0.0,0.0,0.0,0.0,0.0,0.0,0.0,0.0,0.0,0.0,0.0,0.0,6.6894,6.6894,6.6894,6.6894,6.6894,6.6894,6.6894,6.6894,6.6894,6.6894,6.6894,6.6894,6.6894,6.6894,6.6894,6.6894,6.6894,6.6894,6.6894,6.6894,6.6894,6.6894,6.6894,6.6894,6.6894,6.6894,6.6894,6.6894,6.6894,6.6894,6.6894,0.0,0.0,5.4626,5.4626,5.5228,5.5708,5.5708,5.5708,5.5728,0.0,5.6593,5.7478,5.8338,5.9069,5.955,5.9646,6.0339,6.0806,6.0806,6.0806,6.0806,6.0806,6.0806,6.0806,6.0806,6.0806,6.0806,6.0806,6.0806,6.0806,6.0806,6.0806,6.0806,6.0806,6.0806,6.0806,6.0806,6.0806,6.0806,6.0806,6.0806,6.0806,0.0,0.0,6.0806,6.0806,6.0806,6.0806,6.0806,6.0806,6.0864,0.0,0.0,0.0,0.0,0.0,6.0864,0.0,0.0,0.0,0.0,0.0,0.0,0.0,6.4705,6.534,6.5904,0.0,0.0,0.0,0.0,0.0,0.0,0.0,0.0,0.0,0.0,0.0,0.0,0.0,0.0,0.0,0.0,6.6894,6.6894,6.6894,6.6894,6.6894,6.6894,6.6894,6.6894,6.6894,6.6894,6.6894,6.6894,6.6894,6.6894,6.6894,6.6894,6.6894,6.6894,6.6894,6.6894,6.6894,6.6894,6.6894,6.6894,6.6894,6.6894,6.6894,6.6894,6.6894,6.6894,6.6894,6.6894,6.6894,0.0,5.5343,5.5478,5.5478,5.5593,5.5708,5.5708,5.5708,5.5958,5.6651,5.7517,5.8357,5.9184,5.9415,5.9781,6.0492,6.071,6.0806,6.0806,6.0806,6.0806,6.0806,6.0806,6.0806,6.0806,6.0806,6.0806,6.0806,6.0806,6.0806,6.0806,6.0806,6.0806,6.0806,6.0806,6.0806,6.0806,6.0806,6.0806,6.0806,6.0806,0.0,6.0806,6.0806,6.0806,6.0806,6.0806,6.0806,6.0806,6.0806,6.1268,6.171,0.0,0.0,0.0,0.0,0.0,0.0,0.0,0.0,0.0,0.0,0.0,0.0,6.532,6.5788,6.5904,0.0,0.0,0.0,0.0,0.0,0.0,0.0,0.0,0.0,0.0,0.0,0.0,0.0,0.0,0.0,0.0,6.6894,6.6894,6.6894,6.6894,6.6894,6.6894,6.6894,6.6894,6.6894,6.6894,6.6894,6.6894,6.6894,6.6894,6.6894,6.6894,6.6894,6.6894,6.6894,6.6894,6.6894,6.6894,6.6894,6.6894,6.6894,6.6894,6.6894,6.6894,6.6894,6.6894,6.6894,6.6894,6.6894,5.5612,5.5708,5.5708,5.5708,5.5708,5.5708,5.5708,5.6074,5.6516,5.6945,5.8113,5.9223,6.0069,6.0146,6.0319,6.0768,6.0806,6.0806,6.0806,6.0806,6.0806,6.0806,6.0806,6.0806,6.0806,6.0806,6.0806,6.0806,6.0806,6.0806,6.0806,6.0806,6.0806,6.0806,6.0806,6.0806,6.0806,6.0806,6.0806,6.0806,6.0806,0.0,6.0806,6.0806,6.0806,6.0864,6.1287,6.171,6.205,6.205,6.207,0.0,0.0,6.2358,6.2531,0.0,6.1768,6.1903,0.0,0.0,0.0,6.1839,0.0,0.0,0.0,6.5282,6.5904,6.5904,6.5904,6.5904,6.5904,0.0,0.0,0.0,0.0,0.0,0.0,0.0,0.0,0.0,0.0,0.0,0.0,6.6894,6.6894,6.6894,6.6894,6.6894,6.6894,6.6894,6.6894,6.6894,6.6894,6.6894,6.6894,6.6894,6.6894,6.6894,6.6894,6.6894,6.6894,6.6894,6.6894,6.6894,6.6894,6.6894,6.6894,6.6894,6.6894,6.6894,6.6894,6.6894,6.6894,6.6894,6.6894,6.6894,5.5708,5.5843,5.5958,5.5958,5.6093,5.6203,5.6203,5.6805,5.7305,5.7459,5.8805,6.0012,6.0723,6.0806,6.0806,6.0806,6.0806,6.0806,6.0806,6.0806,6.0806,6.0806,6.0806,6.0806,6.0806,6.0806,6.0806,6.0806,6.0806,6.0806,6.0806,6.0806,6.0806,6.0806,6.0806,6.0806,6.0806,6.0806,6.0902,6.1056,0.0,6.1056,6.1075,6.1223,6.1281,6.1377,6.2076,6.2743,6.3275,6.3121,6.2743,6.2383,6.2724,6.2704,0.0,0.0,0.0,0.0,0.0,0.0,0.0,0.0,0.0,6.3102,0.0,0.0,0.0,6.5397,6.5397,6.5397,6.5397,0.0,0.0,0.0,0.0,0.0,0.0,0.0,0.0,0.0,0.0,0.0,0.0,6.6874,6.6894,6.6894,6.6894,6.6894,6.6894,6.6894,6.6894,6.6894,6.6894,6.6894,6.6894,6.6894,6.6894,6.6894,6.6894,6.6894,6.6894,6.6894,6.6894,6.6894,6.6894,6.6894,6.6894,6.6894,6.6894,6.6894,6.6894,6.6894,6.6894,6.6894,6.6894,6.6894,5.5708,5.6324,5.6843,5.6843,5.7497,5.8011,5.8011,5.8083,5.8415,5.9127,6.005,6.0691,6.0787,6.0806,6.0806,6.0806,6.0806,0.0,6.0806,0.0,6.0806,6.0806,6.0806,6.0806,6.0806,6.0806,6.0806,6.0806,6.0806,6.0806,6.0806,6.0806,6.0806,6.0806,6.0806,6.0806,6.0806,6.0806,6.1248,0.0,6.1941,6.1941,0.0,6.2743,6.3025,6.3025,6.3121,6.3218,6.3179,0.0,6.2647,6.291,0.0,6.257,6.3878,0.0,0.0,0.0,0.0,0.0,0.0,0.0,6.2095,0.0,0.0,0.0,6.3602,6.3602,0.0,6.3602,6.3602,0.0,0.0,0.0,0.0,0.0,0.0,0.0,0.0,0.0,0.0,0.0,0.0,0.0,6.6894,6.6894,6.6894,6.6894,6.6894,6.6894,6.6894,6.6894,6.6894,6.6894,6.6894,6.6894,6.6894,6.6894,6.6894,6.6894,6.6894,6.6894,6.6894,6.6894,6.6894,6.6894,6.6894,6.6894,6.6894,6.6894,6.6894,6.6894,6.6894,6.6894,6.6894,6.6894,5.6439,5.6747,5.7151,5.7671,5.8069,5.8294,5.8294,5.8698,5.93,6.0146,6.0569,6.0806,6.0806,6.0806,6.0806,6.0806,0.0,6.0806,0.0,0.0,6.0806,6.0806,0.0,0.0,6.0806,6.0806,6.0806,6.0806,6.0806,6.0806,6.0806,6.0806,6.0806,6.0806,6.0806,6.1075,6.1556,0.0,6.2037,0.0,0.0,0.0,0.0,6.3352,6.3602,6.4045,6.4045,6.4378,6.4762,0.0,6.3858,0.0,0.0,0.0,0.0,0.0,0.0,0.0,0.0,0.0,0.0,0.0,0.0,0.0,6.2627,0.0,6.3295,0.0,0.0,0.0,0.0,0.0,0.0,0.0,6.3369,0.0,0.0,0.0,0.0,0.0,0.0,0.0,0.0,0.0,0.0,0.0,0.0,6.6894,6.6894,6.6894,6.6894,6.6894,6.6894,6.6894,6.6894,6.6894,6.6894,6.6894,6.6894,6.6894,6.6894,6.6894,6.6894,6.6894,6.6894,6.6894,6.6894,6.6894,6.6894,6.6894,6.6894,6.6894,6.6894,6.6894,6.6894,6.6894,5.7632,5.769,5.7882,5.8531,5.8833,5.8992,5.8992,5.9473,6.0089,6.0723,6.0806,6.0806,6.0806,6.0806,0.0,0.0,6.0806,6.0806,0.0,0.0,6.0806,0.0,0.0,0.0,0.0,0.0,6.0806,6.0806,6.0806,6.0806,6.0806,6.0806,6.0806,6.0806,6.1056,6.1518,6.2114,0.0,6.2897,6.3718,6.4359,6.4743,6.4897,6.4256,6.4416,6.4955,6.4955,6.5359,6.5865,6.5609,6.4705,0.0,6.4859,0.0,0.0,0.0,0.0,0.0,6.146,0.0,0.0,0.0,0.0,0.0,0.0,0.0,0.0,0.0,0.0,0.0,0.0,0.0,6.2602,0.0,0.0,6.2602,0.0,0.0,0.0,0.0,0.0,0.0,0.0,0.0,0.0,0.0,0.0,0.0,6.6894,6.6894,6.6894,6.6894,6.6894,6.6894,6.6894,6.6894,6.6894,6.6894,6.6894,6.6894,6.6894,6.6894,6.6894,6.6894,6.6894,6.6894,6.6894,6.6894,6.6894,6.6894,6.6894,6.6894,6.6894,6.6894,6.6894,6.6894,5.9281,5.9415,5.9435,5.9454,6.0165,6.0723,6.0723,6.0748,6.0762,6.0806,6.0806,0.0,0.0,0.0,0.0,0.0,0.0,6.0806,6.0806,0.0,6.0806,0.0,0.0,6.0806,0.0,0.0,0.0,6.0806,6.0806,6.0806,6.0806,6.0806,6.0806,6.0845,6.1672,6.2076,6.2153,6.2935,6.3756,6.457,6.4589,6.5109,6.5865,0.0,6.582,6.5865,6.5865,0.0,0.0,6.4936,6.4609,0.0,0.0,0.0,0.0,0.0,0.0,0.0,0.0,0.0,0.0,6.1018,0.0,0.0,0.0,0.0,6.0877,0.0,0.0,0.0,0.0,6.0877,6.0877,0.0,0.0,0.0,0.0,0.0,0.0,0.0,0.0,0.0,0.0,0.0,0.0,0.0,0.0,0.0,6.6894,6.6894,6.6894,6.6894,6.6894,6.6894,6.6894,6.6894,6.6894,6.6894,6.6894,6.6894,6.6894,6.6894,6.6894,6.6894,6.6894,6.6894,6.6894,6.6894,6.6894,6.6894,6.6894,6.6894,6.6894,6.6894,6.6894,6.6894,5.9454,5.9954,6.0358,6.0358,6.0589,6.0806,0.0,6.0806,0.0,0.0,6.0806,0.0,0.0,6.0806,6.0806,0.0,0.0,6.0806,6.0806,6.1345,0.0,0.0,0.0,6.1652,0.0,0.0,0.0,0.0,0.0,6.1652,6.1652,6.1652,6.1941,6.2474,6.2762,6.3205,0.0,0.0,0.0,0.0,0.0,6.5628,6.5904,0.0,0.0,6.5904,6.5904,6.5904,0.0,6.5551,6.507,6.4647,6.4936,6.4436,6.3795,6.4083,6.3948,0.0,0.0,0.0,6.3416,6.2018,0.0,0.0,0.0,0.0,0.0,0.0,0.0,0.0,0.0,0.0,6.0806,0.0,0.0,0.0,0.0,0.0,0.0,0.0,0.0,0.0,0.0,0.0,0.0,0.0,0.0,0.0,0.0,6.6894,6.6894,6.6894,6.6894,6.6894,6.6894,6.6894,6.6894,6.6894,6.6894,6.6894,6.6894,6.6894,6.6894,6.6894,6.6894,6.6894,6.6894,6.6894,6.6894,6.6894,6.6894,6.6894,6.6894,6.6894,6.6894,6.6894,5.9954,6.0416,6.0806,6.0806,6.0806,0.0,0.0,0.0,0.0,0.0,6.1268,0.0,6.0819,0.0,6.0806,0.0,6.0806,6.0941,6.1248,6.1499,0.0,6.1685,6.1941,0.0,0.0,0.0,0.0,0.0,0.0,6.2531,6.2531,6.2531,6.2801,6.3314,6.3622,6.4064,6.4628,6.4936,6.5397,0.0,0.0,6.5904,0.0,0.0,6.5904,6.5904,0.0,6.5904,6.5904,6.5904,6.5532,6.5166,6.5724,6.5128,6.4339,6.4897,6.4666,6.4166,6.3852,6.4166,0.0,6.2858,6.2916,0.0,6.157,0.0,0.0,0.0,0.0,0.0,0.0,0.0,0.0,0.0,0.0,0.0,0.0,6.1556,0.0,0.0,0.0,0.0,0.0,0.0,0.0,0.0,6.6495,0.0,0.0,0.0,6.6894,6.6894,6.6894,6.6894,6.6894,6.6894,6.6894,6.6894,6.6894,6.6894,6.6894,6.6894,6.6894,6.6894,6.6894,6.6894,6.6894,6.6894,6.6894,6.6894,6.6894,6.6894,6.6894,6.6894,6.6894,6.6894,6.0806,6.0819,6.0883,0.0,6.0896,0.0,0.0,0.0,6.2095,0.0,6.2062,6.171,6.0883,6.0806,6.0806,6.0806,6.0845,6.1229,6.2056,6.1402,0.0,0.0,6.2614,6.2576,6.3352,0.0,0.0,0.0,0.0,6.3352,6.3352,6.3352,6.3391,6.3468,6.4301,6.4666,6.4724,6.5551,6.5904,6.5904,6.5904,6.5904,6.5904,6.5904,6.5904,6.5904,6.5904,6.5904,6.5904,6.5904,6.5904,6.5904,6.5904,6.5904,6.5904,6.5904,6.5904,6.5724,6.4897,6.4666,6.4455,6.3583,0.0,0.0,0.0,0.0,6.2153,0.0,0.0,0.0,0.0,0.0,0.0,0.0,0.0,0.0,0.0,0.0,0.0,0.0,0.0,0.0,0.0,0.0,6.4602,6.639,6.5986,6.6035,0.0,0.0,6.6894,6.6894,6.6894,6.6894,6.6894,6.6894,6.6894,6.6894,6.6894,6.6894,6.6894,6.6894,6.6894,6.6894,6.6894,6.6894,6.6894,6.6894,6.6894,6.6894,6.6894,6.6894,6.6894,6.6894,6.6894,6.6894,6.0806,6.1325,6.196,0.0,6.2166,6.2037,0.0,0.0,0.0,0.0,6.1537,6.1056,6.0825,6.0806,6.0806,6.0806,6.1383,0.0,0.0,0.0,0.0,6.3314,6.3724,6.4051,6.4256,6.4282,0.0,6.4282,0.0,6.4282,6.4282,6.4282,6.4609,6.5243,6.5474,6.557,6.557,6.5801,6.5904,6.5904,6.5904,6.5904,0.0,0.0,6.5904,6.5904,6.5904,6.5904,6.5904,6.5904,6.5904,6.5904,6.5904,6.5904,6.5904,6.5904,6.5904,6.5846,6.5628,6.557,6.5359,6.4474,6.4282,6.4045,0.0,0.0,0.0,0.0,0.0,0.0,0.0,0.0,0.0,0.0,0.0,0.0,0.0,0.0,0.0,0.0,0.0,0.0,0.0,0.0,6.4971,6.5459,6.6165,6.666,0.0,0.0,0.0,6.6894,6.6894,6.6894,6.6894,6.6894,6.6894,6.6894,6.6894,6.6894,6.6894,6.6894,6.6894,6.6894,6.6894,6.6894,6.6894,6.6894,6.6894,6.6894,6.6894,6.6894,6.6894,6.6894,6.6894,6.6894,6.182,6.2281,0.0,6.3718,0.0,0.0,6.3237,6.3243,0.0,6.2666,6.2204,0.0,6.1402,6.1037,6.096,6.1345,6.1826,0.0,6.3134,0.0,0.0,6.4416,6.4551,6.4782,6.5166,6.5166,0.0,6.5166,0.0,0.0,6.5166,6.5166,6.5436,6.5904,6.5904,6.5904,6.5904,6.5904,6.5904,6.5904,6.5904,0.0,0.0,6.5904,6.5904,6.5904,6.5904,6.5904,6.5904,6.5904,6.5904,6.5904,6.5904,6.5904,6.5904,6.5904,6.5904,6.5904,6.5904,6.5904,6.5788,6.5282,6.5166,6.4936,6.4064,6.3872,6.3872,0.0,0.0,0.0,0.0,0.0,0.0,0.0,0.0,0.0,0.0,0.0,0.0,0.0,0.0,0.0,0.0,6.3845,6.47,6.5073,6.5736,0.0,0.0,0.0,0.0,6.6894,6.6894,6.6894,6.6894,6.6894,6.6894,6.6894,6.6894,6.6894,6.6894,6.6894,6.6894,6.6894,6.6894,6.6894,6.6894,6.6894,6.6894,6.6894,6.6894,6.6894,6.6894,6.6894,6.6894,6.6894,6.3314,6.3468,0.0,0.0,0.0,0.0,0.0,6.3852,0.0,6.3237,0.0,6.2704,6.1999,6.1364,6.1287,6.2037,0.0,6.3057,6.4493,6.4006,6.4314,6.582,6.5166,6.5128,6.5878,6.5904,0.0,0.0,0.0,0.0,6.5904,6.5904,6.5904,6.5904,6.5904,6.5904,0.0,6.5904,6.5904,6.5904,6.5904,6.5904,6.5904,6.5904,6.5904,6.5904,6.5904,6.5904,6.5904,6.5904,6.5904,6.5904,6.5904,6.5904,6.5904,6.5904,6.5904,6.5904,6.5904,6.5904,6.5904,6.5904,6.5904,6.5705,6.4936,6.4774,6.4805,6.4805,6.4205,6.4137,0.0,0.0,0.0,0.0,0.0,0.0,0.0,0.0,0.0,0.0,0.0,0.0,0.0,0.0,0.0,6.4999,6.5184,0.0,0.0,0.0,0.0,6.6894,6.6894,0.0,6.6894,0.0,6.6894,6.6894,6.6894,6.6894,6.6894,6.6894,6.6894,6.6894,6.6894,6.6894,6.6894,6.6894,6.6894,6.6894,6.6894,6.6894,6.6894,6.6894,6.6894,6.6894,6.4199,0.0,0.0,0.0,0.0,6.4122,6.341,6.2878,6.248,6.2326,6.1685,6.1191,6.1037,6.1537,6.1922,6.2095,6.3364,0.0,0.0,0.0,0.0,6.5878,6.5743,6.5743,6.5904,6.5904,6.5904,0.0,0.0,0.0,6.5904,6.5904,6.5904,6.5904,6.5904,6.5904,6.5904,6.5904,0.0,6.5904,6.5904,6.5904,6.5904,6.5904,6.5904,6.5904,6.5904,6.5904,6.5904,6.5904,6.5904,6.5904,6.5904,6.5904,6.5904,6.5904,6.5904,6.5904,6.5904,6.5904,6.5904,6.5904,6.5904,6.5865,6.5705,6.576,6.5847,6.5847,6.586,6.5731,6.5326,0.0,0.0,0.0,0.0,0.0,0.0,0.0,0.0,0.0,0.0,0.0,0.0,0.0,0.0,0.0,0.0,0.0,0.0,0.0,0.0,0.0,6.6894,0.0,0.0,0.0,6.6894,6.6894,6.6894,6.6894,6.6894,6.6894,6.6894,6.6894,6.6894,6.6894,6.6894,6.6894,6.6894,6.6894,6.6894,6.6894,6.6894,6.6894,6.6894,6.6894,6.5186,0.0,0.0,0.0,0.0,0.0,0.0,6.1979,0.0,6.2037,6.1729,6.1633,6.205,6.2095,6.2441,6.3326,6.4128,6.4782,6.5243,6.5673,6.5904,6.5904,6.5904,0.0,6.5904,6.5904,6.5904,6.5904,0.0,0.0,6.5904,6.5904,6.5904,6.5904,6.5904,6.5904,0.0,0.0,0.0,6.5904,6.5904,6.5904,6.5904,6.5904,6.5904,6.5904,6.5904,6.5904,6.5904,6.5904,6.5904,6.5904,6.5904,6.5904,6.5904,6.5904,6.5904,6.5904,6.5904,6.5904,6.5922,6.5991,6.5949,6.5952,6.6124,6.6138,6.6127,6.6228,6.6327,6.6137,6.5265,6.4389,0.0,0.0,0.0,0.0,0.0,0.0,0.0,0.0,0.0,0.0,0.0,0.0,0.0,0.0,0.0,0.0,0.0,0.0,0.0,0.0,0.0,0.0,0.0,0.0,0.0,6.6894,6.6894,6.6894,6.6894,6.6894,6.6894,6.6894,6.6894,6.6894,6.6894,6.6894,6.6894,6.6894,6.6894,6.6894,6.6894,6.6894,6.6894,6.6894,0.0,6.5609,0.0,0.0,6.3608,0.0,6.2191,6.1364,6.1056,6.1729,6.1979,6.2345,6.2974,6.2801,6.3153,6.4474,6.4762,6.5166,6.5865,6.5904,6.5904,6.5904,6.5904,6.5904,6.5904,6.5904,6.5904,0.0,0.0,0.0,0.0,0.0,0.0,0.0,0.0,0.0,0.0,0.0,6.5904,6.5904,6.5904,6.5904,6.5904,6.5904,6.5904,6.5904,6.5904,6.5904,6.5904,6.5904,6.5904,6.5904,6.5904,6.5904,6.5904,6.5904,6.5904,6.5904,6.5904,6.5915,6.5965,6.608,6.6053,6.6086,6.6343,6.6305,6.6248,6.6415,6.6482,6.6222,6.5322,6.4773,0.0,0.0,0.0,0.0,0.0,0.0,0.0,0.0,0.0,0.0,0.0,0.0,0.0,0.0,0.0,0.0,0.0,0.0,0.0,0.0,0.0,6.6683,6.6833,0.0,6.6894,0.0,6.6894,6.6894,6.6894,6.6894,6.6894,6.6894,6.6894,6.6894,6.6894,6.6894,6.6894,6.6894,6.6894,6.6894,6.6894,6.6894,6.6894,6.6894,0.0,0.0,0.0,0.0,0.0,0.0,6.2114,6.1364,6.0825,6.0921,6.1614,6.2133,6.2191,6.3493,6.4436,6.4589,6.532,6.5801,6.5878,6.5904,6.5904,6.5904,6.5904,6.5904,6.5904,6.5904,6.5904,0.0,0.0,0.0,0.0,0.0,0.0,0.0,0.0,0.0,0.0,6.5904,6.5904,6.5904,6.5904,6.5904,6.5904,6.5904,6.5904,6.5904,6.5904,6.5904,6.5904,6.5904,6.5904,6.5904,6.5904,6.5904,6.5904,6.5904,6.5904,6.5904,6.5904,6.5997,6.608,6.6104,6.6236,6.6367,6.6381,6.6483,6.6555,6.6583,6.6734,6.6554,6.555,6.6054,6.632,0.0,0.0,0.0,0.0,0.0,0.0,0.0,0.0,0.0,0.0,0.0,0.0,0.0,0.0,0.0,0.0,0.0,0.0,6.6406,0.0,6.6601,6.6628,6.6811,0.0,6.6894,6.6894,6.6894,6.6894,6.6894,6.6894,6.6894,6.6894,6.6894,6.6894,6.6894,6.6894,6.6894,6.6894,6.6894,6.6894,6.6894,6.6894,6.6894,0.0,0.0,0.0,0.0,0.0,0.0,0.0,6.1018,6.0998,6.1518,6.1883,6.2287,6.2762,6.3897,6.4801,6.532,6.5705,6.5904,6.5904,6.5904,6.5904,6.5904,6.5904,6.5904,6.5904,6.5904,6.5904,0.0,0.0,0.0,0.0,0.0,0.0,0.0,0.0,6.5904,6.5904,6.5904,6.5904,6.5904,6.5904,6.5904,6.5904,6.5904,6.5904,6.5904,6.5904,6.5904,6.5904,6.5904,6.5904,6.5904,6.5904,6.5904,6.5904,6.5904,6.5961,6.6024,6.6024,6.6142,6.6305,6.6373,6.6392,6.6457,6.6658,6.6648,6.663,6.6763,6.6834,6.6777,6.636,6.6209,6.6152,0.0,0.0,0.0,0.0,0.0,0.0,0.0,0.0,0.0,0.0,0.0,0.0,0.0,0.0,0.0,0.0,0.0,0.0,6.6227,0.0,6.6516,6.6597,6.6599,6.6636,6.6715,6.6636,6.6608,6.6608,6.6608,6.6639,6.6737,6.6853,6.6894,6.6894,6.6894,6.6894,6.6894,6.6894,6.6894,6.6894,6.6894,6.6894,6.6894,6.2993,0.0,6.2685,0.0,6.171,6.1518,6.0883,6.0806,6.1114,6.1979,6.2306,6.2762,6.3583,6.4455,6.5224,6.5846,6.5904,6.5904,6.5904,6.5904,6.5904,6.5904,6.5904,0.0,6.5904,6.5904,6.5904,6.5904,6.5904,0.0,0.0,0.0,0.0,0.0,6.5904,6.5904,6.5904,6.5904,6.5904,6.5904,6.5904,6.5904,6.5904,6.5904,6.5904,6.5904,6.5904,6.5904,6.5904,6.5904,6.5904,6.5904,6.5904,6.5927,6.5967,6.5967,6.6078,6.6198,6.6198,6.6311,6.6481,6.6581,6.6569,6.6613,6.6852,6.6788,6.6737,6.6874,6.6894,6.6894,6.6894,6.6406,6.6172,6.6797,0.0,0.0,0.0,0.0,0.0,0.0,6.5866,6.5414,6.532,0.0,0.0,0.0,0.0,0.0,0.0,0.0,0.0,0.0,0.0,0.0,0.0,6.6421,6.6444,6.6533,6.6441,6.6406,6.6409,6.6438,6.6507,6.6601,6.6811,6.6894,6.6894,6.6894,6.6894,6.6894,6.6894,6.6894,6.6894,6.6894,6.6894,6.6894,6.2268,6.2114,6.1845,6.0979,6.0825,6.0806,6.0806,6.0806,6.1114,6.1979,6.2781,6.3622,6.4493,6.5359,6.5878,6.5904,6.5904,6.5904,6.5904,6.5904,6.5904,0.0,0.0,6.5904,6.5904,6.5904,6.5904,6.5904,0.0,0.0,6.5904,0.0,6.5904,6.5904,6.5904,6.5904,6.5904,6.5904,6.5904,6.5904,6.5904,6.5904,6.5904,6.5904,6.5904,6.5904,6.5904,6.5904,6.5904,6.5904,6.5904,6.5904,6.5904,6.5983,6.6104,6.6104,6.6232,6.6403,6.6403,6.6493,6.6595,6.6597,6.6742,6.6894,6.6894,6.6894,6.6894,6.6894,6.6894,6.6894,6.6894,6.6894,6.6894,6.6894,0.0,0.0,0.0,0.0,0.0,0.0,6.5226,6.5115,6.5096,0.0,0.0,0.0,0.0,0.0,0.0,0.0,0.0,6.61,6.6094,0.0,6.6119,6.6298,6.6409,6.639,6.6409,6.6406,6.6393,6.6531,6.6597,6.6601,6.6811,6.6894,6.6894,6.6894,6.6894,6.6894,6.6894,6.6894,6.6894,6.6894,6.6894,6.6894,6.1268,6.121,6.1133,6.0845,6.0806,6.0806,6.0806,6.1306,6.1979,6.282,6.3666,6.4532,6.5397,6.5731,6.5904,0.0,6.5904,6.5904,0.0,6.5904,6.5904,6.5904,6.5904,6.5904,6.5904,6.5904,6.5904,6.5904,0.0,0.0,0.0,6.5904,6.5904,6.5904,6.5904,6.5904,6.5904,6.5904,6.5904,6.5904,6.5904,6.5904,6.5904,6.5904,6.5904,6.5904,6.5904,6.5904,6.5904,6.5904,6.5904,6.5922,6.6017,6.606,6.6122,6.626,6.6407,6.6531,6.6531,6.6675,6.6791,6.6791,6.6854,6.6894,6.6894,6.6894,6.6894,6.6894,6.6894,6.6894,6.6894,6.6894,6.6894,6.6894,6.6894,0.0,0.0,0.0,0.0,0.0,0.0,6.6091,0.0,6.578,0.0,0.0,0.0,0.0,0.0,0.0,0.0,0.0,6.6054,0.0,6.6109,6.6073,6.6119,6.6183,6.6094,6.606,6.6076,6.6337,6.6463,6.6476,6.6762,6.6894,6.6894,6.6894,6.6894,6.6894,6.6894,6.6894,6.6894,6.6894,6.6894,6.6894,6.0806,6.0806,6.0806,6.0806,6.0806,6.0806,6.0806,6.1537,6.2383,6.3179,6.4064,6.4936,6.5801,6.5904,0.0,6.5904,6.5904,6.5904,6.5904,6.5904,6.5904,6.5904,6.5904,6.5904,6.5904,0.0,0.0,6.5904,6.5904,6.5904,6.5904,6.5904,6.5904,6.5904,6.5904,6.5904,6.5904,6.5904,6.5904,6.5904,6.5904,6.5904,6.5904,6.5904,6.5904,6.5904,6.5904,6.5904,6.5904,6.5904,6.5904,6.594,6.6142,6.6204,6.6248,6.6413,6.6596,6.6713,6.6713,6.6791,6.6894,6.6894,6.6894,6.6894,6.6894,6.6894,6.6894,6.6894,6.6894,6.6894,6.6894,6.6894,6.6894,6.6894,6.6894,6.6894,6.6894,0.0,0.0,0.0,0.0,0.0,0.0,6.5616,0.0,0.0,0.0,0.0,0.0,0.0,0.0,6.5969,6.6017,0.0,6.6016,6.5944,6.5944,6.6016,6.5938,6.5904,6.5903,6.6175,6.6283,6.6305,6.6642,6.6788,6.6789,6.6874,6.6894,6.6894,6.6894,6.6894,6.6894,6.6894,6.6894,6.6894,6.0806,6.0806,0.0,0.0,6.0806,0.0,6.0806,6.1595,6.246,6.3198,6.4109,6.4993,6.5801,6.5904,6.5904,6.5904,0.0,0.0,0.0,6.5904,6.5904,6.5904,6.5904,6.5904,6.5904,6.5904,6.5904,6.5904,6.5904,6.5904,6.5904,6.5904,6.5904,6.5904,6.5904,6.5904,6.5904,6.5904,6.5904,6.5904,6.5904,6.5904,6.5904,6.5904,6.5904,6.5904,6.5904,6.5904,6.5904,6.5904,6.5904,6.5956,6.6287,6.6406,6.6423,6.6578,6.6743,6.6894,6.6894,6.6894,6.6894,6.6894,6.6894,6.6894,6.6894,6.6894,6.6894,6.6894,6.6894,6.6894,6.6894,6.6894,6.6894,6.6894,6.6894,6.6894,6.6894,0.0,0.0,0.0,0.0,0.0,0.0,6.4686,6.4993,0.0,0.0,0.0,0.0,0.0,6.5055,6.6056,6.5959,6.5904,6.5904,6.5904,6.5904,6.5904,6.5904,6.5904,6.5891,6.6047,6.6109,6.6118,6.6434,6.6592,6.6603,6.681,6.6894,6.6894,6.6894,6.6894,6.6894,6.6894,6.6894,6.6894,0.0,0.0,6.0806,6.0806,6.0806,6.0806,6.0806,6.205,6.3083,6.3275,6.4647,6.5673,6.5878,6.5904,6.5904,6.5904,6.5904,6.5904,6.5904,6.5904,6.5904,6.5904,6.5904,6.5904,6.5904,6.5904,6.5904,6.5904,6.5904,6.5904,6.5904,6.5904,6.5904,6.5904,6.5904,6.5904,6.5904,6.5904,6.5904,6.5904,6.5904,6.5904,6.5904,6.5904,6.5904,6.5904,6.5904,6.5904,6.5904,6.5904,6.5904,6.5956,6.6287,6.6406,6.6463,6.6737,6.6854,6.6894,6.6894,6.6894,6.6894,6.6894,6.6894,6.6894,6.6894,6.6894,6.6894,6.6894,6.6894,6.6894,6.6894,6.6894,6.6894,6.6894,6.6894,6.6894,6.6894,6.6765,0.0,0.0,6.5949,6.5785,6.5614,6.559,6.5397,0.0,0.0,0.0,0.0,6.4705,6.5011,6.5918,6.5922,6.5904,6.5904,6.5904,6.5904,6.5904,6.5904,6.5904,6.5891,6.6047,6.6109,6.6109,6.6354,6.6503,6.6598,6.6656,6.6764,6.6894,6.6894,6.6894,6.6894,6.6894,6.6894,6.6894,6.0806,6.0806,6.0806,6.0806,6.0806,6.0806,6.0806,6.2224,6.3295,6.3295,6.482,6.5904,6.5904,6.5904,6.5904,6.5904,6.5904,6.5904,6.5904,6.5904,6.5904,6.5904,6.5904,6.5904,6.5904,6.5904,6.5904,6.5904,6.5904,6.5904,6.5904,6.5904,6.5904,6.5904,6.5904,6.5904,6.5904,6.5904,6.5904,6.5904,6.5904,6.5904,6.5904,6.5904,6.5904,6.5904,6.5904,6.5904,6.5904,6.5904,6.5904,6.5932,6.6191,6.632,6.6457,6.6682,6.6832,6.6894,6.6894,6.6894,6.6894,6.6894,6.6894,6.6894,6.6894,6.6894,6.6894,6.6894,6.6894,6.6894,6.6894,6.6894,6.6874,6.6787,6.6501,6.6384,6.6636,6.6289,0.0,6.6236,6.6172,6.6044,6.5916,6.5904,6.5705,6.5224,0.0,0.0,6.5186,6.5186,6.5416,6.5878,6.5904,6.5904,6.5904,6.5904,6.5904,6.5904,6.5904,6.5904,6.591,6.5982,6.6022,6.6019,6.6181,6.6368,6.6512,6.656,6.6715,6.6894,6.6894,6.6894,6.6894,6.6894,6.6894,6.6894,6.0806,6.0806,6.0806,6.0806,6.0806,6.0806,6.0806,6.2224,6.3295,6.3295,6.482,6.5904,6.5904,6.5904,6.5904,6.5904,6.5904,6.5904,6.5904,6.5904,6.5904,6.5904,6.5904,6.5904,6.5904,6.5904,6.5904,6.5904,6.5904,6.5904,6.5904,6.5904,6.5904,6.5904,6.5904,6.5904,6.5904,6.5904,6.5904,6.5904,6.5904,6.5904,6.5904,6.5904,6.5904,6.5904,6.5904,6.5904,6.5904,6.5904,6.5904,6.5921,6.6064,6.6227,6.6387,6.6545,6.6715,6.6854,6.6894,6.6894,6.6894,6.6894,6.6894,6.6894,6.6894,6.6894,6.6894,6.6894,6.6894,6.6894,6.6894,6.6894,6.6834,6.6663,6.6139,6.5918,6.6363,0.0,6.5589,6.6044,6.6075,6.6035,6.591,6.5904,6.5904,6.5904,6.5904,6.5904,0.0,6.5904,6.5904,6.5904,6.5904,6.5904,6.5904,6.5904,6.5904,6.5904,6.5904,6.5904,6.5904,6.5904,6.5904,6.5916,6.6024,6.6176,6.6361,6.6512,6.6683,6.6854,6.6894,6.6894,6.6894,6.6894,6.6894,6.6894,6.0806,6.0806,6.0806,6.0806,6.0806,6.0806,6.0806,6.2224,6.3295,6.3295,6.482,6.5904,6.5904,6.5904,6.5904,6.5904,6.5904,6.5904,6.5904,6.5904,6.5904,6.5904,6.5904,6.5904,6.5904,6.5904,6.5904,6.5904,6.5904,6.5904,6.5904,6.5904,6.5904,6.5904,6.5904,6.5904,6.5904,6.5904,6.5904,6.5904,6.5904,6.5904,6.5904,6.5904,6.5904,6.5904,6.5904,6.5904,6.5904,6.5904,6.5904,6.5921,6.6064,6.6118,6.6212,6.6503,6.6625,6.6686,6.6854,6.6894,6.6894,6.6894,6.6894,6.6894,6.6894,6.6894,6.6894,6.6894,6.6894,6.6894,6.6894,6.6894,6.6894,6.6854,6.6622,6.6471,6.656,0.0,6.6017,6.6099,6.6,6.5921,6.5904,6.5904,6.5904,6.5904,6.5904,6.5904,6.5904,6.5904,6.5904,6.5904,6.5904,6.5904,6.5904,6.5904,6.5904,6.5904,6.5904,6.5904,6.5904,6.5904,6.5904,6.5904,6.5915,6.6017,6.6168,6.6354,6.6527,6.666,6.6833,6.6894,6.6894,6.6894,6.6894,6.6894,6.0806,6.0806,6.0806,6.0806,6.0806,6.0806,6.0806,6.2224,6.3295,6.3295,6.482,6.5904,6.5904,6.5904,6.5904,6.5904,6.5904,6.5904,6.5904,6.5904,6.5904,6.5904,6.5904,6.5904,6.5904,6.5904,6.5904,6.5904,6.5904,6.5904,6.5904,6.5904,6.5904,6.5904,6.5904,6.5904,6.5904,6.5904,6.5904,6.5904,6.5904,6.5904,6.5904,6.5904,6.5904,6.5904,6.5904,6.5904,6.5904,6.5904,6.5904,6.591,6.5982,6.6033,6.6136,6.6297,6.6531,6.6787,6.6874,6.6894,6.6894,6.6894,6.6894,6.6894,6.6894,6.6894,6.6894,6.6894,6.6894,6.6894,6.6894,6.6811,6.6739,6.6739,6.6213,0.0,0.0,6.5796,6.5543,6.5942,6.5938,6.5904,6.5904,6.5904,6.5904,6.5904,6.5904,6.5904,6.5904,6.5904,6.5904,6.5904,6.5904,6.5904,6.5904,6.5904,6.5904,6.5904,6.5904,6.5904,6.5904,6.5904,6.5904,6.5904,6.5904,6.5988,6.6128,6.6312,6.6478,6.6625,6.6812,6.6894,6.6894,6.6894,6.6894,6.6894,6.0806,6.0806,6.0806,6.0806,6.0806,6.0806,6.0806,6.2224,6.3295,6.3295,6.482,6.5904,6.5904,6.5904,6.5904,6.5904,6.5904,6.5904,6.5904,6.5904,6.5904,6.5904,6.5904,6.5904,6.5904,6.5904,6.5904,6.5904,6.5904,6.5904,6.5904,6.5904,6.5904,6.5904,6.5904,6.5904,6.5904,6.5904,6.5904,6.5904,6.5904,6.5904,6.5904,6.5904,6.5904,6.5904,6.5904,6.5904,6.5904,6.5904,6.5904,6.5904,6.5904,6.5971,6.6069,6.609,6.6418,6.6806,6.6874,6.6894,6.6894,6.6894,6.6894,6.6894,6.6894,6.6894,6.6894,6.6894,6.6894,6.6894,6.6833,6.6692,6.659,6.6569,0.0,0.0,0.0,6.5504,6.5263,6.5833,6.5904,6.5904,6.5904,6.5904,6.5904,6.5904,6.5904,6.5904,6.5904,6.5904,6.5904,6.5904,6.5904,6.5904,6.5904,6.5904,6.5904,6.5904,6.5904,6.5904,6.5904,6.5904,6.5904,6.5904,6.5904,6.5988,6.6128,6.6312,6.6478,6.6625,6.6812,6.6894,6.6894,6.6894,6.6894,6.6894,6.0806,6.0806,6.0806,6.0806,6.0806,6.0806,6.0806,6.2224,6.3295,6.3295,6.482,6.5904,6.5904,6.5904,6.5904,6.5904,6.5904,6.5904,6.5904,6.5904,6.5904,6.5904,6.5904,6.5904,6.5904,6.5904,6.5904,6.5904,6.5904,6.5904,6.5904,6.5904,6.5904,6.5904,6.5904,6.5904,6.5904,6.5904,6.5904,6.5904,6.5904,6.5904,6.5904,6.5904,6.5904,6.5904,6.5904,6.5904,6.5904,6.5904,6.5904,6.5904,6.5904,6.5916,6.5938,6.606,6.626,6.6503,6.6829,6.6894,6.6894,6.6894,6.6894,6.6894,6.6894,6.6894,6.6894,6.6894,6.6894,6.6834,6.6657,6.6601,6.6569,6.6429,0.0,0.0,6.6094,6.5945,6.5852,6.5884,6.5904,6.5904,6.5904,6.5904,6.5904,6.5904,6.5904,6.5904,6.5904,6.5904,6.5904,6.5904,6.5904,6.5904,6.5904,6.5904,6.5904,6.5904,6.5904,6.5904,6.5904,6.5904,6.5904,6.5904,6.5904,6.5988,6.6128,6.6312,6.6478,6.6625,6.6812,6.6894,6.6894,6.6894,6.6894,6.6894,6.0806,6.0806,6.0806,6.0806,6.0806,6.0806,6.0806,6.2224,6.3295,6.3295,6.482,6.5904,6.5904,6.5904,6.5904,6.5904,6.5904,6.5904,6.5904,6.5904,6.5904,6.5904,6.5904,6.5904,6.5904,6.5904,6.5904,6.5904,6.5904,6.5904,6.5904,6.5904,6.5904,6.5904,6.5904,6.5904,6.5904,6.5904,6.5904,6.5904,6.5904,6.5904,6.5904,6.5904,6.5904,6.5904,6.5904,6.5904,6.5904,6.5904,6.5904,6.5904,6.5904,6.5904,6.5927,6.605,6.6159,6.6272,6.652,6.6643,6.6686,6.6617,6.6753,6.6874,6.674,6.6811,6.6855,6.6739,6.6714,6.6675,6.652,6.6377,6.6318,6.6381,0.0,6.6011,6.6085,6.5986,6.5904,6.5904,6.5904,6.5904,6.5904,6.5904,6.5904,6.5904,6.5904,6.5904,6.5904,6.5904,6.5904,6.5904,6.5904,6.5904,6.5904,6.5904,6.5904,6.5904,6.5904,6.5904,6.5904,6.5904,6.5904,6.5904,6.5904,6.5933,6.6008,6.6279,6.6423,6.6495,6.6785,6.6894,6.6894,6.6894,6.6894,6.6894,6.0806,6.0806,6.0806,6.0806,6.0806,6.0806,6.0806,6.2224,6.3295,6.3295,6.482,6.5904,6.5904,6.5904,6.5904,6.5904,6.5904,6.5904,6.5904,6.5904,6.5904,6.5904,6.5904,6.5904,6.5904,6.5904,6.5904,6.5904,6.5904,6.5904,6.5904,6.5904,6.5904,6.5904,6.5904,6.5904,6.5904,6.5904,6.5904,6.5904,6.5904,6.5904,6.5904,6.5904,6.5904,6.5904,6.5904,6.5904,6.5904,6.5904,6.5904,6.5904,6.5904,6.5904,6.5928,6.6003,6.6042,6.6064,6.6219,6.6331,6.644,6.6402,6.6572,6.6702,6.6567,6.6642,6.6702,6.6567,6.6531,6.6495,6.6337,6.6183,6.6122,6.623,6.6044,6.592,6.6016,6.5967,6.5904,6.5904,6.5904,6.5904,6.5904,6.5904,6.5904,6.5904,6.5904,6.5904,6.5904,6.5904,6.5904,6.5904,6.5904,6.5904,6.5904,6.5904,6.5904,6.5904,6.5904,6.5904,6.5904,6.5904,6.5904,6.5904,6.5904,6.5921,6.5994,6.6276,6.6418,6.6483,6.6785,6.6894,6.6894,6.6894,6.6894,6.6894,6.0806,6.0806,6.0806,6.0806,6.0806,6.0806,6.0806,6.2224,6.3295,6.3295,6.482,6.5904,6.5904,6.5904,6.5904,6.5904,6.5904,6.5904,6.5904,6.5904,6.5904,6.5904,6.5904,6.5904,6.5904,6.5904,6.5904,6.5904,6.5904,6.5904,6.5904,6.5904,6.5904,6.5904,6.5904,6.5904,6.5904,6.5904,6.5904,6.5904,6.5904,6.5904,6.5904,6.5904,6.5904,6.5904,6.5904,6.5904,6.5904,6.5904,6.5904,6.5904,6.5904,6.5904,6.5904,6.5904,6.5904,6.5904,6.5904,6.5994,6.6145,6.636,6.6406,6.6406,6.6406,6.6406,6.6406,6.6406,6.6406,6.633,6.6132,6.6104,6.6059,6.5915,6.5904,6.5904,6.5904,6.5904,6.5904,6.5904,6.5904,6.5904,6.5904,6.5904,6.5904,6.5904,6.5904,6.5904,6.5904,6.5904,6.5904,6.5904,6.5904,6.5904,6.5904,6.5904,6.5904,6.5904,6.5904,6.5904,6.5904,6.5904,6.5904,6.5904,6.5904,6.5982,6.6109,6.6312,6.6478,6.6624,6.6812,6.6894,6.6894,6.6894,6.6894,6.6894,6.0806,6.0806,6.0806,6.0806,6.0806,6.0806,6.0806,6.2224,6.3295,6.3295,6.482,6.5904,6.5904,6.5904,6.5904,6.5904,6.5904,6.5904,6.5904,6.5904,6.5904,6.5904,6.5904,6.5904,6.5904,6.5904,6.5904,6.5904,6.5904,6.5904,6.5904,6.5904,6.5904,6.5904,6.5904,6.5904,6.5904,6.5904,6.5904,6.5904,6.5904,6.5904,6.5904,6.5904,6.5904,6.5904,6.5904,6.5904,6.5904,6.5904,6.5904,6.5904,6.5904,6.5904,6.5904,6.5904,6.5904,6.5904,6.5904,6.5933,6.5971,6.6022,6.6241,6.6354,6.6216,6.6294,6.6354,6.6212,6.6198,6.6146,6.5986,6.5967,6.5956,6.5916,6.5904,6.5904,6.5904,6.5904,6.5904,6.5904,6.5904,6.5904,6.5904,6.5904,6.5904,6.5904,6.5904,6.5904,6.5904,6.5904,6.5904,6.5904,6.5904,6.5904,6.5904,6.5904,6.5904,6.5904,6.5904,6.5904,6.5904,6.5904,6.5904,6.5904,6.5904,6.5921,6.5988,6.6276,6.6418,6.6481,6.6785,6.6894,6.6894,6.6894,6.6894,6.6894,6.0806,6.0806,6.0806,6.0806,6.0806,6.0806,6.0806,6.2224,6.3295,6.3295,6.482,6.5904,6.5904,6.5904,6.5904,6.5904,6.5904,6.5904,6.5904,6.5904,6.5904,6.5904,6.5904,6.5904,6.5904,6.5904,6.5904,6.5904,6.5904,6.5904,6.5904,6.5904,6.5904,6.5904,6.5904,6.5904,6.5904,6.5904,6.5904,6.5904,6.5904,6.5904,6.5904,6.5904,6.5904,6.5904,6.5904,6.5904,6.5904,6.5904,6.5904,6.5904,6.5904,6.5904,6.5904,6.5904,6.5904,6.5904,6.5904,6.5904,6.5904,6.5904,6.6049,6.6166,6.6047,6.6119,6.6166,6.6042,6.603,6.5994,6.5922,6.5904,6.5904,6.5904,6.5904,6.5904,6.5904,6.5904,6.5904,6.5904,6.5904,6.5904,6.5904,6.5904,6.5904,6.5904,6.5904,6.5904,6.5904,6.5904,6.5904,6.5904,6.5904,6.5904,6.5904,6.5904,6.5904,6.5904,6.5904,6.5904,6.5904,6.5904,6.5904,6.5904,6.5904,6.5904,6.5934,6.6267,6.6406,6.6421,6.6779,6.6894,6.6894,6.6894,6.6894,6.6894,6.0806,6.0806,6.0806,6.0806,6.0806,6.0806,6.0806,6.2224,6.3295,6.3295,6.482,6.5904,6.5904,6.5904,6.5904,6.5904,6.5904,6.5904,6.5904,6.5904,6.5904,6.5904,6.5904,6.5904,6.5904,6.5904,6.5904,6.5904,6.5904,6.5904,6.5904,6.5904,6.5904,6.5904,6.5904,6.5904,6.5904,6.5904,6.5904,6.5904,6.5904,6.5904,6.5904,6.5904,6.5904,6.5904,6.5904,6.5904,6.5904,6.5904,6.5904,6.5904,6.5904,6.5904,6.5904,6.5904,6.5904,6.5904,6.5904,6.5904,6.5904,6.5904,6.5904,6.5904,6.5904,6.5904,6.5904,6.5904,6.5904,6.5904,6.5904,6.5904,6.5904,6.5904,6.5904,6.5904,6.5904,6.5904,6.5904,6.5904,6.5904,6.5904,6.5904,6.5904,6.5904,6.5904,6.5904,6.5904,6.5904,6.5904,6.5904,6.5904,6.5904,6.5904,6.5904,6.5904,6.5904,6.5904,6.5904,6.5904,6.5904,6.5904,6.5904,6.5904,6.5904,6.5916,6.5938,6.6275,6.6416,6.646,6.6761,6.6894,6.6894,6.6894,6.6894,6.6894,6.0806,6.0806,6.0806,6.0806,6.0806,6.0806,6.0806,6.2224,6.3295,6.3295,6.482,6.5904,6.5904,6.5904,6.5904,6.5904,6.5904,6.5904,6.5904,6.5904,6.5904,6.5904,6.5904,6.5904,6.5904,6.5904,6.5904,6.5904,6.5904,6.5904,6.5904,6.5904,6.5904,6.5904,6.5904,6.5904,6.5904,6.5904,6.5904,6.5904,6.5904,6.5904,6.5904,6.5904,6.5904,6.5904,6.5904,6.5904,6.5904,6.5904,6.5904,6.5904,6.5904,6.5904,6.5904,6.5904,6.5904,6.5904,6.5904,6.5904,6.5904,6.5904,6.5904,6.5904,6.5904,6.5904,6.5904,6.5904,6.5904,6.5904,6.5904,6.5904,6.5904,6.5904,6.5904,6.5904,6.5904,6.5904,6.5904,6.5904,6.5904,6.5904,6.5904,6.5904,6.5904,6.5904,6.5904,6.5904,6.5904,6.5904,6.5904,6.5904,6.5904,6.5904,6.5904,6.5904,6.5904,6.5904,6.5904,6.5904,6.5904,6.5904,6.5904,6.5904,6.5904,6.5967,6.607,6.6314,6.646,6.6578,6.681,6.6894,6.6894,6.6894,6.6894,6.6894,6.0806,6.0806,6.0806,6.0806,6.0806,6.0806,6.0806,6.2224,6.3295,6.3295,6.482,6.5904,6.5904,6.5904,6.5904,6.5904,6.5904,6.5904,6.5904,6.5904,6.5904,6.5904,6.5904,6.5904,6.5904,6.5904,6.5904,6.5904,6.5904,6.5904,6.5904,6.5904,6.5904,6.5904,6.5904,6.5904,6.5904,6.5904,6.5904,6.5904,6.5904,6.5904,6.5904,6.5904,6.5904,6.5904,6.5904,6.5904,6.5904,6.5904,6.5904,6.5904,6.5904,6.5904,6.5904,6.5904,6.5904,6.5904,6.5904,6.5904,6.5904,6.5904,6.5904,6.5904,6.5904,6.5904,6.5904,6.5904,6.5904,6.5904,6.5904,6.5904,6.5904,6.5904,6.5904,6.5904,6.5904,6.5904,6.5904,6.5904,6.5904,6.5904,6.5904,6.5904,6.5904,6.5904,6.5904,6.5904,6.5904,6.5904,6.5904,6.5904,6.5904,6.5904,6.5904,6.5904,6.5904,6.5904,6.5904,6.5904,6.5904,6.5904,6.5904,6.5904,6.5904,6.5938,6.6024,6.6295,6.6438,6.6521,6.6807,6.6894,6.6894,6.6894,6.6894,6.6894,6.0806,6.0806,6.0806,6.0806,6.0806,6.0806,6.0806,6.2224,6.3295,6.3295,6.482,6.5904,6.5904,6.5904,6.5904,6.5904,6.5904,6.5904,6.5904,6.5904,6.5904,6.5904,6.5904,6.5904,6.5904,6.5904,6.5904,6.5904,6.5904,6.5904,6.5904,6.5904,6.5904,6.5904,6.5904,6.5904,6.5904,6.5904,6.5904,6.5904,6.5904,6.5904,6.5904,6.5904,6.5904,6.5904,6.5904,6.5904,6.5904,6.5904,6.5904,6.5904,6.5904,6.5904,6.5904,6.5904,6.5904,6.5904,6.5904,6.5904,6.5904,6.5904,6.5904,6.5904,6.5904,6.5904,6.5904,6.5904,6.5904,6.5904,6.5904,6.5904,6.5904,6.5904,6.5904,6.5904,6.5904,6.5904,6.5904,6.5904,6.5904,6.5904,6.5904,6.5904,6.5904,6.5904,6.5904,6.5904,6.5904,6.5904,6.5904,6.5904,6.5904,6.5904,6.5904,6.5904,6.5904,6.5904,6.5904,6.5904,6.5904,6.5904,6.5904,6.5904,6.5904,6.5916,6.5955,6.6264,6.6406,6.6477,6.6782,6.6894,6.6894,6.6894,6.6894,6.6894,6.0806,6.0806,6.0806,6.0806,6.0806,6.0806,6.0806,6.2224,6.3295,6.3295,6.482,6.5904,6.5904,6.5904,6.5904,6.5904,6.5904,6.5904,6.5904,6.5904,6.5904,6.5904,6.5904,6.5904,6.5904,6.5904,6.5904,6.5904,6.5904,6.5904,6.5904,6.5904,6.5904,6.5904,6.5904,6.5904,6.5904,6.5904,6.5904,6.5904,6.5904,6.5904,6.5904,6.5904,6.5904,6.5904,6.5904,6.5904,6.5904,6.5904,6.5904,6.5904,6.5904,6.5904,6.5904,6.5904,6.5904,6.5904,6.5904,6.5904,6.5904,6.5904,6.5904,6.5904,6.5904,6.5904,6.5904,6.5904,6.5904,6.5904,6.5904,6.5904,6.5904,6.5904,6.5904,6.5904,6.5904,6.5904,6.5904,6.5904,6.5904,6.5904,6.5904,6.5904,6.5904,6.5904,6.5904,6.5904,6.5904,6.5904,6.5904,6.5904,6.5904,6.5904,6.5904,6.5904,6.5904,6.5904,6.5904,6.5904,6.5904,6.5904,6.5904,6.5904,6.5904,6.5965,6.608,6.6302,6.6468,6.6588,6.6811,6.6894,6.6894,6.6894,6.6894,6.6894,6.0806,6.0806,6.0806,6.0806,6.0806,6.0806,6.0806,6.2224,6.3295,6.3295,6.482,6.5904,6.5904,6.5904,6.5904,6.5904,6.5904,6.5904,6.5904,6.5904,6.5904,6.5904,6.5904,6.5904,6.5904,6.5904,6.5904,6.5904,6.5904,6.5904,6.5904,6.5904,6.5904,6.5904,6.5904,6.5904,6.5904,6.5904,6.5904,6.5904,6.5904,6.5904,6.5904,6.5904,6.5904,6.5904,6.5904,6.5904,6.5904,6.5904,6.5904,6.5904,6.5904,6.5904,6.5904,6.5904,6.5904,6.5904,6.5904,6.5904,6.5904,6.5904,6.5904,6.5904,6.5904,6.5904,6.5904,6.5904,6.5904,6.5904,6.5904,6.5904,6.5904,6.5904,6.5904,6.5904,6.5904,6.5904,6.5904,6.5904,6.5904,6.5904,6.5904,6.5904,6.5904,6.5904,6.5904,6.5904,6.5904,6.5904,6.5904,6.5904,6.5904,6.5904,6.5904,6.5904,6.5904,6.5904,6.5904,6.5904,6.5904,6.5904,6.5904,6.5904,6.5904,6.5988,6.6128,6.6312,6.6478,6.6625,6.6812,6.6894,6.6894,6.6894,6.6894,6.6894]}]]